[[{"header":{"parameterUnit":"m.s-1","parameterCategory":1,"la1":30.6,"la2":29.2853,"lo1":-89.7004,"lo2":-87.6739,"dy":0.0162,"dx":0.0183,"nx":112,"ny":82,"refTime":"2024-09-18T06:00:00:Z","depth":0,"parameterNumber":2,"parameterNumberName":"U-component_of_WINDS"},"data":[0.0,0.0,0.0,0.0,0.0,0.0,0.0,0.0,0.0,0.0,0.0,0.0,0.0,0.0,0.0,0.0,0.0,0.0,0.0,0.0,0.0,0.0,0.0,0.0,0.0,0.0,0.0,0.0,0.0,0.0,0.0,0.0,0.0,0.0,0.0,0.0,0.0,0.0,0.0,0.0,0.0,0.0,0.0,0.0,0.0,0.0,0.0,0.0,0.0,0.0,0.0,0.0,0.0,0.0,0.0,0.0,0.0,0.0,0.0,0.0,0.0,0.0,0.0,0.0,0.0,0.0,0.0,0.0,0.0,0.0,0.0,0.0,0.0,0.0,0.0,0.0,0.0,0.0,0.0,0.0,0.0,0.0,0.0,0.0,0.0,0.0,0.0,0.0,0.0,0.0,-1.7285,-1.9309,-2.113,-2.2209,-2.2209,-2.218,-2.0834,-1.7731,0.0,0.0,0.0,0.0,0.0,0.0,0.0,0.0,0.0,0.0,0.0,0.0,0.0,0.0,0.0,0.0,0.0,0.0,0.0,0.0,0.0,0.0,0.0,0.0,0.0,0.0,0.0,0.0,0.0,0.0,0.0,0.0,0.0,0.0,0.0,0.0,0.0,0.0,0.0,0.0,0.0,0.0,0.0,0.0,0.0,0.0,0.0,0.0,0.0,0.0,0.0,0.0,0.0,0.0,0.0,0.0,0.0,0.0,0.0,0.0,0.0,0.0,0.0,0.0,0.0,0.0,0.0,0.0,0.0,0.0,0.0,0.0,0.0,0.0,0.0,0.0,0.0,0.0,0.0,0.0,0.0,0.0,0.0,0.0,0.0,0.0,0.0,0.0,0.0,0.0,0.0,0.0,0.0,0.0,0.0,0.0,0.0,0.0,0.0,0.0,0.0,0.0,0.0,0.0,-1.7319,-2.138,-2.1864,-2.1886,-2.1886,-2.16,-2.0239,-1.7367,0.0,0.0,0.0,0.0,0.0,0.0,0.0,0.0,0.0,0.0,0.0,0.0,0.0,0.0,0.0,0.0,0.0,0.0,0.0,0.0,0.0,0.0,0.0,0.0,0.0,0.0,0.0,0.0,0.0,0.0,0.0,0.0,0.0,0.0,0.0,0.0,0.0,0.0,0.0,0.0,0.0,0.0,0.0,0.0,0.0,0.0,0.0,0.0,0.0,0.0,0.0,0.0,0.0,0.0,0.0,0.0,0.0,0.0,0.0,0.0,0.0,0.0,0.0,0.0,0.0,0.0,0.0,0.0,0.0,0.0,0.0,0.0,0.0,0.0,0.0,0.0,0.0,0.0,0.0,0.0,0.0,0.0,0.0,0.0,0.0,0.0,0.0,0.0,0.0,0.0,0.0,0.0,0.0,0.0,0.0,0.0,0.0,0.0,0.0,0.0,0.0,0.0,0.0,-1.7289,-1.8461,-2.1927,-2.1988,-2.1812,-2.1812,-2.1645,-2.0239,-1.7081,-1.5651,0.0,0.0,0.0,0.0,0.0,0.0,0.0,0.0,0.0,0.0,0.0,0.0,0.0,0.0,0.0,0.0,0.0,0.0,0.0,0.0,0.0,0.0,0.0,0.0,0.0,0.0,0.0,0.0,0.0,0.0,0.0,0.0,0.0,0.0,0.0,0.0,0.0,0.0,0.0,0.0,0.0,0.0,0.0,0.0,0.0,0.0,0.0,0.0,0.0,0.0,0.0,0.0,0.0,0.0,0.0,0.0,0.0,0.0,0.0,0.0,0.0,0.0,0.0,0.0,0.0,0.0,0.0,0.0,0.0,0.0,0.0,0.0,0.0,0.0,0.0,0.0,0.0,0.0,0.0,0.0,0.0,0.0,0.0,0.0,0.0,0.0,0.0,0.0,0.0,0.0,0.0,0.0,0.0,0.0,0.0,0.0,0.0,0.0,0.0,0.0,0.0,0.0,-1.9068,-1.9841,-2.185,-2.1768,-2.1554,-2.1554,-2.1035,-1.9542,-1.6762,-1.4857,0.0,0.0,0.0,0.0,0.0,0.0,0.0,0.0,0.0,0.0,0.0,0.0,0.0,0.0,0.0,0.0,0.0,0.0,0.0,0.0,0.0,0.0,0.0,0.0,0.0,0.0,0.0,0.0,0.0,0.0,0.0,0.0,0.0,0.0,0.0,0.0,0.0,0.0,0.0,0.0,0.0,0.0,0.0,0.0,0.0,0.0,0.0,0.0,0.0,0.0,0.0,0.0,0.0,0.0,0.0,0.0,0.0,0.0,0.0,0.0,0.0,0.0,0.0,0.0,0.0,0.0,0.0,0.0,0.0,0.0,0.0,0.0,0.0,0.0,0.0,0.0,0.0,0.0,0.0,0.0,0.0,0.0,0.0,0.0,0.0,0.0,0.0,0.0,0.0,0.0,0.0,0.0,0.0,0.0,0.0,0.0,0.0,0.0,0.0,0.0,0.0,0.0,-1.9051,-2.1176,-2.1337,-2.1055,-2.0876,-2.0876,-1.8795,-1.7156,-1.628,-1.3166,0.0,0.0,0.0,0.0,0.0,0.0,0.0,0.0,0.0,0.0,0.0,0.0,0.0,0.0,0.0,0.0,0.0,0.0,0.0,0.0,0.0,0.0,0.0,0.0,0.0,0.0,0.0,0.0,0.0,0.0,0.0,0.0,0.0,0.0,0.0,0.0,0.0,0.0,0.0,0.0,0.0,0.0,0.0,0.0,0.0,0.0,0.0,0.0,0.0,0.0,0.0,0.0,0.0,0.0,0.0,0.0,0.0,0.0,0.0,0.0,0.0,0.0,0.0,0.0,0.0,0.0,0.0,0.0,0.0,0.0,0.0,0.0,0.0,0.0,0.0,0.0,0.0,0.0,0.0,0.0,0.0,0.0,0.0,0.0,0.0,0.0,0.0,0.0,0.0,0.0,0.0,0.0,0.0,0.0,0.0,0.0,0.0,0.0,0.0,0.0,0.0,0.0,-1.825,-1.9923,0.0,-2.0942,-2.0794,-2.0794,-1.9955,-1.8329,-1.5729,0.0,0.0,0.0,0.0,0.0,0.0,0.0,0.0,0.0,0.0,0.0,0.0,0.0,0.0,0.0,0.0,0.0,0.0,0.0,0.0,0.0,0.0,0.0,0.0,0.0,0.0,0.0,0.0,0.0,0.0,0.0,0.0,0.0,0.0,0.0,0.0,0.0,0.0,0.0,0.0,0.0,0.0,0.0,0.0,0.0,0.0,0.0,0.0,0.0,0.0,0.0,0.0,0.0,0.0,0.0,0.0,0.0,0.0,0.0,0.0,0.0,0.0,0.0,0.0,0.0,0.0,0.0,0.0,0.0,0.0,0.0,0.0,0.0,0.0,0.0,0.0,0.0,0.0,0.0,0.0,0.0,0.0,0.0,0.0,0.0,0.0,0.0,0.0,0.0,0.0,0.0,0.0,0.0,0.0,0.0,0.0,0.0,0.0,0.0,0.0,0.0,0.0,-1.632,-1.7971,-1.937,0.0,-2.0614,-2.0544,-2.0544,-1.978,-1.8112,-1.5351,0.0,0.0,0.0,0.0,0.0,0.0,0.0,0.0,0.0,0.0,0.0,0.0,0.0,0.0,0.0,0.0,0.0,0.0,0.0,0.0,0.0,0.0,0.0,0.0,0.0,0.0,0.0,0.0,0.0,0.0,0.0,0.0,0.0,0.0,0.0,0.0,0.0,0.0,0.0,0.0,0.0,0.0,0.0,0.0,0.0,0.0,0.0,0.0,0.0,0.0,0.0,0.0,0.0,0.0,0.0,0.0,0.0,0.0,0.0,0.0,0.0,0.0,0.0,0.0,0.0,0.0,0.0,0.0,0.0,0.0,0.0,0.0,0.0,0.0,0.0,0.0,0.0,0.0,0.0,0.0,0.0,0.0,0.0,0.0,0.0,0.0,0.0,0.0,0.0,0.0,0.0,0.0,0.0,0.0,0.0,0.0,0.0,0.0,0.0,0.0,0.0,0.0,-1.5941,-1.8384,-2.0005,-2.0005,-2.0005,-2.0005,-2.0005,-1.7561,-1.5755,0.0,0.0,0.0,0.0,0.0,0.0,0.0,0.0,0.0,0.0,0.0,0.0,0.0,0.0,0.0,0.0,0.0,0.0,0.0,0.0,0.0,0.0,0.0,0.0,0.0,0.0,0.0,0.0,0.0,0.0,0.0,0.0,0.0,0.0,0.0,0.0,0.0,0.0,0.0,0.0,0.0,0.0,0.0,0.0,0.0,0.0,0.0,0.0,0.0,0.0,0.0,0.0,0.0,0.0,0.0,0.0,0.0,0.0,0.0,0.0,0.0,0.0,0.0,0.0,0.0,0.0,0.0,0.0,0.0,0.0,0.0,0.0,0.0,0.0,0.0,0.0,0.0,0.0,0.0,0.0,0.0,0.0,0.0,0.0,0.0,0.0,0.0,0.0,0.0,0.0,0.0,0.0,0.0,0.0,0.0,0.0,0.0,0.0,0.0,0.0,0.0,0.0,0.0,-1.5716,-1.8208,-1.9851,-1.9851,-1.9952,-2.0005,-2.0005,-1.8852,-1.7228,-1.5148,0.0,0.0,0.0,0.0,0.0,0.0,0.0,0.0,0.0,0.0,0.0,0.0,0.0,0.0,0.0,0.0,0.0,0.0,0.0,0.0,0.0,0.0,0.0,0.0,0.0,0.0,0.0,0.0,0.0,0.0,0.0,0.0,0.0,0.0,0.0,0.0,0.0,0.0,0.0,0.0,0.0,0.0,0.0,0.0,0.0,0.0,0.0,0.0,0.0,0.0,0.0,0.0,0.0,0.0,0.0,0.0,0.0,0.0,0.0,0.0,0.0,0.0,0.0,0.0,0.0,0.0,0.0,0.0,0.0,0.0,0.0,0.0,0.0,0.0,0.0,0.0,0.0,0.0,0.0,0.0,0.0,0.0,0.0,0.0,0.0,0.0,0.0,0.0,0.0,0.0,0.0,0.0,0.0,0.0,0.0,0.0,0.0,0.0,0.0,0.0,0.0,0.0,-1.5631,-1.8126,-1.9762,-1.9762,-1.9815,-1.9869,-1.9869,-1.9265,-1.786,-1.5476,0.0,0.0,0.0,0.0,0.0,0.0,0.0,0.0,0.0,0.0,0.0,0.0,0.0,0.0,0.0,0.0,0.0,0.0,0.0,0.0,0.0,0.0,0.0,0.0,0.0,0.0,0.0,0.0,0.0,0.0,0.0,0.0,0.0,0.0,0.0,0.0,0.0,0.0,0.0,0.0,0.0,0.0,0.0,0.0,0.0,0.0,0.0,0.0,0.0,0.0,0.0,0.0,0.0,0.0,0.0,0.0,0.0,0.0,0.0,0.0,0.0,0.0,0.0,0.0,0.0,0.0,0.0,0.0,0.0,0.0,0.0,0.0,0.0,0.0,0.0,0.0,0.0,0.0,0.0,0.0,0.0,0.0,0.0,0.0,0.0,0.0,0.0,0.0,0.0,0.0,0.0,0.0,0.0,0.0,0.0,0.0,0.0,0.0,0.0,0.0,0.0,0.0,-1.5631,-1.8077,-1.9708,-1.9708,-1.9708,-1.9708,-1.9708,-1.9091,-1.7924,-1.6084,0.0,0.0,0.0,0.0,0.0,0.0,0.0,0.0,0.0,0.0,0.0,0.0,0.0,0.0,0.0,0.0,0.0,0.0,0.0,0.0,0.0,0.0,0.0,0.0,0.0,0.0,0.0,0.0,0.0,0.0,0.0,0.0,0.0,0.0,0.0,0.0,0.0,0.0,0.0,0.0,0.0,0.0,0.0,0.0,0.0,0.0,0.0,0.0,0.0,0.0,0.0,0.0,0.0,0.0,0.0,0.0,0.0,0.0,0.0,0.0,-1.3455,-1.2524,0.0,0.0,0.0,0.0,0.0,0.0,0.0,0.0,0.0,0.0,0.0,0.0,0.0,0.0,0.0,0.0,0.0,0.0,0.0,0.0,0.0,0.0,0.0,0.0,0.0,0.0,0.0,0.0,0.0,0.0,0.0,0.0,0.0,0.0,0.0,0.0,0.0,0.0,0.0,0.0,-1.5633,-1.8077,-1.9708,-1.9708,-1.9708,-1.9708,-1.9708,-1.9091,-1.8313,-1.734,-1.5211,0.0,0.0,0.0,0.0,0.0,0.0,0.0,0.0,0.0,0.0,0.0,0.0,0.0,0.0,0.0,0.0,0.0,0.0,0.0,0.0,0.0,0.0,0.0,0.0,0.0,0.0,0.0,0.0,0.0,0.0,0.0,0.0,0.0,0.0,0.0,0.0,0.0,0.0,0.0,0.0,0.0,0.0,0.0,0.0,0.0,0.0,0.0,0.0,0.0,0.0,0.0,0.0,0.0,0.0,0.0,0.0,0.0,0.0,0.0,-1.6428,-1.5231,0.0,0.0,0.0,0.0,0.0,0.0,0.0,0.0,0.0,0.0,0.0,0.0,0.0,0.0,0.0,0.0,0.0,0.0,0.0,0.0,0.0,0.0,0.0,0.0,0.0,0.0,0.0,0.0,0.0,0.0,0.0,0.0,0.0,0.0,0.0,0.0,0.0,0.0,0.0,0.0,-1.6069,-1.8253,-1.9708,-1.9708,-1.9708,-1.9708,-1.9708,-1.92,-1.8602,-1.792,-1.5987,0.0,0.0,0.0,0.0,0.0,0.0,0.0,0.0,0.0,0.0,0.0,0.0,0.0,0.0,0.0,0.0,0.0,0.0,0.0,0.0,0.0,0.0,0.0,0.0,0.0,0.0,0.0,0.0,0.0,0.0,0.0,0.0,0.0,0.0,0.0,0.0,0.0,0.0,0.0,0.0,0.0,0.0,0.0,0.0,0.0,0.0,0.0,0.0,0.0,0.0,0.0,0.0,0.0,-2.2062,-2.2629,-2.2629,-2.2629,-2.2888,-2.3148,-1.9808,-1.8693,-1.9091,-1.722,0.0,0.0,0.0,0.0,0.0,0.0,0.0,0.0,0.0,0.0,0.0,0.0,0.0,0.0,0.0,0.0,0.0,0.0,0.0,0.0,0.0,0.0,-1.8246,-1.8233,-1.946,-1.9609,-1.5921,0.0,0.0,0.0,0.0,0.0,0.0,0.0,0.0,0.0,0.0,0.0,-1.6845,-1.8715,-1.9869,-1.9869,-1.9869,-1.9773,-1.9581,-1.924,-1.8795,-1.8147,-1.6617,-1.5451,0.0,0.0,0.0,0.0,0.0,0.0,0.0,0.0,0.0,0.0,0.0,0.0,0.0,0.0,0.0,0.0,0.0,0.0,0.0,0.0,0.0,0.0,0.0,0.0,0.0,0.0,0.0,0.0,0.0,0.0,0.0,0.0,-1.43,-1.5036,0.0,0.0,0.0,0.0,0.0,0.0,0.0,0.0,0.0,0.0,0.0,0.0,0.0,-2.0627,-2.2325,-2.3179,-2.4158,-2.5276,-2.6036,-2.639,-2.639,-2.639,-2.6149,-2.5726,-2.5171,0.0,-2.1186,-1.9579,0.0,0.0,0.0,0.0,0.0,0.0,0.0,0.0,0.0,0.0,0.0,0.0,0.0,0.0,0.0,0.0,0.0,0.0,0.0,0.0,0.0,0.0,-2.0823,-2.0823,-2.1,-2.1029,-2.044,-1.8153,-1.601,-1.5253,-1.4142,-1.3104,0.0,0.0,0.0,0.0,0.0,0.0,-1.8106,-1.9665,-2.0569,-2.0569,-2.0452,-2.0026,-1.9082,-1.8949,-1.8693,-1.8146,-1.7164,-1.6332,-1.5649,-1.4011,0.0,0.0,0.0,0.0,0.0,0.0,0.0,0.0,0.0,0.0,0.0,0.0,0.0,0.0,0.0,0.0,0.0,0.0,0.0,0.0,0.0,0.0,0.0,0.0,0.0,0.0,0.0,0.0,0.0,-1.461,-1.5845,-1.6492,-1.6654,-1.6435,0.0,0.0,0.0,0.0,0.0,0.0,0.0,0.0,0.0,-2.2027,-2.3025,-2.3965,-2.4817,-2.5869,-2.6688,-2.7221,-2.7895,-2.8216,-2.8216,-2.8216,-2.8069,-2.783,-2.7753,-2.6802,-2.5118,-2.2582,-2.102,-2.0114,0.0,0.0,0.0,0.0,-1.9498,-1.9832,-2.046,-2.0187,-1.9505,-1.8807,0.0,0.0,0.0,0.0,0.0,0.0,0.0,-1.8433,-2.0006,-2.1348,-2.2406,-2.2768,-2.3127,-2.3303,-2.301,-2.1539,-1.9755,-1.8059,-1.7016,-1.5832,-1.407,-1.4056,0.0,0.0,0.0,-1.7815,-1.9358,-2.0157,-2.0593,-2.0593,-1.9984,-1.9401,-1.8947,-1.8413,-1.8001,-1.776,-1.7182,-1.6702,-1.6427,-1.5119,-1.4052,0.0,0.0,0.0,0.0,0.0,0.0,0.0,0.0,0.0,0.0,0.0,0.0,0.0,0.0,0.0,0.0,0.0,0.0,0.0,0.0,0.0,0.0,0.0,0.0,0.0,0.0,0.0,0.0,-1.6137,-1.7324,-1.7793,-1.8731,-1.8837,0.0,0.0,0.0,0.0,0.0,0.0,-2.1691,-2.3296,-2.4417,-2.5097,-2.618,-2.6941,-2.7264,-2.8228,-2.8842,-2.8961,-2.9487,-2.9633,-2.9486,-2.9486,-2.9398,-2.9223,-2.9111,-2.8788,-2.805,-2.5267,-2.3743,-2.312,-2.2483,-2.2152,-2.2085,-2.2512,-2.2658,-2.2805,-2.3681,-2.3246,-2.2205,-2.1439,-2.0249,-1.8852,-1.7585,0.0,0.0,0.0,0.0,-1.9813,-2.1292,-2.2352,-2.322,-2.3712,-2.4157,-2.4382,-2.399,-2.3482,-2.2544,-2.0519,-1.9664,-1.8543,-1.6219,-1.623,0.0,0.0,0.0,-1.8969,-2.0238,-2.0485,-2.057,-2.057,-1.9835,-1.9226,-1.8934,-1.8168,-1.7618,-1.7471,-1.7093,-1.6846,-1.6803,-1.5967,-1.5254,-1.4687,0.0,0.0,0.0,0.0,0.0,0.0,0.0,0.0,0.0,0.0,0.0,0.0,0.0,0.0,0.0,0.0,0.0,0.0,0.0,0.0,0.0,0.0,0.0,0.0,0.0,0.0,0.0,0.0,0.0,-1.9014,-2.0729,0.0,0.0,0.0,0.0,-2.2782,-2.2959,-2.3795,-2.5633,-2.6338,-2.6957,-2.752,-2.8215,-2.9145,-3.0365,-3.0423,-3.0772,-3.1322,-3.1351,-3.1092,-3.054,-3.054,-3.0191,-2.9581,-2.9581,-2.9203,-2.8564,-2.7169,-2.6342,-2.582,-2.5102,-2.4511,-2.4053,-2.3931,-2.3908,-2.3914,-2.3909,-2.3502,-2.3049,-2.3553,-2.2493,-2.0976,-2.1021,-2.0519,0.0,0.0,-2.1914,-2.2074,-2.2744,-2.296,-2.3014,-2.304,-2.3067,-2.3067,-2.3066,-2.3117,-2.2976,-2.2185,-2.1503,-2.0669,-1.9361,0.0,-1.9176,-1.8556,-1.8644,-1.922,-2.0425,-2.0708,-2.0776,-2.0776,-2.0612,-2.0093,-1.908,-1.8477,-1.7943,-1.7437,-1.6979,-1.6654,-1.6522,-1.6471,-1.6212,-1.5739,-1.4051,0.0,0.0,0.0,0.0,0.0,0.0,0.0,0.0,0.0,0.0,0.0,0.0,0.0,0.0,0.0,0.0,0.0,0.0,0.0,0.0,0.0,0.0,0.0,0.0,0.0,0.0,0.0,0.0,-2.2149,-2.3537,0.0,-2.3246,-2.3786,-2.4363,-2.4854,-2.5646,-2.6756,-2.8242,-2.8941,-2.9755,-3.0741,-3.1032,-3.138,-3.1816,-3.1816,-3.1932,-3.2133,-3.2133,-3.2048,-3.1816,-3.1816,-3.17,-3.1437,-3.1002,-3.0713,-3.0451,-2.9581,-2.865,-2.7744,-2.7484,-2.7251,-2.7074,-2.7047,-2.6726,-2.6292,-2.6294,-2.5325,-2.4014,-2.3151,-2.2194,-2.135,-2.1429,-2.1248,-2.1195,-2.1992,-2.2225,-2.2463,-2.3458,-2.3702,-2.3813,-2.4203,-2.4286,-2.4177,-2.3744,-2.3689,-2.3524,-2.284,-2.2269,-2.15,-2.0251,-2.0064,-1.9883,-1.932,-1.9596,-2.0134,-2.0996,-2.0866,-2.0673,-2.0673,-2.0018,-1.9418,-1.9046,-1.8178,-1.76,-1.7398,-1.6892,-1.6543,-1.65,-1.65,-1.6421,-1.6241,-1.4979,-1.3541,0.0,0.0,0.0,0.0,0.0,0.0,0.0,0.0,0.0,0.0,0.0,0.0,0.0,0.0,0.0,0.0,0.0,0.0,0.0,0.0,0.0,0.0,0.0,0.0,0.0,0.0,-2.3722,-2.4181,-2.5745,-2.6504,-2.5839,-2.6564,-2.7258,-2.7694,-2.8507,-2.9436,-3.0509,-3.1003,-3.1613,-3.2452,-3.2481,-3.2629,-3.2832,-3.2832,-3.2832,-3.2832,-3.2832,-3.2716,-3.2481,-3.2481,-3.2481,-3.2452,-3.2017,-3.1845,-3.1816,-3.1409,-3.0742,-2.9929,-2.9522,-2.9203,-2.8971,-2.8771,-2.8195,-2.7531,-2.7118,-2.6153,-2.4848,-2.3379,-2.2738,-2.2573,-2.2397,-2.2322,-2.2422,-2.2774,-2.2749,-2.2762,-2.3559,-2.378,-2.3868,-2.4279,-2.4366,-2.4231,-2.3778,-2.3698,-2.3565,-2.3142,-2.2751,-2.2206,-2.1227,-2.0995,-2.0813,-2.0318,-2.04,-2.0664,-2.1108,-2.0677,-2.0346,-2.0346,-1.9686,-1.9259,-1.9259,-1.8279,-1.7652,-1.7652,-1.6926,-1.65,-1.65,-1.65,-1.65,-1.65,-1.5301,-1.3807,-1.2054,0.0,0.0,0.0,0.0,0.0,0.0,0.0,0.0,0.0,0.0,0.0,0.0,0.0,0.0,0.0,0.0,0.0,0.0,0.0,0.0,0.0,0.0,0.0,-2.1187,-2.3397,-2.5052,-2.5052,-2.7314,-2.8565,-2.7898,-2.8971,-3.019,-3.1437,-3.1524,-3.1814,-3.2513,-3.2542,-3.2542,-3.2539,-3.2539,-3.2861,-3.3532,-3.3532,-3.3532,-3.3532,-3.3532,-3.318,-3.2539,-3.2539,-3.2539,-3.2507,-3.251,-3.251,-3.2478,-3.251,-3.2481,-3.2365,-3.109,-3.0219,-2.9551,-2.89,-2.8178,-2.7411,-2.614,-2.5704,-2.5501,-2.4368,-2.4381,-2.47,-2.418,-2.4029,-2.4029,-2.4029,-2.3597,-2.3145,-2.3145,-2.3145,-2.312,-2.312,-2.312,-2.3095,-2.3095,-2.3095,-2.3095,-2.3095,-2.3048,-2.2857,-2.24,-2.2319,-2.2102,-2.1577,-2.1069,0.0,-2.0717,-2.0188,-1.9836,-1.9836,-1.9811,-1.9811,-1.9811,-1.8832,-1.8204,-1.8204,-1.7127,-1.65,-1.6525,-1.6525,-1.6525,-1.6525,-1.5024,-1.3566,-1.2274,0.0,0.0,0.0,0.0,0.0,0.0,0.0,0.0,0.0,0.0,0.0,0.0,0.0,0.0,0.0,0.0,0.0,0.0,0.0,0.0,0.0,-2.158,-2.3817,-2.3819,-2.6334,-2.8365,-2.8942,-3.0451,-3.138,-3.1176,-3.1495,-3.1843,-3.2191,-3.2251,-3.2513,-3.3213,-3.3242,-3.3412,-3.3877,-3.3906,-3.3964,-3.4138,-3.4138,-3.4138,-3.4138,-3.4138,-3.408,-3.3906,-3.3906,-3.3547,-3.3016,-3.3153,-3.2885,-3.2335,-3.2461,-3.2163,-3.1593,-3.1337,-3.084,-3.0177,-2.9569,-2.8546,-2.7343,-2.6077,-2.5623,-2.5514,-2.4789,-2.4675,-2.475,-2.46,-2.4575,-2.4575,-2.4575,-2.4449,-2.4324,-2.4324,-2.4023,-2.3753,-2.3753,-2.3421,-2.3095,-2.3095,-2.3095,-2.3095,-2.3095,-2.3082,-2.2901,-2.2375,-2.2299,-2.2116,-2.1571,-2.1368,-2.1295,-2.1295,-2.0792,-2.0465,-2.0465,-2.0062,-1.9811,-1.9811,-1.8832,-1.8204,-1.8204,-1.7127,-1.6697,-1.7124,-1.706,-1.697,-1.6856,-1.5484,-1.4397,0.0,0.0,0.0,0.0,0.0,0.0,0.0,0.0,0.0,0.0,0.0,0.0,0.0,0.0,0.0,0.0,0.0,0.0,0.0,0.0,0.0,0.0,-2.3447,-2.5568,-2.6028,-2.8463,-3.0443,-3.117,-3.1985,-3.2629,-3.289,-3.2919,-3.3035,-3.3296,-3.3325,-3.347,-3.3848,-3.3877,-3.4022,-3.4399,-3.4399,-3.4399,-3.4399,-3.4399,-3.4399,-3.4399,-3.4399,-3.423,-3.3894,-3.3894,-3.3485,-3.2763,-3.3186,-3.2913,-3.2236,-3.2647,-3.2342,-3.1619,0.0,0.0,0.0,0.0,-2.8212,-2.7002,-2.6232,-2.5996,-2.5946,-2.5611,-2.5511,-2.5511,-2.5411,-2.5269,-2.5101,-2.5028,-2.4886,-2.48,-2.48,-2.4582,-2.4299,-2.4235,-2.4017,-2.3716,-2.3368,-2.3293,-2.3274,-2.2989,-2.2939,0.0,-2.2516,-2.256,-2.2518,-2.2221,-2.197,-2.1845,-2.1845,-2.137,-2.0943,-2.0717,-2.0337,-1.9984,-1.9733,-1.8884,0.0,0.0,0.0,-1.7217,-1.754,-1.7237,0.0,0.0,0.0,0.0,0.0,0.0,0.0,0.0,-1.3549,-1.3783,0.0,0.0,0.0,0.0,0.0,0.0,0.0,0.0,0.0,0.0,0.0,0.0,0.0,0.0,0.0,0.0,-2.5181,-2.6863,-2.7701,-2.9892,-3.1604,-3.209,-3.2461,-3.2916,-3.3496,-3.3587,-3.3786,-3.4303,-3.4361,-3.4361,-3.4395,-3.4366,0.0,0.0,0.0,-3.4264,-3.423,-3.4162,-3.4128,-3.4065,-3.4094,-3.3722,-3.3003,-3.3003,-3.2613,-3.1928,-3.2684,-3.2577,-3.1965,-3.272,-3.2577,-3.1857,-3.1371,-3.0705,-2.9912,-2.869,-2.7515,-2.6506,-2.6506,0.0,0.0,-2.643,-2.643,-2.6396,-2.6248,-2.5909,-2.5611,-2.5409,-2.5128,-2.4911,-2.4911,-2.4893,-2.4778,-2.4615,-2.4663,-2.4521,-2.3737,-2.3621,-2.3486,-2.2893,-2.2745,-2.272,-2.272,-2.2909,-2.306,-2.306,-2.2664,-2.2364,-2.2364,-2.1863,-2.1337,-2.0863,-2.0655,0.0,-1.9775,-1.9152,-1.878,-1.878,-1.8265,-1.7946,-1.7922,-1.7377,-1.7028,-1.6908,-1.6379,-1.6091,-1.6052,-1.6447,-1.6658,-1.6618,-1.5308,-1.5409,0.0,0.0,0.0,0.0,0.0,0.0,0.0,0.0,0.0,0.0,0.0,0.0,0.0,0.0,0.0,-2.4035,-2.6218,-2.7976,-2.8584,-3.0699,-3.2118,-3.1833,-3.297,-3.3777,-3.3819,-3.3921,-3.4013,-3.402,-3.3985,-3.4054,-3.4162,-3.4162,-3.423,-3.4366,-3.3791,-3.3346,-3.3206,-3.2755,-3.2398,-3.2046,-3.2218,0.0,-3.1829,-3.1829,-3.1389,-3.0696,-3.1499,-3.1352,-3.0733,-3.1499,-3.1352,-3.0618,-3.0418,-2.9829,-2.8983,-2.8189,-2.7379,-2.6657,-2.6657,-2.6385,-2.6015,-2.6015,-2.6015,-2.6015,-2.598,-2.5906,0.0,-2.5773,-2.5758,-2.5694,-2.5694,-2.5373,-2.5019,-2.4985,-2.464,-2.4271,-2.4108,-2.3772,-2.3484,-2.3354,-2.3016,-2.272,-2.272,-2.2751,-2.2757,-2.2757,-2.2683,-2.2609,-2.2609,-2.2115,-2.1691,-2.1592,-2.117,-2.0874,-2.0723,-2.0232,-1.9885,-1.9885,-1.9227,-1.8803,-1.869,-1.8493,-1.81,-1.7535,-1.7463,-1.725,-1.6882,-1.7335,-1.756,-1.756,-1.7262,-1.7475,0.0,0.0,0.0,0.0,0.0,0.0,0.0,0.0,0.0,0.0,0.0,-2.0923,-2.1957,0.0,-2.4578,-2.5901,-2.7102,-2.8098,-2.8639,-3.0036,-3.1135,-3.1424,-3.2968,-3.3646,-3.2783,-3.3479,-3.3646,-3.2747,-3.3058,-3.3164,-3.2826,-3.2791,-3.2826,-3.2932,-3.2577,-3.2299,-3.2191,-3.1901,-3.1683,-3.1499,-3.1573,-3.1378,-3.0895,-3.0895,-3.0443,-2.9729,-3.0557,-3.0443,-2.9729,-3.0126,-3.005,-2.9704,-2.9618,-2.9164,-2.8499,-2.8189,-2.7656,-2.7115,-2.7115,-2.6943,-2.6672,-2.6402,-2.6304,-2.6219,-2.5879,-2.584,-2.5875,-2.5805,-2.584,-2.591,-2.591,-2.5714,-2.5458,-2.5355,-2.5227,-2.49,-2.4463,-2.4262,-2.4051,-2.3717,-2.3198,-2.2834,-2.2834,-2.2615,-2.2506,-2.269,-2.272,-2.272,-2.272,-2.2444,-2.2119,-2.1849,-2.1492,-2.1194,-2.0925,-2.06,-2.0398,-2.0398,-1.97,-1.9275,-1.9212,-1.8523,-1.8108,-1.7985,-1.7943,-1.7797,-1.7543,-1.8214,-1.8409,-1.8212,-1.8646,-1.8949,0.0,0.0,0.0,0.0,0.0,0.0,0.0,0.0,-1.9309,-2.1284,-2.2438,-2.3496,-2.4747,-2.5385,-2.6238,-2.7657,-2.7873,-2.8017,-2.845,-2.9184,-2.9948,-3.0594,-3.2282,-3.2846,-3.1499,-3.2605,-3.2818,-3.1462,-3.1965,-3.2074,-3.1462,-3.1426,-3.1462,-3.1499,-3.1352,-3.1241,-3.1204,-3.1093,-3.0981,-3.0906,-3.0944,-3.0632,-2.9935,-2.9935,-2.9613,-2.9013,-2.969,-2.9574,-2.8973,-2.9013,-2.9013,-2.8973,-2.9013,-2.8743,-2.8338,-2.8376,-2.8033,-2.7531,-2.7531,-2.7457,-2.7311,-2.6871,-2.6724,-2.6626,-2.5886,-2.5811,-2.5893,-2.5595,-2.5641,-2.5805,-2.5805,-2.5805,-2.5746,-2.5571,-2.5676,-2.5578,-2.484,-2.4705,-2.458,-2.4035,-2.3529,-2.3168,-2.3168,-2.2775,-2.2532,-2.2592,-2.2598,-2.2598,-2.2598,-2.2598,-2.2427,-2.1932,-2.1644,-2.1296,-2.0718,-2.0576,-2.0488,-2.0488,-1.981,-1.9395,-1.9395,-1.8375,-1.7958,-1.8357,-1.8265,-1.8262,-1.8262,-1.9023,-1.9238,-1.887,-1.9687,-1.9954,-1.549,-1.6355,-1.7387,-1.847,-1.9071,-2.0298,0.0,0.0,-2.4016,-2.5252,-2.5973,-2.6417,-2.6585,-2.7066,-2.7657,-2.8306,-2.8426,-2.845,-2.8498,-2.9184,-2.9471,-2.887,-3.0405,-3.1352,-3.1007,-3.1304,-3.1352,-3.1007,-3.1044,-3.1156,-3.1204,-3.1204,-3.1315,-3.1499,-3.082,-3.0329,-3.0177,-2.9626,-2.9184,-2.8831,-2.9028,-2.8949,-2.8697,-2.8697,-2.8657,-2.8578,-2.8657,-2.8657,-2.8578,-2.8776,-2.8736,-2.8578,-2.8776,-2.8688,-2.8505,-2.8679,-2.83,-2.7671,-2.7671,-2.7358,-2.6949,-2.69,-2.6876,-2.678,-2.6202,-2.6058,-2.5973,-2.548,-2.5359,-2.5394,-2.5394,-2.5394,-2.5335,-2.5335,-2.5359,-2.5335,-2.5228,-2.4843,-2.4506,-2.4458,-2.4025,-2.3722,-2.3722,-2.3673,-2.3312,-2.2404,-2.2259,-2.2259,-2.2259,-2.2259,-2.2235,-2.2163,-2.1581,-2.0905,-2.0232,-2.0168,-2.0168,-2.0168,-1.9435,-1.9043,-1.9043,-1.8682,-1.8507,-1.8566,-1.8961,-1.9141,-1.9141,-1.9609,-1.9824,-1.9785,-2.0273,-2.0292,-1.8205,-1.9143,0.0,0.0,-2.1933,-2.3015,-2.4891,-2.5131,-2.5372,-2.6767,-2.7186,-2.745,-2.7762,-2.8017,-2.8258,0.0,-2.8522,-2.8522,-2.8522,-2.8816,-2.8773,-2.8129,-2.8987,-2.9588,-2.951,-3.0443,-3.0594,-2.9588,-2.9935,-3.0024,-2.9665,-2.9626,-2.9665,-2.9756,-2.9457,-2.9223,-2.9145,-2.8895,-2.8657,-2.8522,-2.8578,-2.8578,-2.8522,-2.8522,-2.8522,-2.8522,-2.8522,-2.8522,-2.8498,-2.8578,-2.8578,-2.8498,-2.8578,-2.8578,-2.8498,-2.8578,-2.8433,-2.8186,-2.8186,-2.8041,-2.7762,-2.745,-2.7354,-2.7258,-2.6743,-2.6358,-2.6045,-2.5829,-2.554,-2.53,-2.53,-2.53,-2.53,-2.53,-2.53,-2.53,-2.53,-2.5131,-2.4987,-2.4987,-2.4554,-2.4218,-2.4218,-2.3953,-2.3484,-2.2573,-2.2567,-2.2686,-2.2686,-2.239,-2.2018,-2.1588,-2.0933,-2.0387,-2.0128,-2.0096,-2.0205,-2.0423,-1.9775,-1.9527,-1.9741,-1.9262,-1.9023,-1.9023,-1.9434,-1.9648,-1.9648,-2.0078,-2.0293,-2.0312,-2.0742,-2.0859,-1.9796,0.0,0.0,-2.2999,-2.4194,-2.5288,-2.5853,-2.6093,-2.6526,-2.7666,-2.7906,-2.8065,-2.845,-2.8522,-2.8522,-2.8522,-2.8522,-2.8522,-2.8522,-2.8522,-2.8378,-2.7993,-2.8282,-2.8522,-2.8522,-2.9549,-2.9742,-2.8578,-2.9028,-2.9106,-2.8538,-2.8522,-2.857,-2.8715,-2.8739,-2.8787,-2.8955,-2.8955,-2.8883,-2.8739,-2.8739,-2.8643,-2.8522,-2.8522,-2.8522,-2.8522,-2.8522,-2.8522,-2.8522,-2.8522,-2.8522,-2.8522,-2.8522,-2.8522,-2.8522,-2.8522,-2.8522,-2.8522,-2.8522,-2.8522,-2.845,-2.8065,-2.7906,-2.781,-2.7282,-2.6863,-2.6502,-2.6382,-2.5949,-2.5516,-2.5516,-2.542,-2.53,-2.53,-2.53,-2.53,-2.53,-2.53,-2.53,-2.53,-2.5011,-2.4654,-2.4446,-2.4102,-2.3626,-2.2844,-2.2741,-2.2803,-2.2882,-2.2559,-2.1946,-2.0983,-2.0456,-2.009,-1.9889,-1.9889,-2.0003,-2.0308,-1.9844,-1.9727,-1.9996,-1.9667,-1.9453,-1.9453,-1.9883,-2.0098,-2.0098,-2.0449,-2.0664,-2.0762,-2.1034,-2.1268,0.0,0.0,-2.3063,-2.3649,-2.5324,-2.697,-2.7498,-2.8041,-2.8426,-2.8474,-2.8498,-2.8498,-2.8522,-2.8522,-2.8522,-2.8522,-2.8522,-2.8522,-2.8522,-2.8522,-2.8498,-2.8498,-2.8498,-2.8522,-2.8522,-2.8538,-2.8538,-2.8522,-2.8498,-2.8522,-2.8522,-2.8522,-2.8739,-2.9268,-2.9268,-2.9532,-3.0037,-3.0037,-2.9773,-2.9268,-2.9268,-2.9003,-2.8522,-2.8522,-2.8522,-2.8522,-2.8522,-2.8522,-2.8522,-2.8522,-2.8522,-2.8522,-2.8522,-2.8522,-2.8522,-2.8522,-2.8522,-2.8522,-2.8522,-2.8522,-2.8522,-2.8498,-2.8498,-2.8378,-2.7849,-2.7642,-2.7522,-2.7018,-2.6502,-2.6069,-2.6069,-2.5685,-2.53,-2.53,-2.53,-2.53,-2.53,-2.53,-2.53,-2.53,-2.53,-2.5028,-2.4253,-2.4122,-2.3845,-2.3099,-2.2535,-2.2324,-2.2582,-2.2616,-2.2012,-2.049,-2.0312,-2.0048,-1.9383,-1.9311,-1.933,-1.933,-1.9294,-1.9314,-1.9314,-1.9687,-1.9902,-1.9902,-2.0332,-2.0586,-2.0586,-2.0605,-2.0781,-2.1171,-2.119,-2.1465,0.0,0.0,-2.429,-2.5564,-2.6633,-2.7546,-2.8114,-2.8378,-2.8402,-2.8026,-2.7705,-2.7344,-2.6983,-2.6911,-2.7031,-2.7354,-2.7714,-2.8114,-2.8474,-2.8522,-2.8378,-2.8017,-2.8306,0.0,-2.7978,-2.8306,0.0,-2.8522,-2.8522,-2.8667,-2.9003,-2.9027,-2.9268,-2.9797,-2.9821,-2.9917,-3.0086,-3.0086,-2.9989,-2.9821,-2.9821,-2.9532,-2.9027,-2.9027,-2.8835,-2.8522,-2.8522,-2.8522,-2.8522,-2.8522,-2.8522,-2.8522,-2.8522,-2.8522,-2.8522,-2.8522,-2.8522,-2.8522,-2.8522,-2.8522,-2.8522,-2.8522,-2.8522,-2.8474,-2.8306,-2.7993,-2.7642,-2.7474,-2.7018,-2.6609,-2.6609,-2.6489,-2.6234,-2.5616,-2.5503,-2.5261,-2.4356,-2.419,-2.4078,-2.3835,-2.3768,-2.3694,-2.3438,-2.3342,-2.3084,-2.2322,-2.2213,-2.2098,-2.1825,-2.1376,-2.0885,-2.0354,-1.9909,-1.9568,-1.9333,-1.9297,-1.9414,-1.9687,-1.9707,-1.9844,-2.0155,-2.0273,-2.0352,-2.0352,-2.0527,-2.0605,-2.0605,-2.0859,-2.1094,-2.121,-2.1775,-2.2168,-2.2967,-2.429,-2.5385,-2.6825,-2.757,-2.8089,-2.8426,-2.8354,-2.8065,-2.7498,-2.6825,-2.6201,-2.5877,-2.5661,-2.5829,-2.6753,-2.7186,-2.7642,-2.8402,-2.8522,-2.8378,-2.8041,-2.8474,-2.8667,0.0,0.0,0.0,-2.8522,-2.8691,-2.8955,-2.9292,-2.9484,-2.9821,-3.035,-3.0374,-3.047,-3.0681,-3.0681,-3.0609,-3.0374,-3.0182,-2.9917,-2.9581,-2.9388,-2.91,-2.8787,-2.8595,-2.8522,-2.8522,-2.8522,-2.8522,-2.8522,-2.8522,-2.8522,-2.8522,-2.8522,-2.8522,-2.8522,-2.8522,-2.8522,-2.8522,-2.8522,-2.8522,-2.8522,-2.8522,-2.8282,-2.8017,-2.8017,-2.7594,-2.711,-2.6818,-2.6562,-2.623,-2.5322,-2.5127,-2.4882,-2.4006,-2.3824,-2.3754,-2.3487,-2.3422,-2.3302,-2.2864,-2.2429,-2.1983,-2.1471,-2.1507,-2.1513,-2.1146,-2.0959,-2.074,-2.0447,-2.0024,-1.9746,-1.9746,-1.9746,-1.9863,-2.0137,-2.0137,-2.0273,-2.0586,-2.0605,-2.0605,-2.0605,-2.0605,-2.0683,-2.0801,-2.1054,-2.1346,-2.1658,-2.2266,-2.2598,-2.4314,-2.5372,-2.643,-2.7488,-2.8138,-2.8498,-2.8474,-2.8026,-2.7474,-2.6849,-2.5901,-2.5131,-2.5035,0.0,-2.4904,-2.6489,-2.6849,-2.7306,-2.8378,-2.8522,-2.8546,0.0,0.0,0.0,0.0,0.0,0.0,-2.8619,0.0,-2.9316,-2.9388,-2.9845,-3.0374,-3.0946,-3.0946,-3.1211,-3.1693,-3.1717,-3.1452,-3.0946,-3.0422,-3.0158,-3.011,-2.9605,-2.9364,-2.9316,-2.8787,-2.8546,-2.8546,-2.8522,-2.8522,-2.8522,-2.8522,-2.8522,-2.8522,-2.8522,-2.8522,-2.8522,-2.8522,-2.8522,-2.8522,-2.8522,-2.8522,-2.8522,-2.8522,-2.8522,-2.8522,-2.8522,-2.8098,-2.7481,-2.6672,-2.6027,-2.5351,-2.4425,-2.4227,-2.4187,-2.4126,-2.4126,-2.4104,-2.4083,-2.4083,-2.3716,-2.2584,-2.141,-2.0664,-2.0664,-2.0664,-2.0664,-2.0605,-2.128,-2.1471,-2.0683,-2.0605,-2.0605,-2.0605,-2.0605,-2.0605,-2.0605,-2.0605,-2.0605,-2.0605,-2.0644,-2.0644,-2.0625,-2.0664,-2.084,-2.1229,-2.1249,-2.1678,-2.2477,-2.2496,-2.2711,-2.53,-2.6478,-2.7464,-2.8138,-2.8402,-2.8402,-2.8017,-2.7474,-2.6609,-2.4939,-2.3737,-2.263,-2.1404,0.0,0.0,-2.4458,-2.6238,0.0,-2.8426,-2.8859,0.0,-2.91,0.0,-2.9893,-2.9893,-2.9893,0.0,0.0,-2.9436,-2.9653,-3.0422,-3.0591,-3.0946,-3.15,-3.15,-3.1573,-3.1717,-3.1717,-3.1645,-3.15,-3.138,-3.1091,-3.0663,-3.0543,-3.0254,-2.9869,-2.934,-2.91,-2.9076,-2.8667,-2.8522,-2.8522,-2.8522,-2.8522,-2.8522,-2.8522,-2.8522,-2.8522,-2.8522,-2.8522,-2.8522,-2.8522,-2.8522,-2.8522,-2.8522,-2.8522,-2.8522,-2.8522,-2.7924,-2.7284,-2.7042,-2.64,-2.5511,-2.464,-2.443,-2.4137,-2.314,-2.2912,-2.2853,-2.2532,-2.2472,-2.2411,-2.2087,-2.1784,-2.1584,-2.1584,-2.1584,-2.1309,-2.0683,-2.0799,-2.0838,-2.0605,-2.0605,-2.0605,-2.0605,-2.0605,-2.0605,-2.0605,-2.0605,-2.0683,-2.0816,-2.0994,-2.1131,-2.1298,-2.1461,-2.1602,-2.1719,-2.2031,-2.222,-2.2264,-2.2573,-2.2785,-2.6502,-2.7416,-2.8138,-2.8426,-2.833,-2.7897,-2.6887,-2.6069,-2.4939,-2.2823,-2.1524,0.0,-1.9627,-2.0803,0.0,0.0,0.0,0.0,-2.8378,-2.8955,-2.9292,0.0,-2.9965,0.0,-3.0422,-3.0422,-3.0518,0.0,-3.0302,-3.0254,-3.0898,-3.1139,-3.1404,-3.1693,-3.1717,-3.1717,-3.1717,-3.1717,-3.1717,-3.1717,-3.1717,-3.1548,-3.1259,-3.1019,-3.0754,-3.0398,-2.9869,-2.9508,-2.9268,-2.8979,-2.8474,-2.7938,-2.7938,-2.7672,-2.7366,-2.7794,-2.7672,-2.7366,-2.7794,-2.7672,-2.7366,-2.7794,-2.7938,-2.7834,-2.747,-2.7325,-2.7325,-2.7325,-2.6958,-2.6505,-2.6133,-2.5526,-2.4808,-2.395,-2.3647,-2.3351,-2.2616,-2.2448,-2.2414,-2.231,-2.2159,-2.2042,-2.2042,-2.1803,-2.1604,-2.1604,-2.1604,-2.1412,-2.093,-2.0933,-2.0933,-2.0872,-2.0853,-2.0853,-2.0853,-2.0933,-2.0933,-2.0872,-2.0933,-2.1009,-2.1034,-2.1156,-2.1272,-2.1377,-2.1502,-2.1681,-2.1874,-2.2105,-2.2231,-2.2274,-2.2522,-2.2618,-2.7642,-2.8122,-2.8459,-2.8443,-2.7948,-2.7124,-2.5493,-2.427,-2.2911,-2.0696,0.0,-1.8708,-1.8614,-1.9624,-2.1187,-2.3264,0.0,-2.6671,-2.8282,-2.9027,-2.9412,-2.9412,-3.0326,-3.1019,-3.1019,-3.1019,-3.1211,-3.1669,-3.1284,-3.1019,-3.1019,-3.1452,-3.1717,-3.1717,-3.1717,-3.1717,-3.1717,-3.1717,-3.1717,-3.1717,-3.1717,-3.1717,-3.1693,-3.1235,-3.1019,-3.0951,-3.0295,-2.975,-2.9278,-2.9083,-2.8233,-2.7113,-2.7113,-2.6573,-2.5902,-2.6712,-2.6505,-2.5902,-2.6712,-2.6464,-2.5902,-2.6753,-2.7021,-2.6835,-2.6027,-2.5777,-2.5777,-2.5777,-2.5652,-2.54,-2.4616,-2.4145,-2.3671,-2.2925,-2.2574,-2.2397,-2.2397,-2.2397,-2.2485,-2.2706,-2.2462,-2.2212,-2.2212,-2.1755,-2.1339,-2.1339,-2.1339,-2.1339,-2.1297,-2.1412,-2.1377,-2.1229,-2.1188,-2.1188,-2.1188,-2.1335,-2.1377,-2.1229,-2.1335,-2.1396,-2.1221,-2.1263,-2.1282,-2.1297,-2.1339,-2.1509,-2.1868,-2.1868,-2.2057,-2.2353,-2.2353,-2.2353,-2.8012,-2.8187,-2.8219,-2.8042,-2.727,-2.6137,-2.4578,-2.31,0.0,0.0,-1.793,-1.7265,-1.643,-1.8274,-2.049,-2.2197,0.0,0.0,0.0,0.0,-2.9941,0.0,0.0,0.0,0.0,0.0,0.0,0.0,-3.1621,-3.1573,-3.1573,-3.1669,-3.1717,-3.1717,-3.1717,-3.1717,-3.1717,-3.1717,-3.1717,-3.1717,-3.1717,-3.1717,-3.1717,-3.1621,-3.1573,-3.1504,-3.01,-2.9471,-2.9268,-2.8007,-2.7149,-2.6644,-2.6644,-2.6253,-2.5819,-2.5986,-2.5944,-2.5819,-2.5986,-2.5819,-2.561,-2.5944,-2.6027,-2.5986,-2.5861,-2.5777,-2.5777,-2.561,-2.4978,-2.4296,-2.4016,-2.3323,-2.2643,-2.253,-2.2441,-2.2397,-2.2397,-2.2397,-2.2397,-2.2441,-2.2429,-2.2372,-2.2372,-2.2271,-2.2189,-2.2189,-2.2189,-2.2145,-2.197,-2.1561,-2.121,-2.1188,-2.1188,-2.1188,-2.1188,-2.1229,-2.1229,-2.1188,-2.1229,-2.1278,-2.136,-2.1593,-2.1763,-2.1926,-2.2102,-2.2227,-2.2284,-2.2284,-2.2233,-2.215,-2.215,-2.215,-2.798,-2.8099,-2.8139,-2.7962,-2.6894,-2.5402,-2.3273,0.0,0.0,0.0,-1.648,-1.6172,-1.5675,0.0,0.0,0.0,0.0,0.0,0.0,0.0,0.0,0.0,0.0,0.0,0.0,0.0,0.0,-3.1717,-3.1717,-3.1717,-3.1717,-3.1717,-3.1717,-3.1717,-3.1717,-3.1717,-3.1717,-3.1717,-3.1717,-3.1717,-3.1717,-3.1717,-3.1673,-3.1137,-3.0913,-3.0845,-2.9579,-2.888,-2.8589,-2.7809,-2.6993,-2.6144,-2.6144,-2.5599,-2.4886,-2.5183,-2.4949,-2.4582,-2.4721,-2.4488,-2.4102,-2.4039,-2.4339,-2.4681,-2.4168,-2.4039,-2.3996,-2.391,-2.3541,-2.3193,-2.3125,-2.2643,-2.222,-2.222,-2.2132,-2.2043,-2.2043,-2.2132,-2.222,-2.222,-2.222,-2.222,-2.222,-2.2132,-2.2043,-2.2043,-2.2043,-2.1998,-2.1909,-2.162,-2.1466,-2.1466,-2.1466,-2.1466,-2.1466,-2.1596,-2.1596,-2.1466,-2.1596,-2.1646,-2.157,-2.1658,-2.1813,-2.1865,-2.1998,-2.2043,-2.2043,-2.2043,-2.1998,-2.1865,-2.1865,-2.1865,-2.7639,-2.7867,-2.8018,-2.78,-2.6519,-2.4647,-2.2166,-2.0317,0.0,0.0,-1.5446,-1.5446,-1.5446,0.0,0.0,0.0,0.0,0.0,0.0,0.0,0.0,0.0,0.0,0.0,0.0,0.0,0.0,-3.1717,-3.1717,-3.1717,-3.1717,-3.1717,-3.1717,-3.1717,-3.1717,-3.1717,-3.1717,-3.1717,-3.1717,-3.1717,-3.1472,-3.1383,-3.1339,-3.0351,-2.9852,-2.9761,-2.8727,-2.8,-2.7565,-2.7335,-2.6576,-2.5452,-2.5452,-2.4842,-2.4006,-2.4431,-2.4087,-2.3505,-2.3575,-2.3262,-2.2732,-2.2435,-2.2862,-2.3367,-2.2599,-2.2397,-2.2397,-2.2353,-2.2353,-2.2309,-2.2264,-2.2132,-2.1998,-2.1998,-2.1865,-2.1687,-2.1687,-2.1883,-2.1998,-2.1998,-2.1998,-2.1998,-2.1998,-2.182,-2.1687,-2.1687,-2.1687,-2.1687,-2.1687,-2.1687,-2.1687,-2.1687,-2.1687,-2.1687,-2.1687,-2.1865,-2.1909,-2.1687,-2.1909,-2.1909,-2.1687,-2.1687,-2.1687,-2.1687,-2.1687,-2.1687,-2.1687,-2.1687,-2.1687,-2.1687,-2.1687,-2.1687,-2.6995,-2.7225,-2.7534,-2.7313,-2.5777,-2.3789,-2.1717,0.0,0.0,-1.5567,-1.5221,-1.5335,-1.5335,-1.594,-1.7257,0.0,0.0,-2.2968,0.0,0.0,0.0,0.0,0.0,0.0,0.0,0.0,0.0,-3.1717,-3.1717,-3.1717,-3.1717,-3.1717,-3.1717,-3.1717,-3.1717,-3.1717,-3.1717,-3.1717,-3.1717,-3.1717,-3.0779,-3.0351,-3.0306,-2.928,-2.8727,-2.8423,-2.7389,-2.6798,-2.6471,-2.5528,-2.4861,-2.445,-2.445,-2.4127,-2.371,-2.3765,-2.3746,-2.3643,-2.3233,-2.29,-2.2617,-2.2262,-2.2309,-2.253,-2.2441,-2.2397,-2.2353,-2.2176,-2.215,-2.2043,-2.182,-2.1731,-2.1731,-2.1731,-2.1731,-2.1687,-2.1687,-2.1731,-2.1731,-2.1731,-2.1731,-2.1731,-2.1731,-2.1731,-2.1687,-2.1687,-2.1687,-2.1687,-2.1687,-2.1687,-2.1687,-2.1687,-2.1687,-2.1687,-2.1687,-2.1731,-2.1731,-2.1687,-2.1731,-2.1731,-2.1687,-2.1687,-2.1687,-2.1687,-2.1687,-2.1687,-2.1687,-2.1687,-2.1687,-2.1687,-2.1687,-2.1687,-2.6495,-2.7059,-2.736,-2.6881,-2.5463,-2.3509,-2.0886,0.0,-1.7011,-1.4694,-1.4512,-1.4832,-1.5124,-1.5656,-1.6797,-1.9048,0.0,0.0,0.0,0.0,0.0,0.0,0.0,0.0,0.0,0.0,-3.1416,-3.1656,-3.1679,-3.1679,-3.1679,-3.1708,-3.1717,-3.1717,-3.1717,-3.1717,-3.1717,-3.1092,-3.0734,-3.0554,-2.9532,-2.8958,-2.8773,-2.7793,-2.7274,-2.7084,-2.6119,-2.5586,-2.5441,-2.5069,-2.4798,-2.4646,-2.4646,-2.4436,-2.417,-2.3927,-2.3833,-2.3729,-2.3131,-2.2815,-2.2665,-2.2316,-2.2113,-2.1998,-2.1998,-2.1998,-2.1954,-2.1865,-2.1865,-2.182,-2.1731,-2.1687,-2.1687,-2.1687,-2.1687,-2.1687,-2.1687,-2.1687,-2.1687,-2.1687,-2.1687,-2.1687,-2.1687,-2.1687,-2.1687,-2.1687,-2.1687,-2.1687,-2.1687,-2.1687,-2.1687,-2.1687,-2.1687,-2.1687,-2.1687,-2.1687,-2.1687,-2.1687,-2.1687,-2.1687,-2.1687,-2.1687,-2.1687,-2.1687,-2.1687,-2.1687,-2.1687,-2.1687,-2.1687,-2.1687,-2.1687,-2.1419,-2.5059,-2.6129,-2.6777,-2.6075,-2.4718,-2.276,0.0,0.0,-1.6294,-1.4212,-1.4214,-1.4699,-1.4959,-1.561,-1.6594,-1.8147,0.0,-1.9953,0.0,0.0,0.0,0.0,0.0,0.0,0.0,-3.1333,-3.1595,-3.1924,-3.1971,-3.1971,-3.1971,-3.15,-3.1326,-3.1496,-3.1205,-3.1003,-3.1003,-3.0034,-2.9418,-2.9235,-2.8215,-2.7652,-2.7395,-2.6436,-2.5906,-2.5809,-2.5118,-2.4745,-2.4695,-2.4695,-2.4695,-2.4695,-2.4695,-2.4597,-2.4362,-2.4066,-2.3973,-2.3918,-2.3272,-2.3036,-2.2899,-2.2603,-2.2199,-2.187,-2.187,-2.1778,-2.1687,-2.1687,-2.1687,-2.1687,-2.1687,-2.1687,-2.1687,-2.1687,-2.1687,-2.1687,-2.1687,-2.1687,-2.1687,-2.1687,-2.1687,-2.1687,-2.1687,-2.1687,-2.1687,-2.1687,-2.1687,-2.1687,-2.1687,-2.1687,-2.1687,-2.1687,-2.1687,-2.1687,-2.1687,-2.1687,-2.1687,-2.1687,-2.1687,-2.1687,-2.1687,-2.1687,-2.1687,-2.1687,-2.1687,-2.1687,-2.1687,-2.1687,-2.1687,-2.1687,-2.1687,-2.1248,-2.2471,-2.41,-2.5522,-2.4736,-2.3165,-2.1222,0.0,-1.7042,-1.5434,-1.4419,-1.4658,-1.503,-1.4842,-1.5771,-1.6741,-1.7142,-1.7992,0.0,-2.2611,0.0,0.0,0.0,0.0,0.0,-3.089,-3.1924,-3.2465,-3.2488,-3.2488,-3.2488,-3.2488,-3.1038,-3.0443,-3.1008,-2.9988,-2.9396,-2.9396,-2.8426,-2.7913,-2.7913,-2.6894,-2.6436,-2.6388,-2.5343,-2.4775,-2.4529,-2.4529,-2.4381,-2.4202,-2.4202,-2.4202,-2.4202,-2.4202,-2.4202,-2.4202,-2.4202,-2.4202,-2.4128,-2.3675,-2.348,-2.3425,-2.3023,-2.262,-2.2272,-2.2272,-2.1998,-2.1687,-2.1687,-2.1687,-2.1687,-2.1687,-2.1687,-2.1687,-2.1687,-2.1687,-2.1687,-2.1687,-2.1687,-2.1687,-2.1687,-2.1687,-2.1687,-2.1687,-2.1687,-2.1687,-2.1687,-2.1687,-2.1687,-2.1687,-2.1687,-2.1687,-2.1687,-2.1687,-2.1687,-2.1687,-2.1687,-2.1687,-2.1687,-2.1687,-2.1687,-2.1687,-2.1687,-2.1687,-2.1687,-2.1687,-2.1687,-2.1687,-2.1687,-2.1687,-2.1687,-2.1687,-2.1346,-1.9911,-2.0977,-2.1743,-2.0883,-2.0157,-1.9062,-1.6684,-1.5882,-1.5163,-1.3503,-1.3795,-1.4445,-1.4725,-1.5421,-1.646,-1.8103,-1.8615,0.0,0.0,0.0,0.0,0.0,0.0,0.0,0.0,0.0,-3.2321,-3.2478,-3.2501,-3.2162,-3.1386,-3.0887,-3.0567,-3.0466,-2.9088,-2.838,-2.838,-2.7369,-2.6798,-2.6587,-2.5567,-2.5001,-2.4922,-2.4597,-2.4399,-2.4301,-2.4301,-2.4251,-2.4202,-2.4202,-2.4202,-2.4202,-2.4202,-2.4202,-2.4202,-2.4202,-2.4202,-2.4183,-2.4055,-2.3785,-2.348,-2.3352,-2.3041,-2.2712,-2.2712,-2.2236,-2.1687,-2.1687,-2.1687,-2.1687,-2.1687,-2.1687,-2.1687,-2.1687,-2.1687,-2.1687,-2.1687,-2.1687,-2.1687,-2.1687,-2.1687,-2.1687,-2.1687,-2.1687,-2.1687,-2.1687,-2.1687,-2.1687,-2.1687,-2.1687,-2.1687,-2.1687,-2.1687,-2.1687,-2.1687,-2.1687,-2.1687,-2.1687,-2.1687,-2.1687,-2.1687,-2.1687,-2.1687,-2.1687,-2.1687,-2.1374,-2.0754,-2.0754,-2.0895,-2.1129,-1.9874,-1.9606,0.0,-1.8522,-1.9188,-1.8364,-1.7854,-1.7103,-1.5283,-1.481,-1.441,-1.3376,-1.3776,-1.4324,-1.4456,-1.5127,-1.6054,-1.7376,-1.7837,0.0,0.0,0.0,0.0,0.0,0.0,0.0,0.0,-3.2058,-3.2443,-3.2176,-3.2149,-3.1651,-3.052,-2.9893,-2.9484,-2.9238,-2.8119,-2.7531,-2.7531,-2.6547,-2.5954,-2.5756,-2.5145,-2.467,-2.444,-2.444,-2.4349,-2.4202,-2.4202,-2.4202,0.0,-2.4202,-2.4202,-2.4202,-2.4202,-2.4202,-2.4202,-2.4202,-2.4202,-2.4202,-2.4202,-2.3987,-2.3767,-2.3767,-2.3462,-2.3096,-2.295,-2.2547,-2.2108,-2.1961,-2.1925,-2.187,-2.1723,-2.1687,-2.1687,-2.1687,-2.1687,-2.1687,-2.1687,-2.1687,-2.1687,-2.1687,-2.1687,-2.1687,-2.1687,-2.1687,-2.1687,-2.1687,-2.1687,-2.1687,-2.1687,-2.1687,-2.1687,-2.1687,-2.1687,-2.1687,-2.1687,-2.1687,-2.1687,-2.1687,-2.1687,-2.1687,-2.1687,-2.1687,-2.1687,-2.1687,-2.1833,-2.1437,-2.0463,-2.0184,-2.0198,-2.0431,-1.8923,-1.8582,0.0,-1.6562,-1.7551,-1.6766,-1.6019,-1.5283,-1.4517,-1.3791,0.0,-1.3801,-1.4288,-1.4551,-1.4089,-1.488,-1.5578,-1.5586,-1.6212,0.0,0.0,0.0,0.0,0.0,0.0,0.0,-3.1492,-3.2427,-3.2594,-3.1586,-3.1483,-3.0949,-2.9807,-2.8428,-2.7584,-2.7532,-2.7091,-2.6858,-2.68,-2.5863,-2.5414,-2.5414,-2.5414,-2.5179,-2.4831,-2.4831,-2.4643,-2.4257,-2.4257,-2.4238,-2.4202,-2.4202,-2.4202,-2.4202,-2.4202,-2.4202,-2.4202,-2.4202,-2.4202,-2.4202,-2.4202,-2.4202,-2.4202,-2.4202,-2.3895,-2.3462,-2.3096,-2.295,-2.2821,-2.2437,-2.2327,-2.2236,-2.187,-2.1778,-2.1778,-2.1742,-2.1742,-2.1723,-2.1705,-2.1687,-2.1687,-2.1687,-2.1687,-2.1687,-2.1687,-2.1705,-2.1742,-2.1634,-2.167,-2.1644,-2.1599,-2.1536,-2.1536,-2.1536,-2.1536,-2.1536,-2.1536,-2.1652,-2.1723,-2.1634,-2.167,-2.1644,-2.1536,-2.1536,-2.1536,-2.1536,-2.1852,-2.1507,-2.0513,-1.983,-1.9568,-1.9632,-1.8632,-1.8311,-1.2819,0.0,-1.3846,-1.3329,-1.3321,-1.3268,0.0,-1.2984,-1.3314,0.0,0.0,-1.3988,-1.5069,-1.4773,-1.5004,-1.7132,0.0,0.0,0.0,0.0,0.0,0.0,-2.8923,-2.9664,-2.977,-3.0372,-3.0608,-3.0328,-3.0276,-2.9807,-2.8648,-2.8231,-2.766,-2.6859,-2.6712,-2.6358,-2.5778,-2.5518,-2.5414,-2.5414,-2.5414,-2.5378,-2.5286,-2.5286,-2.5065,-2.4629,-2.4629,-2.4496,-2.4202,-2.4202,-2.4202,-2.4202,-2.4202,-2.4202,-2.4202,-2.4202,-2.4202,-2.4202,-2.4202,-2.4202,-2.4202,-2.4202,-2.4128,-2.4036,-2.3895,-2.3437,-2.2895,-2.2785,-2.2767,-2.2748,-2.2638,-2.262,-2.2547,-2.2217,-2.2144,-2.2053,-2.176,-2.1687,-2.1687,-2.1687,-2.1687,-2.1687,-2.1687,-2.1943,-2.1898,-2.1055,-2.1223,-2.1131,-2.026,-2.0164,-2.0164,-2.0164,-2.0164,-2.0164,-2.0164,-2.1368,-2.1807,-2.1009,-2.124,-2.1036,-2.0212,-2.0164,-2.0164,-2.0164,-1.9525,-1.9039,-1.8795,-1.8096,-1.8189,-1.8994,-1.8138,-1.8226,-1.211,-1.2533,-1.2974,-1.2937,-1.2955,-1.3029,-1.3149,0.0,0.0,0.0,0.0,-1.3607,-1.4671,-1.4488,0.0,0.0,-1.7844,0.0,0.0,0.0,0.0,0.0,-2.8512,-2.926,0.0,-2.9735,-2.965,-2.9177,-2.9124,-2.8648,-2.7511,-2.7457,-2.7206,-2.6646,-2.6591,-2.6371,-2.5931,-2.5931,-2.5931,-2.5931,-2.5931,-2.5821,-2.569,-2.569,-2.547,-2.5051,-2.4867,-2.4698,-2.4477,-2.4275,-2.4202,-2.4202,-2.4202,-2.4202,-2.4202,-2.4202,-2.4202,-2.4202,-2.4202,-2.4202,-2.4202,-2.4202,-2.4202,-2.4202,-2.4202,-2.384,-2.3474,-2.3224,-2.3169,-2.3133,-2.295,-2.2913,-2.2858,-2.262,-2.2565,-2.251,-2.2291,-2.2254,-2.2254,-2.2254,-2.2254,-2.2254,-2.2254,-2.2031,-2.1643,-2.1079,-2.0726,-2.0361,-1.978,-1.9683,-1.9683,-1.9683,-1.9683,-1.9683,-1.9683,-2.0714,-2.106,-2.0274,-2.0456,-2.0329,-1.9731,-1.9683,-1.981,-1.9968,-1.8945,-1.8469,-1.8665,-1.7778,-1.7705,-1.8222,-1.7816,-1.7845,-1.2257,-1.2937,-1.3571,-1.3635,-1.3525,-1.3534,-1.4102,0.0,0.0,0.0,0.0,0.0,0.0,0.0,0.0,0.0,0.0,0.0,0.0,0.0,0.0,-2.6695,-2.795,0.0,-2.9367,-2.9408,-2.8986,-2.8028,-2.7975,-2.7565,-2.6646,-2.6591,-2.6591,-2.6591,-2.6591,-2.6591,-2.6591,-2.6591,-2.6591,-2.6591,-2.6591,-2.6408,-2.6113,-2.6113,-2.5892,-2.5488,-2.5106,-2.4886,-2.4757,-2.444,-2.4257,-2.4202,-2.4202,-2.4202,-2.4202,-2.4202,-2.4202,-2.4202,-2.4202,-2.4202,-2.4202,-2.4202,-2.4202,-2.4202,-2.4202,-2.4202,-2.4128,-2.373,-2.359,-2.3517,-2.3169,-2.3096,-2.3078,-2.3004,-2.3004,-2.2986,-2.2913,-2.2913,-2.2913,-2.2913,-2.2753,-2.2659,-2.2659,-2.1822,-2.1088,-2.0895,-2.0151,-1.9546,-1.9398,-1.9398,-1.9398,-1.9398,-1.9398,-1.9398,-1.9398,-1.971,-1.9741,-1.9413,-1.9546,-1.9546,-1.9398,-1.9398,-1.9537,-1.9865,-1.892,-1.8605,-1.8864,-1.8003,-1.7529,-1.7477,-1.7477,-1.7318,-1.291,-1.3956,-1.4433,-1.279,-1.3102,-1.3672,-1.3102,0.0,0.0,0.0,0.0,0.0,0.0,0.0,0.0,0.0,0.0,-2.165,0.0,0.0,-2.5181,-2.56,0.0,-2.7041,-2.7098,-2.7116,-2.7008,-2.6845,-2.6845,-2.6791,-2.6591,-2.6591,-2.6591,-2.6591,-2.6591,-2.6591,-2.6591,-2.6591,-2.6591,-2.6591,-2.6591,-2.6554,-2.6499,-2.6499,-2.6261,-2.5911,-2.5855,-2.5451,-2.4776,-2.4721,-2.4532,-2.4202,-2.4202,-2.4202,-2.4202,-2.4202,-2.4202,-2.4202,-2.4202,-2.4202,-2.4202,-2.4202,-2.4202,-2.4202,-2.4202,-2.4202,-2.4183,-2.4128,-2.411,-2.4091,-2.4036,-2.4018,-2.3877,-2.348,-2.3407,-2.3316,-2.2968,-2.2913,-2.2913,-2.2913,-2.2167,-2.1531,-2.1531,-2.0964,-2.0124,-1.9175,-1.9161,-1.8927,-1.806,-1.7904,-1.7904,-1.7904,-1.7904,-1.7904,-1.7904,-1.7998,-1.8011,-1.7904,-1.8772,-1.8875,-1.7956,-1.7904,-1.7932,-1.8025,-1.7816,-1.7647,-1.749,-1.7331,-1.712,-1.6842,-1.6842,-1.6842,-1.2551,-1.3516,-1.4212,-1.3304,-1.4304,-1.5478,-1.5344,0.0,0.0,0.0,0.0,0.0,0.0,0.0,0.0,0.0,0.0,-2.262,-2.3389,-2.4262,-2.4922,0.0,0.0,-2.6591,-2.6591,-2.6591,-2.6591,-2.6591,-2.6591,-2.6591,-2.6591,-2.6591,-2.6591,-2.6591,-2.6591,-2.6591,-2.6591,-2.6591,-2.6591,-2.6591,-2.6591,-2.6591,-2.6591,-2.6591,-2.6481,-2.6279,-2.6113,-2.58,-2.5451,-2.5179,-2.4918,-2.4551,-2.4551,-2.4404,-2.4202,-2.4202,-2.4202,-2.4202,-2.4202,-2.4202,-2.4202,-2.4202,-2.4202,-2.4102,-2.3488,-2.3288,-2.3138,-2.2568,-2.3288,-2.4202,-2.4202,-2.4202,-2.4146,-2.3914,-2.3877,-2.3822,-2.3639,-2.3602,-2.3408,-2.2806,-2.2316,-2.1758,-2.1197,-2.0326,-1.9454,-1.8817,-1.8376,-1.7898,-1.7213,-1.7107,-1.716,-1.7384,-1.7213,-1.7213,-1.7384,-1.7384,-1.7437,-1.7582,-1.8042,-1.8094,-1.7635,-1.7582,-1.7529,-1.7384,-1.7384,-1.7226,-1.6948,-1.6948,-1.6842,-1.6683,-1.6683,-1.663,-1.2034,-1.3005,-1.3979,-1.418,-1.5373,-1.6633,-1.722,0.0,0.0,0.0,0.0,0.0,0.0,-1.8485,0.0,-2.165,-2.2584,-2.3187,-2.362,-2.4317,-2.4922,-2.5378,-2.6058,-2.6481,-2.6573,-2.6591,-2.6554,-2.6444,-2.6444,-2.6444,-2.6444,-2.6444,-2.6481,-2.6591,-2.6591,-2.6591,-2.6591,-2.6591,-2.6591,-2.6591,-2.6591,-2.6591,-2.6591,-2.6591,-2.6591,-2.6573,-2.6243,-2.6094,-2.5984,-2.569,-2.5271,-2.4904,-2.4812,-2.4569,-2.4202,-2.4202,-2.4202,-2.4202,-2.4202,-2.4202,-2.4152,-2.3904,-2.3805,-2.3587,-2.2467,-2.2114,-2.1962,-2.1148,-2.2114,-2.3438,-2.3438,-2.3438,-2.3438,-2.3438,-2.3438,-2.3438,-2.3438,-2.3438,-2.3138,-2.2198,-2.181,-2.1336,-2.0467,-1.9383,-1.8551,-1.8356,-1.7635,-1.7014,-1.6736,-1.6683,-1.6789,-1.7067,-1.6842,-1.6789,-1.7067,-1.7067,-1.7173,-1.7371,-1.7477,-1.7529,-1.7529,-1.7424,-1.7265,-1.7067,-1.7067,-1.6961,-1.663,-1.6693,-1.6678,-1.6624,-1.6687,-1.6617,-1.1889,-1.3067,-1.4243,-1.502,-1.5196,0.0,-1.6688,-1.6597,0.0,-1.7715,0.0,0.0,0.0,-2.0387,-2.1742,-2.2675,-2.3169,-2.3639,-2.411,0.0,-2.4922,-2.5378,-2.58,-2.6205,-2.6554,-2.6591,-2.6426,-2.6094,-2.6058,-2.6058,-2.6058,-2.6058,-2.6188,-2.6573,-2.6591,-2.6591,-2.6591,-2.6591,-2.6591,-2.6591,-2.6591,-2.6591,-2.6591,-2.6591,-2.6591,-2.6591,-2.6554,-2.6316,-2.6021,-2.5984,-2.5745,-2.5341,-2.4922,-2.4569,-2.4202,-2.4202,-2.4202,-2.4202,-2.4202,-2.4202,-2.4053,-2.2987,-2.2619,-2.2417,-2.1353,-2.1046,-2.0995,-2.0928,-2.0979,-2.1132,-2.1132,-2.1132,-2.1132,-2.1132,-2.1132,-2.1132,-2.1132,-2.1132,-2.103,-2.0641,-1.9731,-1.8982,-1.8655,-1.7608,-1.6882,-1.6829,-1.6789,-1.6736,-1.6683,-1.6683,-1.6736,-1.6736,-1.6736,-1.6736,-1.6736,-1.6736,-1.6736,-1.6789,-1.7067,-1.7226,-1.7226,-1.6948,-1.6789,-1.6736,-1.6736,-1.6577,-1.6324,-1.6572,-1.6587,-1.6314,-1.6568,-1.6702,-1.0704,-1.2282,-1.3939,-1.4294,-1.5263,0.0,0.0,-1.8227,-1.8795,-1.9787,-2.0099,0.0,0.0,0.0,-2.2236,-2.2821,-2.3242,-2.3645,-2.4146,-2.4569,-2.4831,-2.4977,-2.5414,-2.5708,-2.5821,-2.5839,-2.5819,-2.5653,-2.5653,-2.5653,-2.5653,-2.5874,-2.6094,-2.6241,-2.6444,-2.6591,-2.6591,-2.6591,-2.6591,-2.6591,-2.6591,-2.6591,-2.6591,-2.6591,-2.6591,-2.6591,-2.6591,-2.6499,-2.6353,-2.6353,-2.6168,-2.5727,-2.5032,-2.4735,-2.4469,-2.3477,-2.3138,-2.3038,-2.2367,-2.2165,-2.2064,-2.1658,-2.1505,-2.1285,-2.0158,-1.9849,-1.9694,-1.9034,-1.8722,-1.893,-2.0518,-2.0877,-2.0877,-2.0877,-2.0877,-2.0826,-2.0656,-2.0605,-2.0297,-1.9354,-1.885,-1.829,-1.745,-1.6988,-1.663,-1.6471,-1.6471,-1.6365,-1.6205,-1.6353,-1.6505,-1.668,-1.6829,-1.6929,-1.6929,-1.6929,-1.7039,-1.7203,-1.6981,-1.6895,-1.6895,-1.6914,-1.6895,-1.668,-1.6842,-1.682,-1.657,-1.6667,-1.6648,-1.6549,-1.6658,-1.6706,-1.0147,-1.1557,-1.3187,-1.4028,0.0,0.0,-1.8273,-1.9159,-1.9939,-2.1124,-2.1449,0.0,0.0,0.0,0.0,0.0,-2.3242,-2.3645,-2.4146,-2.4459,-2.4629,-2.4757,-2.5014,-2.5286,-2.5414,-2.5414,-2.5378,-2.5197,-2.5231,-2.5231,-2.5231,-2.5488,-2.569,-2.5819,-2.6223,-2.6389,-2.6389,-2.6518,-2.6591,-2.6591,-2.6591,-2.6591,-2.6591,-2.6591,-2.6591,-2.6591,-2.6591,-2.6591,-2.6591,-2.6591,-2.6118,-2.5361,-2.4403,-2.3965,-2.3721,-2.2671,-2.2229,-2.2027,-2.1309,-2.0972,-2.0826,-2.0467,-2.0313,-2.0004,-1.893,-1.8499,-1.8237,-1.7516,-1.716,-1.7424,-1.9124,-1.9591,-1.9591,-1.9694,-1.9642,-1.9524,-1.925,-1.925,-1.8939,-1.7923,-1.7713,-1.7463,-1.663,-1.6546,-1.6489,-1.634,-1.636,-1.6368,-1.6205,-1.6308,-1.6527,-1.6692,-1.6851,-1.6962,-1.6962,-1.6962,-1.7018,-1.7254,-1.6892,-1.6734,-1.6829,-1.6921,-1.6869,-1.6692,-1.6876,-1.6862,-1.6706,-1.6779,-1.6827,-1.6827,-1.6911,-1.6948,-1.0479,-1.1048,-1.2034,0.0,0.0,0.0,-1.8406,-1.9034,-1.9588,-2.1572,0.0,-2.2291,-2.2337,-2.2337,0.0,-2.284,-2.3242,-2.3645,-2.4146,-2.4202,-2.4367,-2.4721,-2.4776,-2.4941,-2.5378,-2.5414,-2.5197,-2.4812,-2.4776,-2.4776,-2.4776,-2.4776,-2.4959,-2.5414,-2.58,-2.6021,-2.6021,-2.6371,-2.6591,-2.6591,-2.6591,-2.6591,-2.6591,-2.6591,-2.6591,-2.6591,-2.6591,-2.6591,-2.6591,-2.6591,-2.5612,-2.4088,-2.2873,-2.2173,-2.1818,-2.1764,-2.1597,-2.1296,-2.1296,-2.1075,-2.0688,-1.9539,-1.8982,-1.8579,-1.7543,-1.6961,-1.6683,-1.6683,-1.6683,-1.6683,-1.6683,-1.6683,-1.6789,-1.712,-1.6961,-1.6683,-1.6683,-1.6683,-1.663,-1.6389,-1.6283,-1.623,-1.5951,-1.6115,-1.6284,-1.6284,-1.6525,-1.6706,-1.6706,-1.6706,-1.6706,-1.6706,-1.6706,-1.6706,-1.6706,-1.6706,-1.6706,-1.6706,-1.6706,-1.6818,-1.7074,-1.6862,-1.6706,-1.6706,-1.6706,-1.6706,-1.6706,-1.6972,-1.7092,-1.7105,-1.7358,-1.7479,-0.901,-1.0474,0.0,-1.3616,0.0,0.0,0.0,-1.9807,0.0,0.0,-2.299,-2.3041,-2.2767,-2.2712,0.0,-2.3261,-2.3425,-2.3645,-2.4146,-2.4202,-2.4257,-2.4367,-2.4385,-2.444,-2.4551,-2.4569,-2.4514,-2.4404,-2.4385,-2.4385,-2.4385,-2.4679,-2.4831,-2.4959,-2.5653,-2.6021,-2.6021,-2.6371,-2.619,-2.5348,-2.619,-2.6591,-2.6591,-2.6591,-2.6591,-2.6537,-2.5679,-2.5348,-2.5293,-2.4445,-2.3822,-2.3301,-2.264,-2.2316,-2.2096,-2.0976,-2.0554,-2.0318,-1.9342,-1.8919,-1.8781,-1.8196,-1.7924,-1.7827,-1.7499,-1.7334,-1.7279,-1.7279,-1.7102,-1.6992,-1.7224,-1.7004,-1.6802,-1.7038,-1.7194,-1.7224,-1.6992,-1.6992,-1.6894,-1.6631,-1.6575,-1.6575,-1.6465,-1.6525,-1.6573,-1.6573,-1.6646,-1.6767,-1.6948,-1.6972,-1.7044,-1.7237,-1.7249,-1.7249,-1.7249,-1.7249,-1.7249,-1.7249,-1.7249,-1.7138,-1.6818,-1.6932,-1.6972,-1.6972,-1.7153,-1.7249,-1.7249,-1.7334,-1.737,-1.737,-1.7443,-1.7479,-0.9562,-1.0818,0.0,-1.3966,-1.5431,-1.7031,-1.8851,0.0,0.0,0.0,0.0,-2.3425,-2.3187,-2.3151,0.0,-2.3462,-2.3675,-2.3877,-2.4165,-2.4202,-2.4202,-2.4202,-2.4202,-2.4202,-2.4202,-2.4202,-2.4202,-2.4202,-2.4202,-2.4202,-2.4202,-2.444,-2.4587,-2.4587,-2.4781,-2.4915,-2.5076,-2.5019,-2.4679,-2.4094,-2.4834,-2.5183,-2.5183,-2.5679,-2.5861,-2.5806,-2.4612,-2.4111,-2.3999,-2.2749,-2.2184,-2.204,-2.1448,-2.1036,-2.0725,-2.0103,-1.9556,-1.9181,-1.8414,-1.8,-1.7742,-1.7588,-1.7421,-1.7353,-1.7353,-1.7254,-1.7198,-1.7198,-1.7086,-1.6974,-1.7142,-1.7004,-1.6903,-1.7066,-1.7129,-1.7142,-1.6974,-1.6918,-1.6918,-1.675,-1.6706,-1.6706,-1.6706,-1.6791,-1.6863,-1.6863,-1.6948,-1.7068,-1.7225,-1.7249,-1.731,-1.7467,-1.7479,-1.7479,-1.7479,-1.7479,-1.7479,-1.7479,-1.7479,-1.7334,-1.702,-1.7165,-1.7249,-1.7249,-1.7406,-1.7479,-1.7479,-1.7479,-1.7479,-1.7479,-1.7479,-1.7479,-1.1209,0.0,0.0,-1.4965,-1.5274,0.0,-1.8613,-2.0623,-2.2191,-2.3214,0.0,-2.3499,-2.3553,-2.3553,-2.3553,-2.3553,-2.3914,-2.4202,-2.4202,-2.4202,-2.4202,-2.4202,-2.4202,-2.4202,-2.4202,-2.4202,-2.4202,-2.4202,-2.4102,-2.4053,-2.4053,-2.3954,-2.3904,-2.3904,-2.3286,-2.3081,-2.3438,-2.2803,-2.2609,-2.2758,-2.2902,-2.2862,-2.2805,-2.4055,-2.4556,-2.4373,-2.3255,-2.2692,-2.2523,-2.1402,-2.0759,-2.04,-1.9635,-1.8952,-1.8473,-1.9068,-1.8782,-1.8046,-1.8319,-1.7981,-1.7553,-1.7497,-1.7316,-1.7148,-1.7148,-1.6992,-1.6767,-1.6767,-1.6767,-1.6767,-1.6767,-1.6948,-1.7126,-1.7153,-1.6935,-1.6767,-1.6767,-1.6767,-1.6767,-1.6767,-1.6767,-1.6767,-1.6767,-1.6972,-1.7129,-1.7129,-1.7334,-1.7479,-1.7479,-1.7479,-1.7479,-1.7479,-1.7479,-1.7479,-1.7479,-1.7479,-1.7479,-1.7479,-1.7479,-1.7479,-1.7479,-1.7479,-1.7479,-1.7479,-1.7479,-1.7479,-1.7479,-1.7479,-1.7479,-1.7479,-1.7479,-1.7479,-0.9843,-1.0754,0.0,0.0,-1.5627,-1.7043,-1.8233,-1.8972,-2.0069,-2.2465,-2.3257,-2.359,-2.3969,-2.4073,-2.4073,-2.4073,-2.4146,-2.4202,-2.4202,-2.4202,-2.4202,-2.4202,-2.4202,-2.4202,-2.4202,-2.4202,-2.4202,-2.4202,-2.3388,-2.2887,-2.2887,-2.2064,-2.1607,-2.1607,-2.1781,-2.1905,-2.1933,-2.2295,-2.1985,-2.0891,-2.203,-2.1983,-2.0859,-2.262,-2.2749,-2.1544,-2.1031,-2.0228,-1.939,-1.9113,-1.8939,-1.8868,-1.8706,-1.8532,-1.8415,-1.8532,-1.8493,-1.8268,-1.8164,-1.801,-1.7844,-1.76,-1.7484,-1.7426,-1.7426,-1.7368,-1.731,-1.731,-1.731,-1.731,-1.731,-1.7358,-1.7382,-1.738,-1.7368,-1.731,-1.731,-1.731,-1.731,-1.731,-1.731,-1.731,-1.731,-1.7358,-1.7394,-1.7394,-1.7443,-1.7479,-1.7479,-1.7479,-1.7479,-1.7479,-1.7479,-1.7479,-1.7479,-1.7479,-1.7479,-1.7479,-1.7479,-1.7479,-1.7479,-1.7479,-1.7479,-1.7479,-1.7479,-1.7479,-1.7479,-1.7479,-1.7479,-1.7479,-1.7479,-1.7479,-0.9793,0.0,0.0,-1.3818,0.0,-1.6069,-1.6885,-1.7293,-1.809,-2.0311,-2.1703,-2.2479,-2.2423,-2.3202,-2.357,-2.2735,-2.3488,-2.4003,-2.3438,-2.3854,-2.4202,-2.4202,-2.3705,-2.3388,-2.3388,-2.292,-2.2619,-2.2619,-2.2064,-2.1709,-2.1709,-2.12,-2.0877,-2.0877,-2.0587,-2.0496,-2.0665,-2.0318,-1.9873,-1.9386,-2.0047,-1.9974,-1.9377,-2.0973,-2.0916,-1.9608,-1.9435,-1.8984,-1.8415,-1.8415,-1.8311,-1.8194,-1.8369,-1.824,-1.8006,-1.8298,-1.824,-1.7948,-1.7972,-1.7901,-1.7726,-1.755,-1.7479,-1.7479,-1.7479,-1.7479,-1.7479,-1.7479,-1.7479,-1.7479,-1.7479,-1.7479,-1.7479,-1.7479,-1.7479,-1.7479,-1.7479,-1.7479,-1.7479,-1.7479,-1.7479,-1.7479,-1.7479,-1.7479,-1.7479,-1.7479,-1.7479,-1.7479,-1.7479,-1.7479,-1.7479,-1.7479,-1.7479,-1.7479,-1.7479,-1.7479,-1.7479,-1.7479,-1.7479,-1.7479,-1.7479,-1.7479,-1.7479,-1.7479,-1.7479,-1.7479,-1.7479,-1.7479,-1.7479,-1.7479,-1.7479,-1.7479,-0.9853,0.0,-1.2247,-1.3785,-1.4232,0.0,-1.533,-1.5744,-1.6333,-1.7666,-1.9622,-2.0925,-2.0408,-2.1752,-2.2429,-2.1038,-2.2365,-2.3199,-2.2367,-2.3038,-2.3637,-2.3637,-2.2769,-2.2215,-2.2215,-2.1404,-2.0877,-2.0877,-2.0672,-2.057,-2.0621,-2.0364,-2.0261,-2.0261,-1.9332,-1.8941,-1.9198,-1.8104,-1.7728,-1.8069,-1.7957,-1.7975,-1.8298,-1.9261,-1.9203,-1.8311,-1.824,-1.824,-1.824,-1.824,-1.8135,-1.7972,-1.8135,-1.7948,-1.7537,-1.8064,-1.7948,-1.7537,-1.7843,-1.7726,-1.7479,-1.7479,-1.7479,-1.7479,-1.7479,-1.7479,-1.7479,-1.7479,-1.7479,-1.7479,-1.7479,-1.7479,-1.7479,-1.7479,-1.7479,-1.7479,-1.7479,-1.7479,-1.7479,-1.7479,-1.7479,-1.7479,-1.7479,-1.7479,-1.7479,-1.7479,-1.7479,-1.7479,-1.7479,-1.7479,-1.7479,-1.7479,-1.7479,-1.7479,-1.7479,-1.7479,-1.7479,-1.7479,-1.7479,-1.7479,-1.7479,-1.7479,-1.7503,-1.7551,-1.7503,-1.7479,-1.7479,-1.7479,-1.7479,-1.7479,-1.7479,-1.7479,0.0,0.0,-1.2151,0.0,-1.3966,-1.434,0.0,0.0,-1.4975,0.0,-1.7428,-1.9479,-1.9941,-2.0297,-2.0459,-2.0468,-2.0732,-2.0929,-2.11,-2.1234,-2.1336,-2.1336,-2.1183,-2.1097,-2.1097,-2.0979,-2.0877,-2.0877,-1.9746,-1.9176,-1.9435,-1.8304,-1.7701,-1.7701,-1.7543,-1.7345,-1.7106,-1.719,-1.714,-1.6954,-1.7146,-1.7341,-1.7655,-1.7772,-1.7948,-1.8031,-1.7784,-1.7596,-1.7596,-1.7596,-1.7596,-1.7537,-1.7596,-1.7537,-1.7479,-1.7596,-1.7537,-1.7479,-1.7537,-1.7537,-1.7479,-1.7479,-1.7479,-1.7479,-1.7479,-1.7479,-1.7479,-1.7479,-1.7479,-1.7479,-1.7479,-1.7479,-1.7479,-1.7479,-1.7479,-1.7479,-1.7479,-1.7479,-1.7479,-1.7479,-1.7479,-1.7479,-1.7479,-1.7479,-1.7479,-1.7479,-1.7479,-1.7479,-1.7479,-1.7479,-1.7479,-1.7479,-1.7479,-1.7479,-1.7479,-1.7479,-1.7479,-1.7479,-1.7479,-1.7479,-1.7479,-1.7479,-1.7587,-1.7817,-1.7599,-1.7479,-1.7479,-1.7479,-1.7479,-1.7479,-1.7479,-1.7479,-0.9035,-1.0527,-1.2035,0.0,-1.3906,-1.4123,-1.4268,0.0,-1.4544,-1.4688,-1.5721,-1.6807,-1.7552,-1.8677,-1.9219,-1.8438,-1.9212,-1.9831,-1.9517,-1.9867,-2.0249,-2.0385,-2.0004,-1.9694,-1.9694,-1.9332,-1.8982,-1.8826,-1.8265,-1.7898,-1.7818,-1.7265,-1.6895,-1.6895,-1.6895,-1.6842,-1.6683,-1.6703,-1.6626,-1.646,-1.6883,-1.7153,-1.7274,-1.7418,-1.7596,-1.7726,-1.755,-1.7479,-1.7479,-1.7479,-1.7479,-1.7479,-1.7479,-1.7479,-1.7479,-1.7479,-1.7479,-1.7479,-1.7479,-1.7479,-1.7479,-1.7479,-1.7479,-1.7479,-1.7479,-1.7479,-1.7479,-1.7479,-1.7479,-1.7479,-1.7479,-1.7479,-1.7479,-1.7479,-1.7479,-1.7479,-1.7479,-1.7479,-1.7479,-1.7479,-1.7479,-1.7479,-1.7479,-1.7479,-1.7479,-1.7479,-1.7479,-1.7479,-1.7479,-1.7479,-1.7479,-1.7479,-1.7479,-1.7479,-1.7479,-1.7479,-1.7479,-1.7479,-1.7479,-1.7551,-1.7696,-1.7696,-1.7829,-1.8106,-1.7841,-1.7781,-1.7937,-1.7937,-1.7937,-1.7937,-1.7937,-1.7937,0.0,0.0,-1.1273,-1.2904,-1.3459,-1.3701,0.0,0.0,-1.4267,0.0,-1.4592,-1.4798,-1.5483,-1.691,-1.7635,-1.6589,-1.7605,-1.8395,-1.7865,-1.8311,-1.8781,-1.9052,-1.8542,-1.8168,-1.8237,-1.7793,-1.7384,-1.7067,-1.7067,-1.6961,-1.6736,-1.663,-1.6577,-1.6577,-1.6577,-1.6577,-1.6524,-1.6324,-1.6233,-1.6284,-1.6767,-1.7032,-1.7105,-1.7358,-1.7479,-1.7479,-1.7479,-1.7479,-1.7479,-1.7479,-1.7479,-1.7479,-1.7479,-1.7479,-1.7479,-1.7479,-1.7479,-1.7479,-1.7479,-1.7479,-1.7479,-1.7479,-1.7479,-1.7479,-1.7479,-1.7479,-1.7479,-1.7479,-1.7479,-1.7479,-1.7479,-1.7479,-1.7479,-1.7479,-1.7479,-1.7479,-1.7479,-1.7479,-1.7479,-1.7479,-1.7479,-1.7479,-1.7479,-1.7479,-1.7479,-1.7479,-1.7479,-1.7479,-1.7479,-1.7479,-1.7479,-1.7479,-1.7539,-1.7575,-1.7575,-1.7575,-1.7575,-1.7575,-1.7575,-1.7672,-1.7865,-1.7937,-1.8106,-1.8384,-1.8191,-1.8155,-1.83,-1.83,-1.83,-1.83,-1.83,-1.83,0.0,-0.8818,0.0,-1.1212,0.0,0.0,0.0,0.0,-1.4002,-1.4244,-1.434,-1.44,-1.47,-1.5048,-1.539,-1.5513,-1.5663,-1.5815,-1.6098,-1.6137,-1.624,-1.6459,-1.6445,-1.6548,-1.6751,-1.7067,-1.7067,-1.6736,-1.6736,-1.6736,-1.6683,-1.6471,-1.6324,-1.6324,-1.6324,-1.6217,-1.5939,-1.5939,-1.6072,-1.6284,-1.6585,-1.6851,-1.7105,-1.7358,-1.7479,-1.7479,-1.7479,-1.7479,-1.7479,-1.7479,-1.7479,-1.7479,-1.7479,-1.7479,-1.7479,-1.7479,-1.7479,-1.7479,-1.7479,-1.7479,-1.7479,-1.7479,-1.7479,-1.7479,-1.7479,-1.7479,-1.7479,-1.7479,-1.7479,-1.7479,-1.7479,-1.7479,-1.7479,-1.7479,-1.7479,-1.7479,-1.7479,-1.7479,-1.7479,-1.7479,-1.7479,-1.7479,-1.7479,-1.7479,-1.7479,-1.7479,-1.7479,-1.7479,-1.7479,-1.7479,-1.7479,-1.7479,-1.7708,-1.7853,-1.7853,-1.7853,-1.7853,-1.7853,-1.7853,-1.7865,-1.7877,-1.8131,-1.8396,-1.8662,-1.865,-1.8529,-1.83,-1.83,-1.83,-1.83,-1.83,-1.83,0.0,0.0,0.0,-1.0659,-1.1573,-1.2361,-1.2988,-1.3532,-1.393,-1.4026,-1.4183,-1.434,-1.4448,-1.464,-1.4917,-1.521,-1.5078,-1.5082,-1.5406,-1.5245,-1.5257,-1.5515,-1.5803,-1.6056,-1.6156,-1.6582,-1.6736,-1.6483,-1.643,-1.6365,-1.6205,-1.6099,-1.6045,-1.6045,-1.6045,-1.6004,-1.5885,-1.5885,-1.5934,-1.603,-1.6489,-1.6754,-1.6851,-1.7286,-1.7479,-1.7479,-1.7479,-1.7479,-1.7479,-1.7479,-1.7479,-1.7479,-1.7479,-1.7479,-1.7479,-1.7479,-1.7479,-1.7479,-1.7479,-1.7479,-1.7479,-1.7479,-1.7479,-1.7479,-1.7479,-1.7479,-1.7479,-1.7479,-1.7479,-1.7479,-1.7479,-1.7479,-1.7479,-1.7479,-1.7479,-1.7479,-1.7479,-1.7479,-1.7479,-1.7479,-1.7479,-1.7479,-1.7479,-1.7479,-1.7479,-1.7479,-1.7479,-1.7479,-1.7479,-1.7624,-1.7732,-1.7732,-1.7986,-1.8143,-1.8143,-1.8143,-1.8143,-1.8143,-1.8143,-1.8215,-1.8384,-1.8493,-1.8674,-1.8927,-1.8088,-1.7978,-1.8794,-1.8794,-1.8794,-1.8794,-1.8794,-1.834,-0.7568,0.0,0.0,0.0,0.0,-1.1501,-1.2602,0.0,-1.3471,-1.3833,-1.4051,-1.4195,-1.428,-1.4448,-1.464,-1.4783,-1.4688,-1.4653,-1.4838,-1.4667,-1.4678,-1.4944,-1.5289,-1.5563,-1.5747,-1.6181,-1.6371,-1.6152,-1.6271,-1.6164,-1.5885,-1.5885,-1.5885,-1.5885,-1.5885,-1.5885,-1.5885,-1.5885,-1.5885,-1.5897,-1.6441,-1.6706,-1.6718,-1.7249,-1.7479,-1.7479,-1.7479,-1.7479,-1.7479,-1.7479,-1.7479,-1.7479,-1.7479,-1.7479,-1.7479,-1.7479,-1.7479,-1.7479,-1.7479,-1.7479,-1.7479,-1.7479,-1.7479,-1.7479,-1.7479,-1.7479,-1.7479,-1.7479,-1.7479,-1.7479,-1.7479,-1.7479,-1.7479,-1.7479,-1.7479,-1.7479,-1.7479,-1.7479,-1.7479,-1.7479,-1.7479,-1.7479,-1.7479,-1.7126,-1.6855,-1.6937,-1.6592,-1.6317,-1.6335,-1.6491,-1.6652,-1.6652,-1.6876,-1.7219,-1.7665,-1.7281,-1.7405,-1.8358,-1.7541,-1.7298,-1.7971,-1.761,-1.7543,-1.77,-1.6786,-1.6786,-1.7711,-1.7711,-1.7711,-1.7711,-1.7711,-1.6926,0.0,0.0,0.0,0.0,0.0,0.0,-1.2512,0.0,-1.2578,-1.364,-1.387,-1.3966,-1.4232,-1.4292,-1.4292,-1.4292,-1.4292,-1.4292,-1.4292,-1.4292,-1.4401,-1.4666,-1.4714,-1.492,-1.5427,-1.5759,-1.5869,-1.5914,-1.6164,-1.6164,-1.5885,-1.5885,-1.5885,-1.5885,-1.5885,-1.5885,-1.5885,-1.5885,-1.5885,-1.5897,-1.6441,-1.6706,-1.6718,-1.7249,-1.7479,-1.7479,-1.7479,-1.7479,-1.7479,-1.7479,-1.7479,-1.7479,-1.7479,-1.7479,-1.7479,-1.7479,-1.7479,-1.7479,-1.7479,-1.7479,-1.7479,-1.7479,-1.7479,-1.7479,-1.7479,-1.7479,-1.7479,-1.7479,-1.7479,-1.7479,-1.7479,-1.7479,-1.7491,-1.7491,-1.7491,-1.7491,-1.7503,-1.7503,-1.7432,-1.7479,-1.7479,-1.742,-1.7432,-1.6419,-1.5606,-1.5721,-1.4709,-1.3981,-1.4064,-1.4092,-1.4101,-1.4101,-1.4341,-1.5037,-1.6445,-1.5292,-1.5684,-1.8435,-1.6001,-1.5101,-1.6509,-1.551,-1.4912,-1.4912,-1.4847,-1.4847,-1.4847,-1.4912,-1.4912,-1.4912,-1.4847,-1.4128,-0.723,0.0,0.0,0.0,0.0,0.0,0.0,0.0,-1.1697,-1.2578,-1.3061,-1.3483,-1.393,-1.4171,-1.4292,-1.4292,-1.4292,-1.4292,-1.4292,-1.4292,-1.4328,-1.4401,-1.4594,-1.4775,-1.492,-1.5333,-1.564,-1.5596,-1.5842,-1.6004,-1.5885,-1.5885,-1.5885,-1.5885,-1.5885,-1.5885,-1.5885,-1.5885,-1.5885,-1.5897,-1.6441,-1.6706,-1.6718,-1.7249,-1.7479,-1.7479,-1.7479,-1.7479,-1.7479,-1.7479,-1.7479,-1.7479,-1.7479,-1.7479,-1.7479,-1.7479,-1.7479,-1.7479,-1.7479,-1.7479,-1.7479,-1.7479,-1.7479,-1.7479,-1.7479,-1.7479,-1.7479,-1.7479,-1.7479,-1.7479,-1.7479,-1.7479,-1.7527,-1.772,-1.7768,-1.7817,-1.8022,-1.7179,-1.6623,-1.7338,-1.6762,-1.6168,-1.6226,-1.5214,-1.4436,-1.4537,-1.4256,-1.4088,-1.4082,-1.4276,-1.437,-1.437,-1.4621,-1.4947,-1.5336,-1.5012,-1.5142,-1.5927,-1.5206,-1.4947,-1.5336,-1.507,-1.4912,-1.4912,-1.3932,-1.3407,-1.3407,-1.439,-1.4912,-1.4912,-1.3866,-1.3013,0.0,0.0,0.0,0.0,0.0,0.0,-1.0166,-1.0575,-1.1045,0.0,-1.2493,-1.2952,-1.3483,-1.3701,-1.3882,-1.4099,-1.4135,-1.4171,-1.428,-1.4292,-1.4292,-1.4292,-1.4437,-1.4594,-1.4702,-1.4992,-1.527,-1.5487,-1.5644,-1.5777,-1.5885,-1.5885,-1.5885,-1.5885,-1.5885,-1.5885,-1.5885,-1.5885,-1.5885,-1.5897,-1.6441,-1.6706,-1.6718,-1.7249,-1.7479,-1.7479,-1.7479,-1.7479,-1.7479,-1.7479,-1.7479,-1.7479,-1.7479,-1.7479,-1.7479,-1.7479,-1.7479,-1.7479,-1.7479,-1.7479,-1.7479,-1.7479,-1.7479,-1.7479,-1.7479,-1.7479,-1.7479,-1.7479,-1.7479,-1.7479,-1.7479,-1.7479,-1.7551,-1.7817,-1.7877,-1.7829,-1.748,-1.6736,-1.6243,-1.6791,-1.578,-1.4911,-1.4983,-1.3972,-1.3234,-1.3374,-1.2957,-1.2601,-1.2683,-1.2847,-1.2913,-1.2913,-1.3078,-1.3407,-1.3997,-1.3473,-1.3669,-1.4847,-1.3801,-1.3407,-1.3997,-1.3473,-1.3144,-1.3144,-1.2355,-1.1901,-1.1901,-1.275,-1.3144,-1.3144,-1.2297,-1.1769,0.0,0.0,0.0,0.0,0.0,0.0,-1.0527,-1.0444,-1.0373,0.0,-1.1866,-1.2228,-1.2752,-1.2952,-1.3101,-1.3604,-1.3785,-1.3966,-1.4256,-1.4292,-1.4292,-1.4292,-1.4292,-1.4389,-1.4642,-1.4702,-1.492,-1.5415,-1.5511,-1.5644,-1.5873,-1.5885,-1.5885,-1.5885,-1.5885,-1.5885,-1.5885,-1.5885,-1.5897,-1.5934,-1.6453,-1.6718,-1.6754,-1.7261,-1.7479,-1.7479,-1.7479,-1.7479,-1.7479,-1.7479,-1.7479,-1.7479,-1.7479,-1.7479,-1.7479,-1.7479,-1.7479,-1.7479,-1.7479,-1.7479,-1.7479,-1.7479,-1.7479,-1.7479,-1.7479,-1.7479,-1.7479,-1.7479,-1.7479,-1.7479,-1.7479,-1.7503,-1.7587,-1.7673,-1.7757,-1.7416,-1.6301,-1.5898,-1.5763,-1.5676,-1.4566,-1.3698,-1.3717,-1.2761,-1.2059,-1.2169,-1.1229,-1.0568,-1.0704,-1.0717,-1.0717,-1.0717,-1.0717,-1.1181,-1.2487,-1.1439,-1.1769,-1.4259,-1.2099,-1.1247,-1.2487,-1.1372,-1.0717,-1.0717,-1.0651,-1.0651,-1.0651,-1.0651,-1.0651,-1.0651,-1.0651,-1.0459,0.0,0.0,0.0,0.0,0.0,0.0,-0.9147,-0.8961,-0.8994,0.0,-1.0178,-1.0587,-1.1371,-1.1826,-1.2192,-1.2247,-1.3025,-1.3761,-1.4232,-1.4292,-1.4292,-1.4292,-1.4292,-1.4316,-1.4377,-1.4582,-1.4847,-1.5161,-1.5572,-1.5837,-1.5885,-1.5885,-1.5885,-1.5885,-1.5885,-1.5885,-1.5885,-1.5885,-1.5994,-1.6211,-1.6537,-1.6815,-1.7032,-1.7334,-1.7479,-1.7479,-1.7479,-1.7479,-1.7479,-1.7479,-1.7479,-1.7479,-1.7479,-1.7479,-1.7479,-1.7479,-1.7479,-1.7479,-1.7479,-1.7479,-1.7479,-1.7479,-1.7479,-1.7479,-1.7479,-1.7479,-1.7479,-1.7479,-1.7479,-1.7479,-1.7479,-1.7636,-1.7625,-1.6714,-1.6728,-1.656,-1.5386,-1.4199,-1.3306,-1.3271,-1.2889,-1.2586,-1.2673,-1.1641,-1.0883,-1.0979,-1.0809,-1.0683,-1.0717,-1.0717,-1.0717,-1.0717,-1.0717,-1.0784,-1.1115,-1.085,-1.0916,-1.1505,-1.0982,-1.085,-1.1115,-1.085,-1.0717,-1.0717,-1.0459,-1.0326,-1.0326,-1.0591,-1.0591,-1.0326,-1.0326,-0.9921,0.0,0.0,0.0,-0.8245,0.0,0.0,0.0,-0.8139,-0.8243,-0.9355,-0.9479,-0.9753,-1.0887,-1.1226,-1.1369,-1.1645,-1.2506,-1.3157,-1.329,-1.3882,-1.4292,-1.4292,-1.4292,-1.4292,-1.4292,-1.4425,-1.4618,-1.4896,-1.5403,-1.5692,-1.5692,-1.5813,-1.5885,-1.5885,-1.5885,-1.5885,-1.5885,-1.6018,-1.6151,-1.6284,-1.6694,-1.696,-1.7105,-1.7358,-1.7479,-1.7479,-1.7479,-1.7479,-1.7479,-1.7479,-1.7479,-1.7479,-1.7479,-1.7479,-1.7479,-1.7479,-1.7479,-1.7479,-1.7479,-1.7479,-1.7479,-1.7479,-1.7479,-1.7479,-1.7479,-1.7479,-1.7479,-1.7479,-1.7479,-1.7397,-1.6805,-1.6751,-1.663,-1.5607,-1.5466,-1.5224,-1.4083,-1.3265,-1.2482,-1.1773,-1.151,-1.1458,-1.1458,-1.1011,-1.0629,-1.0711,-1.0717,-1.0717,-1.0717,-1.0717,-1.0717,-1.0717,-1.0717,-1.0651,-1.0459,-1.0459,-1.0392,-1.0193,-1.0193,-1.0193,-1.0193,-1.0193,-1.0193,-1.0193,-1.006,-0.9927,-0.9927,-1.0127,-1.0127,-0.9927,-0.9927,-0.9655,0.0,0.0,0.0,0.0,0.0,-0.7862,0.0,0.0,0.0,-0.8852,-0.887,0.0,0.0,0.0,0.0,-1.096,0.0,0.0,0.0,-1.3073,0.0,-1.3918,-1.4002,-1.4087,-1.4135,-1.4147,-1.4304,-1.469,-1.5016,-1.5282,-1.5487,-1.5704,-1.5837,-1.5885,-1.5885,-1.5885,-1.5885,-1.6151,-1.6308,-1.6368,-1.6863,-1.7117,-1.7177,-1.7382,-1.7479,-1.7479,-1.7479,-1.7479,-1.7479,-1.7479,-1.7479,-1.7479,-1.7479,-1.7479,-1.7479,-1.7479,-1.7479,-1.7479,-1.7479,-1.7479,-1.7479,-1.7479,-1.7479,-1.7479,-1.7479,-1.7479,-1.7432,-1.7244,-1.7138,-1.6901,-1.5753,-1.5544,-1.5289,-1.4315,-1.4162,-1.3858,-1.2652,-1.2421,-1.2033,-1.0916,-1.0717,-1.0683,-1.0555,-1.0636,-1.0717,-1.0717,-1.0717,-1.0717,-1.0717,-1.0717,-1.0651,-1.0591,-1.0585,-1.0459,-1.0127,-1.0127,-0.9994,-0.9728,-0.9728,-0.9728,-0.9728,-0.9728,-0.9728,-0.9728,-0.9594,-0.9594,-0.9594,-0.9528,-0.9528,-0.9594,-0.9594,-0.9389,0.0,0.0,0.0,0.0,-0.852,0.0,0.0,0.0,-0.682,-0.7019,0.0,0.0,0.0,0.0,0.0,0.0,0.0,0.0,-1.0587,-1.1697,-1.2542,-1.2542,-1.2964,-1.335,-1.358,-1.3604,-1.3918,-1.4666,-1.4328,-1.4497,-1.5451,-1.5523,-1.5644,-1.5885,-1.5885,-1.5885,-1.5885,-1.6151,-1.6404,-1.6658,-1.6948,-1.7213,-1.7443,-1.7467,-1.7479,-1.7479,-1.7479,-1.7479,-1.7479,-1.7479,-1.7479,-1.7479,-1.7479,-1.7479,-1.7479,-1.7479,-1.7479,-1.7479,-1.7479,-1.7479,-1.7479,-1.7479,-1.7479,-1.7479,-1.7479,-1.7479,-1.7291,-1.626,-1.6013,-1.5703,-1.4566,-1.4436,-1.4334,-1.299,-1.28,-1.2594,-1.124,-1.0916,-1.0916,-1.0717,-1.0717,-1.0717,-1.0697,-1.0711,-1.0717,-1.0717,-1.0717,-1.0717,-1.0717,-1.0717,-1.0585,-1.0259,-1.0259,-1.0127,-0.9794,-0.9728,-0.9728,-0.9728,-0.9728,-0.9728,-0.9728,-0.9728,-0.9728,-0.9728,-0.9322,-0.9183,-0.9183,-0.8856,-0.8856,-0.9183,-0.9183,-0.8984,0.0,0.0,0.0,0.0,0.0,0.0,-0.7362,0.0,-0.6135,0.0,0.0,0.0,0.0,0.0,0.0,0.0,-0.9717,0.0,0.0,0.0,-1.1188,-1.1999,-1.2379,-1.2819,-1.3254,-1.329,-1.3495,-1.3978,-1.3809,-1.4002,-1.4763,-1.5246,-1.5547,-1.5656,-1.5813,-1.5958,-1.6115,-1.6392,-1.6658,-1.6936,-1.7189,-1.737,-1.7479,-1.7479,-1.7479,-1.7479,-1.7479,-1.7479,-1.7479,-1.7479,-1.7479,-1.7479,-1.7479,-1.7479,-1.7479,-1.7479,-1.7479,-1.7361,-1.6644,-1.6408,-1.629,-1.551,-1.5357,-1.5403,-1.5403,-1.5498,-1.5451,-1.493,-1.4827,-1.4576,-1.34,-1.3195,-1.2959,-1.1708,-1.1527,-1.1439,-1.085,-1.0717,-1.0717,-1.0717,-1.0518,-1.0392,-1.0392,-1.0591,-1.0651,-1.0459,-1.0585,-1.0591,-1.0193,-1.0259,-1.0259,-0.9927,-0.9927,-0.9728,-0.9389,-0.9322,-0.9256,-0.9056,-0.9056,-0.9056,-0.9056,-0.9056,-0.9056,-0.9056,-0.8923,-0.8784,-0.8784,-0.8656,-0.8656,-0.8784,-0.8784,-0.8717,-1.0826,0.0,0.0,0.0,0.0,0.0,0.0,0.0,0.0,0.0,0.0,0.0,0.0,0.0,0.0,0.0,0.0,-0.9042,0.0,-0.9161,0.0,0.0,0.0,-1.2319,-1.2716,-1.262,-1.2764,-1.3363,-1.3133,-1.3363,-1.4244,-1.492,-1.5354,-1.5499,-1.5753,-1.6018,-1.6272,-1.6561,-1.6827,-1.7092,-1.7358,-1.7479,-1.7479,-1.7479,-1.7479,-1.7479,-1.7479,-1.7479,-1.7479,-1.7126,-1.7009,-1.695,-1.6585,-1.6467,-1.6526,-1.682,-1.6762,-1.636,-1.5466,-1.5171,-1.5042,-1.4137,-1.3868,-1.392,-1.392,-1.4032,-1.4038,-1.3717,-1.3609,-1.3337,-1.2257,-1.1915,-1.175,-1.0889,-1.0717,-1.0717,-1.0717,-1.0651,-1.0591,-1.0591,-1.0259,-1.006,-1.006,-1.0259,-1.0326,-1.0127,-1.0259,-1.0259,-0.9794,-0.9927,-0.9927,-0.9588,-0.9528,-0.9389,-0.8984,-0.8984,-0.8851,-0.859,-0.859,-0.859,-0.859,-0.859,-0.859,-0.859,-0.859,-0.859,-0.859,-0.859,-0.859,-0.859,-0.859,-0.859,-1.069,-1.0646,-1.0388,-0.7948,-0.8216,-0.8742,0.0,0.0,-0.7807,0.0,0.0,0.0,0.0,0.0,0.0,0.0,0.0,0.0,0.0,0.0,0.0,0.0,0.0,0.0,-1.1962,-1.1465,-1.1706,-1.2993,-1.2139,-1.2343,-1.4195,-1.4582,-1.498,-1.5487,-1.5753,-1.6018,-1.6272,-1.6561,-1.6827,-1.7092,-1.7358,-1.7479,-1.7479,-1.7479,-1.7479,-1.7479,-1.7479,-1.7479,-1.742,-1.6172,-1.5628,-1.551,-1.4321,-1.3844,-1.3963,-1.5213,-1.4857,-1.3813,-1.3943,-1.4019,-1.4135,-1.4073,-1.4073,-1.4082,-1.4082,-1.4082,-1.3878,-1.2747,-1.2483,-1.22,-1.1066,-1.0777,-1.0777,-1.0717,-1.0717,-1.0717,-1.0717,-1.0459,-1.0193,-1.0193,-0.9927,-0.9728,-0.9728,-0.9728,-0.9728,-0.9728,-0.9728,-0.9728,-0.9728,-0.9728,-0.9594,-0.9183,-0.9117,-0.8984,-0.8651,-0.859,-0.859,-0.859,-0.859,-0.859,-0.859,-0.859,-0.859,-0.859,-0.859,-0.859,-0.859,-0.859,-0.859,-0.859,-0.859,-0.859,-1.2553,-1.2653,-1.2411,-1.0371,-0.9659,-0.8981,-0.7317,-0.6609,0.0,0.0,0.0,0.0,0.0,0.0,0.0,0.0,0.0,0.0,0.0,0.0,0.0,0.0,0.0,0.0,0.0,-1.0724,-1.123,-1.1485,-1.165,-1.2373,-1.3713,-1.4533,-1.5052,-1.5234,-1.5825,-1.6284,-1.6549,-1.6827,-1.7092,-1.7358,-1.7443,-1.7067,-1.6231,-1.6231,-1.5747,-1.4976,-1.4976,-1.4976,-1.4976,-1.45,-1.4321,-1.4321,-1.3844,-1.3186,-1.2526,-1.3844,-1.411,-1.3709,-1.2986,-1.2231,-1.1593,-1.1593,-1.1662,-1.169,-1.169,-1.1766,-1.1743,-1.141,-1.13,-1.1176,-1.077,-1.0717,-1.0651,-1.0392,-1.0518,-1.0585,-1.0127,-1.0127,-1.0127,-0.9927,-0.9588,-0.9322,-0.9322,-0.9123,-0.9056,-0.9256,-0.9528,-0.9528,-0.9056,-0.9189,-0.9189,-0.8784,-0.8784,-0.8723,-0.859,-0.859,-0.859,-0.859,-0.859,-0.859,-0.859,-0.859,-0.859,-0.859,-0.859,-0.859,-0.859,-0.859,-0.859,-0.859,-0.859,-0.859,-1.3262,-1.3321,-1.3123,-1.1608,-1.073,-0.9771,-0.8058,-0.7371,-0.6949,-0.6544,0.0,0.0,0.0,0.0,-0.6079,0.0,0.0,0.0,0.0,-0.6041,0.0,0.0,0.0,0.0,0.0,0.0,-1.0039,-1.0927,-1.112,-1.1858,-1.327,-1.4389,-1.5004,-1.5101,-1.5873,-1.6416,-1.6694,-1.696,-1.7225,-1.7479,-1.7067,-1.6408,-1.5569,-1.5154,-1.45,-1.3725,-1.3725,-1.3725,-1.3665,-1.3186,-1.3006,-1.2946,-1.2466,-1.1784,-1.1241,-1.263,-1.2909,-1.2582,-1.183,-1.1091,-1.0439,-1.0439,-1.05,-1.0575,-1.0575,-1.0643,-1.0717,-1.0717,-1.0717,-1.0717,-1.0717,-1.0717,-1.0651,-1.0452,-1.0459,-1.0392,-0.9994,-0.9861,-0.9721,-0.9522,-0.9189,-0.8917,-0.8917,-0.8717,-0.8656,-0.8917,-0.9123,-0.9123,-0.8656,-0.8784,-0.8851,-0.8656,-0.859,-0.859,-0.859,-0.859,-0.859,-0.859,-0.859,-0.859,-0.859,-0.859,-0.859,-0.859,-0.859,-0.859,-0.859,-0.859,-0.859,-0.859,-0.859,-0.859]},{"header":{"parameterUnit":"m.s-1","parameterCategory":1,"la1":30.6,"la2":29.2853,"lo1":-89.7004,"lo2":-87.6739,"dy":0.0162,"dx":0.0183,"nx":112,"ny":82,"refTime":"2024-09-18T06:00:00:Z","depth":0,"parameterNumber":3,"parameterNumberName":"V-component_of_WINDS"},"data":[0.0,0.0,0.0,0.0,0.0,0.0,0.0,0.0,0.0,0.0,0.0,0.0,0.0,0.0,0.0,0.0,0.0,0.0,0.0,0.0,0.0,0.0,0.0,0.0,0.0,0.0,0.0,0.0,0.0,0.0,0.0,0.0,0.0,0.0,0.0,0.0,0.0,0.0,0.0,0.0,0.0,0.0,0.0,0.0,0.0,0.0,0.0,0.0,0.0,0.0,0.0,0.0,0.0,0.0,0.0,0.0,0.0,0.0,0.0,0.0,0.0,0.0,0.0,0.0,0.0,0.0,0.0,0.0,0.0,0.0,0.0,0.0,0.0,0.0,0.0,0.0,0.0,0.0,0.0,0.0,0.0,0.0,0.0,0.0,0.0,0.0,0.0,0.0,0.0,0.0,0.9904,1.1008,1.223,1.3017,1.3017,1.3065,1.2426,1.0839,0.0,0.0,0.0,0.0,0.0,0.0,0.0,0.0,0.0,0.0,0.0,0.0,0.0,0.0,0.0,0.0,0.0,0.0,0.0,0.0,0.0,0.0,0.0,0.0,0.0,0.0,0.0,0.0,0.0,0.0,0.0,0.0,0.0,0.0,0.0,0.0,0.0,0.0,0.0,0.0,0.0,0.0,0.0,0.0,0.0,0.0,0.0,0.0,0.0,0.0,0.0,0.0,0.0,0.0,0.0,0.0,0.0,0.0,0.0,0.0,0.0,0.0,0.0,0.0,0.0,0.0,0.0,0.0,0.0,0.0,0.0,0.0,0.0,0.0,0.0,0.0,0.0,0.0,0.0,0.0,0.0,0.0,0.0,0.0,0.0,0.0,0.0,0.0,0.0,0.0,0.0,0.0,0.0,0.0,0.0,0.0,0.0,0.0,0.0,0.0,0.0,0.0,0.0,0.0,0.9924,1.2344,1.3137,1.3478,1.3478,1.386,1.3301,1.1413,0.0,0.0,0.0,0.0,0.0,0.0,0.0,0.0,0.0,0.0,0.0,0.0,0.0,0.0,0.0,0.0,0.0,0.0,0.0,0.0,0.0,0.0,0.0,0.0,0.0,0.0,0.0,0.0,0.0,0.0,0.0,0.0,0.0,0.0,0.0,0.0,0.0,0.0,0.0,0.0,0.0,0.0,0.0,0.0,0.0,0.0,0.0,0.0,0.0,0.0,0.0,0.0,0.0,0.0,0.0,0.0,0.0,0.0,0.0,0.0,0.0,0.0,0.0,0.0,0.0,0.0,0.0,0.0,0.0,0.0,0.0,0.0,0.0,0.0,0.0,0.0,0.0,0.0,0.0,0.0,0.0,0.0,0.0,0.0,0.0,0.0,0.0,0.0,0.0,0.0,0.0,0.0,0.0,0.0,0.0,0.0,0.0,0.0,0.0,0.0,0.0,0.0,0.0,1.0286,1.1065,1.2724,1.331,1.3597,1.3597,1.3789,1.3301,1.1767,1.0606,0.0,0.0,0.0,0.0,0.0,0.0,0.0,0.0,0.0,0.0,0.0,0.0,0.0,0.0,0.0,0.0,0.0,0.0,0.0,0.0,0.0,0.0,0.0,0.0,0.0,0.0,0.0,0.0,0.0,0.0,0.0,0.0,0.0,0.0,0.0,0.0,0.0,0.0,0.0,0.0,0.0,0.0,0.0,0.0,0.0,0.0,0.0,0.0,0.0,0.0,0.0,0.0,0.0,0.0,0.0,0.0,0.0,0.0,0.0,0.0,0.0,0.0,0.0,0.0,0.0,0.0,0.0,0.0,0.0,0.0,0.0,0.0,0.0,0.0,0.0,0.0,0.0,0.0,0.0,0.0,0.0,0.0,0.0,0.0,0.0,0.0,0.0,0.0,0.0,0.0,0.0,0.0,0.0,0.0,0.0,0.0,0.0,0.0,0.0,0.0,0.0,0.0,1.1944,1.2549,1.3161,1.3668,1.3931,1.3931,1.3726,1.315,1.2151,1.072,0.0,0.0,0.0,0.0,0.0,0.0,0.0,0.0,0.0,0.0,0.0,0.0,0.0,0.0,0.0,0.0,0.0,0.0,0.0,0.0,0.0,0.0,0.0,0.0,0.0,0.0,0.0,0.0,0.0,0.0,0.0,0.0,0.0,0.0,0.0,0.0,0.0,0.0,0.0,0.0,0.0,0.0,0.0,0.0,0.0,0.0,0.0,0.0,0.0,0.0,0.0,0.0,0.0,0.0,0.0,0.0,0.0,0.0,0.0,0.0,0.0,0.0,0.0,0.0,0.0,0.0,0.0,0.0,0.0,0.0,0.0,0.0,0.0,0.0,0.0,0.0,0.0,0.0,0.0,0.0,0.0,0.0,0.0,0.0,0.0,0.0,0.0,0.0,0.0,0.0,0.0,0.0,0.0,0.0,0.0,0.0,0.0,0.0,0.0,0.0,0.0,0.0,1.276,1.415,1.419,1.4674,1.4994,1.4994,1.4067,1.3254,1.2663,1.024,0.0,0.0,0.0,0.0,0.0,0.0,0.0,0.0,0.0,0.0,0.0,0.0,0.0,0.0,0.0,0.0,0.0,0.0,0.0,0.0,0.0,0.0,0.0,0.0,0.0,0.0,0.0,0.0,0.0,0.0,0.0,0.0,0.0,0.0,0.0,0.0,0.0,0.0,0.0,0.0,0.0,0.0,0.0,0.0,0.0,0.0,0.0,0.0,0.0,0.0,0.0,0.0,0.0,0.0,0.0,0.0,0.0,0.0,0.0,0.0,0.0,0.0,0.0,0.0,0.0,0.0,0.0,0.0,0.0,0.0,0.0,0.0,0.0,0.0,0.0,0.0,0.0,0.0,0.0,0.0,0.0,0.0,0.0,0.0,0.0,0.0,0.0,0.0,0.0,0.0,0.0,0.0,0.0,0.0,0.0,0.0,0.0,0.0,0.0,0.0,0.0,0.0,1.2958,1.4178,0.0,1.4835,1.5108,1.5108,1.4733,1.3843,1.2289,0.0,0.0,0.0,0.0,0.0,0.0,0.0,0.0,0.0,0.0,0.0,0.0,0.0,0.0,0.0,0.0,0.0,0.0,0.0,0.0,0.0,0.0,0.0,0.0,0.0,0.0,0.0,0.0,0.0,0.0,0.0,0.0,0.0,0.0,0.0,0.0,0.0,0.0,0.0,0.0,0.0,0.0,0.0,0.0,0.0,0.0,0.0,0.0,0.0,0.0,0.0,0.0,0.0,0.0,0.0,0.0,0.0,0.0,0.0,0.0,0.0,0.0,0.0,0.0,0.0,0.0,0.0,0.0,0.0,0.0,0.0,0.0,0.0,0.0,0.0,0.0,0.0,0.0,0.0,0.0,0.0,0.0,0.0,0.0,0.0,0.0,0.0,0.0,0.0,0.0,0.0,0.0,0.0,0.0,0.0,0.0,0.0,0.0,0.0,0.0,0.0,0.0,1.183,1.3604,1.4796,0.0,1.5288,1.5446,1.5446,1.4838,1.3741,1.2075,0.0,0.0,0.0,0.0,0.0,0.0,0.0,0.0,0.0,0.0,0.0,0.0,0.0,0.0,0.0,0.0,0.0,0.0,0.0,0.0,0.0,0.0,0.0,0.0,0.0,0.0,0.0,0.0,0.0,0.0,0.0,0.0,0.0,0.0,0.0,0.0,0.0,0.0,0.0,0.0,0.0,0.0,0.0,0.0,0.0,0.0,0.0,0.0,0.0,0.0,0.0,0.0,0.0,0.0,0.0,0.0,0.0,0.0,0.0,0.0,0.0,0.0,0.0,0.0,0.0,0.0,0.0,0.0,0.0,0.0,0.0,0.0,0.0,0.0,0.0,0.0,0.0,0.0,0.0,0.0,0.0,0.0,0.0,0.0,0.0,0.0,0.0,0.0,0.0,0.0,0.0,0.0,0.0,0.0,0.0,0.0,0.0,0.0,0.0,0.0,0.0,0.0,1.2652,1.4788,1.62,1.62,1.62,1.62,1.62,1.4253,1.2758,0.0,0.0,0.0,0.0,0.0,0.0,0.0,0.0,0.0,0.0,0.0,0.0,0.0,0.0,0.0,0.0,0.0,0.0,0.0,0.0,0.0,0.0,0.0,0.0,0.0,0.0,0.0,0.0,0.0,0.0,0.0,0.0,0.0,0.0,0.0,0.0,0.0,0.0,0.0,0.0,0.0,0.0,0.0,0.0,0.0,0.0,0.0,0.0,0.0,0.0,0.0,0.0,0.0,0.0,0.0,0.0,0.0,0.0,0.0,0.0,0.0,0.0,0.0,0.0,0.0,0.0,0.0,0.0,0.0,0.0,0.0,0.0,0.0,0.0,0.0,0.0,0.0,0.0,0.0,0.0,0.0,0.0,0.0,0.0,0.0,0.0,0.0,0.0,0.0,0.0,0.0,0.0,0.0,0.0,0.0,0.0,0.0,0.0,0.0,0.0,0.0,0.0,0.0,1.2869,1.4943,1.6328,1.6328,1.6265,1.62,1.62,1.5266,1.3982,1.2267,0.0,0.0,0.0,0.0,0.0,0.0,0.0,0.0,0.0,0.0,0.0,0.0,0.0,0.0,0.0,0.0,0.0,0.0,0.0,0.0,0.0,0.0,0.0,0.0,0.0,0.0,0.0,0.0,0.0,0.0,0.0,0.0,0.0,0.0,0.0,0.0,0.0,0.0,0.0,0.0,0.0,0.0,0.0,0.0,0.0,0.0,0.0,0.0,0.0,0.0,0.0,0.0,0.0,0.0,0.0,0.0,0.0,0.0,0.0,0.0,0.0,0.0,0.0,0.0,0.0,0.0,0.0,0.0,0.0,0.0,0.0,0.0,0.0,0.0,0.0,0.0,0.0,0.0,0.0,0.0,0.0,0.0,0.0,0.0,0.0,0.0,0.0,0.0,0.0,0.0,0.0,0.0,0.0,0.0,0.0,0.0,0.0,0.0,0.0,0.0,0.0,0.0,1.2972,1.5042,1.6436,1.6436,1.6371,1.6306,1.6306,1.581,1.469,1.273,0.0,0.0,0.0,0.0,0.0,0.0,0.0,0.0,0.0,0.0,0.0,0.0,0.0,0.0,0.0,0.0,0.0,0.0,0.0,0.0,0.0,0.0,0.0,0.0,0.0,0.0,0.0,0.0,0.0,0.0,0.0,0.0,0.0,0.0,0.0,0.0,0.0,0.0,0.0,0.0,0.0,0.0,0.0,0.0,0.0,0.0,0.0,0.0,0.0,0.0,0.0,0.0,0.0,0.0,0.0,0.0,0.0,0.0,0.0,0.0,0.0,0.0,0.0,0.0,0.0,0.0,0.0,0.0,0.0,0.0,0.0,0.0,0.0,0.0,0.0,0.0,0.0,0.0,0.0,0.0,0.0,0.0,0.0,0.0,0.0,0.0,0.0,0.0,0.0,0.0,0.0,0.0,0.0,0.0,0.0,0.0,0.0,0.0,0.0,0.0,0.0,0.0,1.2972,1.5101,1.65,1.65,1.65,1.65,1.65,1.6019,1.504,1.3466,0.0,0.0,0.0,0.0,0.0,0.0,0.0,0.0,0.0,0.0,0.0,0.0,0.0,0.0,0.0,0.0,0.0,0.0,0.0,0.0,0.0,0.0,0.0,0.0,0.0,0.0,0.0,0.0,0.0,0.0,0.0,0.0,0.0,0.0,0.0,0.0,0.0,0.0,0.0,0.0,0.0,0.0,0.0,0.0,0.0,0.0,0.0,0.0,0.0,0.0,0.0,0.0,0.0,0.0,0.0,0.0,0.0,0.0,0.0,0.0,1.119,1.0416,0.0,0.0,0.0,0.0,0.0,0.0,0.0,0.0,0.0,0.0,0.0,0.0,0.0,0.0,0.0,0.0,0.0,0.0,0.0,0.0,0.0,0.0,0.0,0.0,0.0,0.0,0.0,0.0,0.0,0.0,0.0,0.0,0.0,0.0,0.0,0.0,0.0,0.0,0.0,0.0,1.3031,1.5101,1.65,1.65,1.65,1.65,1.65,1.6019,1.5367,1.4582,1.3165,0.0,0.0,0.0,0.0,0.0,0.0,0.0,0.0,0.0,0.0,0.0,0.0,0.0,0.0,0.0,0.0,0.0,0.0,0.0,0.0,0.0,0.0,0.0,0.0,0.0,0.0,0.0,0.0,0.0,0.0,0.0,0.0,0.0,0.0,0.0,0.0,0.0,0.0,0.0,0.0,0.0,0.0,0.0,0.0,0.0,0.0,0.0,0.0,0.0,0.0,0.0,0.0,0.0,0.0,0.0,0.0,0.0,0.0,0.0,1.3785,1.278,0.0,0.0,0.0,0.0,0.0,0.0,0.0,0.0,0.0,0.0,0.0,0.0,0.0,0.0,0.0,0.0,0.0,0.0,0.0,0.0,0.0,0.0,0.0,0.0,0.0,0.0,0.0,0.0,0.0,0.0,0.0,0.0,0.0,0.0,0.0,0.0,0.0,0.0,0.0,0.0,1.3483,1.5316,1.65,1.65,1.65,1.65,1.65,1.6435,1.6171,1.5646,1.4585,0.0,0.0,0.0,0.0,0.0,0.0,0.0,0.0,0.0,0.0,0.0,0.0,0.0,0.0,0.0,0.0,0.0,0.0,0.0,0.0,0.0,0.0,0.0,0.0,0.0,0.0,0.0,0.0,0.0,0.0,0.0,0.0,0.0,0.0,0.0,0.0,0.0,0.0,0.0,0.0,0.0,0.0,0.0,0.0,0.0,0.0,0.0,0.0,0.0,0.0,0.0,0.0,0.0,1.8677,1.9157,1.9157,1.9157,1.9333,1.951,1.6806,1.5825,1.6019,1.4481,0.0,0.0,0.0,0.0,0.0,0.0,0.0,0.0,0.0,0.0,0.0,0.0,0.0,0.0,0.0,0.0,0.0,0.0,0.0,0.0,0.0,0.0,1.5687,1.5642,1.6731,1.6859,1.3538,0.0,0.0,0.0,0.0,0.0,0.0,0.0,0.0,0.0,0.0,0.0,1.426,1.5739,1.6672,1.6672,1.6672,1.6665,1.665,1.6985,1.7072,1.6738,1.6082,1.5485,0.0,0.0,0.0,0.0,0.0,0.0,0.0,0.0,0.0,0.0,0.0,0.0,0.0,0.0,0.0,0.0,0.0,0.0,0.0,0.0,0.0,0.0,0.0,0.0,0.0,0.0,0.0,0.0,0.0,0.0,0.0,0.0,1.2486,1.3128,0.0,0.0,0.0,0.0,0.0,0.0,0.0,0.0,0.0,0.0,0.0,0.0,0.0,1.801,1.945,2.0194,2.1093,2.2069,2.2683,2.2991,2.2991,2.2991,2.2731,2.2265,2.1833,0.0,1.7777,1.6833,0.0,0.0,0.0,0.0,0.0,0.0,0.0,0.0,0.0,0.0,0.0,0.0,0.0,0.0,0.0,0.0,0.0,0.0,0.0,0.0,0.0,0.0,1.8141,1.8141,1.8295,1.8321,1.7808,1.5676,1.3674,1.3056,1.2132,1.1242,0.0,0.0,0.0,0.0,0.0,0.0,1.543,1.6611,1.7297,1.7297,1.7314,1.7332,1.722,1.725,1.747,1.7871,1.7581,1.7135,1.6599,1.5664,0.0,0.0,0.0,0.0,0.0,0.0,0.0,0.0,0.0,0.0,0.0,0.0,0.0,0.0,0.0,0.0,0.0,0.0,0.0,0.0,0.0,0.0,0.0,0.0,0.0,0.0,0.0,0.0,0.0,1.2785,1.3865,1.4431,1.4541,1.4318,0.0,0.0,0.0,0.0,0.0,0.0,0.0,0.0,0.0,1.9317,2.0192,2.1017,2.1764,2.2637,2.3302,2.382,2.4356,2.4582,2.4582,2.4582,2.4453,2.4192,2.4339,2.335,2.1595,1.963,1.8272,1.7408,0.0,0.0,0.0,0.0,1.6987,1.7316,1.8022,1.786,1.7333,1.7347,0.0,0.0,0.0,0.0,0.0,0.0,0.0,1.7801,1.8697,1.9777,2.0532,2.0188,2.0372,2.0527,2.0091,1.8806,1.7286,1.5664,1.4662,1.3582,1.2096,1.2112,0.0,0.0,0.0,1.535,1.679,1.7834,1.8461,1.8461,1.8433,1.8371,1.8337,1.8213,1.8238,1.8472,1.8587,1.855,1.8324,1.7239,1.62,0.0,0.0,0.0,0.0,0.0,0.0,0.0,0.0,0.0,0.0,0.0,0.0,0.0,0.0,0.0,0.0,0.0,0.0,0.0,0.0,0.0,0.0,0.0,0.0,0.0,0.0,0.0,0.0,1.4183,1.5259,1.5673,1.6499,1.6556,0.0,0.0,0.0,0.0,0.0,0.0,1.9107,2.0475,2.1508,2.2155,2.3111,2.3783,2.4068,2.4864,2.5349,2.551,2.5917,2.5987,2.5859,2.5859,2.5781,2.5685,2.5812,2.5469,2.4653,2.2257,2.0914,2.0321,1.9804,1.947,1.9368,1.9829,1.9959,2.0088,2.1043,2.0885,2.0347,2.0479,1.9855,1.8934,1.8369,0.0,0.0,0.0,0.0,2.0562,2.1245,2.2062,2.2571,2.2112,2.2379,2.2538,2.1983,2.1612,2.0613,1.8074,1.7093,1.612,1.4444,1.455,0.0,0.0,0.0,1.7344,1.8504,1.9271,1.9692,1.9692,1.9663,1.9607,1.9564,1.9271,1.9142,1.9276,1.9405,1.9465,1.9501,1.8572,1.7742,1.7045,0.0,0.0,0.0,0.0,0.0,0.0,0.0,0.0,0.0,0.0,0.0,0.0,0.0,0.0,0.0,0.0,0.0,0.0,0.0,0.0,0.0,0.0,0.0,0.0,0.0,0.0,0.0,0.0,0.0,1.712,1.8542,0.0,0.0,0.0,0.0,1.9936,2.009,2.0914,2.2728,2.3404,2.406,2.4779,2.5349,2.6184,2.7281,2.7333,2.7646,2.8203,2.8229,2.7934,2.7378,2.7378,2.7124,2.6634,2.6634,2.6295,2.5662,2.4409,2.3459,2.2693,2.2208,2.1638,2.1094,2.1173,2.1199,2.1251,2.1433,2.1821,2.2355,2.2845,2.264,2.2152,2.2055,2.167,0.0,0.0,2.3093,2.3211,2.3759,2.3985,2.3988,2.3963,2.3991,2.3991,2.3938,2.3834,2.2876,2.002,1.9024,1.861,1.8413,0.0,1.8437,1.9006,1.9139,1.9559,2.0785,2.0889,2.0822,2.0822,2.0929,2.0944,2.0822,2.0209,2.006,2.0552,1.9968,1.9629,1.969,1.963,1.9235,1.851,1.6561,0.0,0.0,0.0,0.0,0.0,0.0,0.0,0.0,0.0,0.0,0.0,0.0,0.0,0.0,0.0,0.0,0.0,0.0,0.0,0.0,0.0,0.0,0.0,0.0,0.0,0.0,0.0,0.0,1.9943,2.1146,0.0,2.0885,2.1277,2.1745,2.2134,2.289,2.3933,2.5318,2.5944,2.6674,2.774,2.7941,2.8255,2.8647,2.8647,2.8752,2.8996,2.8996,2.8856,2.8647,2.8647,2.8543,2.8368,2.7975,2.7654,2.7419,2.6634,2.5683,2.4762,2.4584,2.4376,2.4164,2.4194,2.449,2.4842,2.4897,2.4833,2.4651,2.4396,2.438,2.4452,2.4435,2.4282,2.4328,2.5188,2.5399,2.5502,2.5712,2.5753,2.5704,2.5283,2.5203,2.5091,2.4749,2.4638,2.4201,2.279,2.1979,2.1313,2.0517,2.0373,2.0277,2.0007,2.0337,2.085,2.1647,2.1988,2.2169,2.2169,2.2135,2.2093,2.2055,2.105,2.0516,2.0688,2.0042,1.9672,1.9708,1.9708,1.957,1.9313,1.7772,1.6173,0.0,0.0,0.0,0.0,0.0,0.0,0.0,0.0,0.0,0.0,0.0,0.0,0.0,0.0,0.0,0.0,0.0,0.0,0.0,0.0,0.0,0.0,0.0,0.0,0.0,0.0,2.1407,2.1773,2.313,2.3864,2.3317,2.3971,2.4543,2.4936,2.5725,2.6562,2.753,2.7915,2.8464,2.9284,2.931,2.9379,2.9562,2.9562,2.9562,2.9562,2.9562,2.9457,2.931,2.931,2.931,2.9284,2.8891,2.8673,2.8647,2.8281,2.768,2.6948,2.6524,2.6237,2.6143,2.6364,2.6582,2.6879,2.7296,2.7201,2.6822,2.6309,2.6505,2.6901,2.6692,2.6602,2.6722,2.7141,2.7111,2.6947,2.6983,2.6997,2.6919,2.6496,2.6416,2.6328,2.5949,2.5862,2.5773,2.5366,2.4291,2.3247,2.2614,2.2563,2.2466,2.2125,2.2262,2.255,2.2885,2.3065,2.315,2.315,2.305,2.3002,2.3002,2.1784,2.1036,2.1036,2.0217,1.9708,1.9708,1.9708,1.9708,1.9708,1.852,1.7318,1.6106,0.0,0.0,0.0,0.0,0.0,0.0,0.0,0.0,0.0,0.0,0.0,0.0,0.0,0.0,0.0,0.0,0.0,0.0,0.0,0.0,0.0,0.0,0.0,1.9202,2.1067,2.2557,2.2557,2.454,2.572,2.5175,2.6143,2.7242,2.8368,2.8446,2.8708,2.9274,2.9301,2.9301,2.9362,2.9362,2.9588,3.0127,3.0127,3.0127,3.0127,3.0127,2.9876,2.9362,2.9362,2.9362,2.9398,2.9336,2.9336,2.9371,2.9336,2.931,2.9205,2.7994,2.721,2.6842,2.7485,2.739,2.7113,2.834,2.8736,2.876,2.8657,2.9056,2.9502,2.8816,2.8637,2.8637,2.8637,2.8184,2.7645,2.7645,2.7645,2.7615,2.7615,2.7615,2.7585,2.7585,2.7585,2.7585,2.7585,2.5766,2.4351,2.4878,2.4951,2.5091,2.5544,2.5053,0.0,2.4634,2.4059,2.364,2.364,2.361,2.361,2.361,2.2443,2.1695,2.1695,2.0456,1.9708,1.9738,1.9738,1.9738,1.9738,1.8846,1.8292,1.8154,0.0,0.0,0.0,0.0,0.0,0.0,0.0,0.0,0.0,0.0,0.0,0.0,0.0,0.0,0.0,0.0,0.0,0.0,0.0,0.0,0.0,2.3193,2.4078,2.2851,2.4397,2.5765,2.6059,2.7419,2.8255,2.8132,2.842,2.8734,2.9048,2.9039,2.9274,2.9839,2.9865,3.0085,3.0503,3.0529,3.0581,3.0738,3.0738,3.0738,3.0738,3.0738,3.0686,3.0529,3.0529,3.0808,3.1263,3.0313,3.02,3.0618,2.968,2.9601,2.9981,2.8652,2.8384,2.8637,2.8368,2.8796,2.9515,2.9866,3.0,2.9939,2.9478,2.9472,2.9562,2.9382,2.9352,2.9352,2.9352,2.9202,2.9052,2.9052,2.8693,2.8308,2.8308,2.7974,2.7585,2.7585,2.7585,2.7585,2.7585,2.7085,2.6519,2.6198,2.6109,2.6009,2.5651,2.5465,2.5322,2.5322,2.4724,2.4335,2.4335,2.3909,2.361,2.361,2.2443,2.1695,2.1695,2.0456,1.9899,2.0408,2.0512,2.0587,2.063,2.027,1.9862,0.0,0.0,0.0,0.0,0.0,0.0,0.0,0.0,0.0,0.0,0.0,0.0,0.0,0.0,0.0,0.0,0.0,0.0,0.0,0.0,0.0,0.0,2.6561,2.7539,2.7428,2.7546,2.7835,2.8313,2.8926,2.9379,2.9614,2.964,2.9745,2.998,3.0006,3.0137,3.0477,3.0503,3.0634,3.0973,3.0973,3.0973,3.0973,3.0973,3.0973,3.0973,3.0973,3.1161,3.1468,3.1468,3.1846,3.2478,3.1424,3.137,3.1956,3.0913,3.0894,3.1413,0.0,0.0,0.0,0.0,3.0254,3.0925,3.0918,3.0913,3.0853,3.0522,3.0402,3.0402,3.0486,3.0248,2.9981,3.0093,2.9856,2.9621,2.9621,2.9295,2.9022,2.9075,2.8749,2.8389,2.8222,2.8132,2.8046,2.7826,2.7765,0.0,2.7254,2.7065,2.6896,2.6482,2.6183,2.6033,2.6033,2.5412,2.4903,2.4634,2.429,2.3974,2.3726,2.2806,0.0,0.0,0.0,2.0839,2.1231,2.1477,0.0,0.0,0.0,0.0,0.0,0.0,0.0,0.0,2.1842,2.2111,0.0,0.0,0.0,0.0,0.0,0.0,0.0,0.0,0.0,0.0,0.0,0.0,0.0,0.0,0.0,0.0,2.9811,3.0632,3.2077,3.0485,2.9342,2.9794,2.968,2.9702,3.0226,3.0241,3.0487,3.1022,3.1075,3.1075,3.1037,3.1011,0.0,0.0,0.0,3.1123,3.1161,3.1235,3.1272,3.1283,3.131,3.1653,3.229,3.229,3.2684,3.3353,3.2613,3.272,3.3318,3.2577,3.272,3.3205,3.144,3.111,3.1659,3.1724,3.1722,3.1658,3.1658,0.0,0.0,3.1568,3.1568,3.1597,3.1771,3.1291,3.0726,3.0893,3.0416,2.9886,2.9886,2.9798,2.9793,2.9927,2.9786,2.9549,2.9182,2.8975,2.8681,2.8207,2.8025,2.7995,2.7995,2.779,2.7665,2.7665,2.713,2.6771,2.6771,2.6171,2.5541,2.4919,2.489,0.0,2.4096,2.3546,2.3244,2.3244,2.2706,2.2411,2.243,2.2904,2.3599,2.4544,2.5041,2.5689,2.6584,2.7441,2.7861,2.7794,2.498,2.4779,0.0,0.0,0.0,0.0,0.0,0.0,0.0,0.0,0.0,0.0,0.0,0.0,0.0,0.0,0.0,3.0694,3.1947,3.2973,3.384,3.2849,3.1908,3.1419,3.1083,3.1019,3.1262,3.1151,3.1167,3.1447,3.1485,3.141,3.1235,3.1235,3.1161,3.1011,3.1579,3.1992,3.2137,3.2541,3.2897,3.3185,3.3073,0.0,3.3394,3.3394,3.3808,3.4543,3.3705,3.3842,3.4509,3.3705,3.3842,3.4455,3.3268,3.2695,3.2616,3.3151,3.3066,3.2699,3.2699,3.2366,3.1912,3.1912,3.1912,3.1912,3.194,3.1849,0.0,3.1756,3.1667,3.1518,3.1518,3.1124,3.0758,3.0785,3.0361,2.9906,2.9837,2.9355,2.8935,2.8839,2.8359,2.7995,2.7995,2.797,2.7915,2.7915,2.7824,2.7733,2.7733,2.7128,2.6667,2.6546,2.6084,2.572,2.5591,2.4984,2.4611,2.4611,2.4833,2.5009,2.5143,2.6106,2.6521,2.6243,2.7085,2.7406,2.7083,2.8638,2.937,2.937,2.8728,2.9011,0.0,0.0,0.0,0.0,0.0,0.0,0.0,0.0,0.0,0.0,0.0,2.678,2.8104,0.0,3.1459,3.3152,3.3995,3.4698,3.5366,3.4706,3.383,3.297,3.2046,3.179,3.2569,3.1909,3.179,3.2605,3.2345,3.2237,3.247,3.2506,3.247,3.2362,3.272,3.2939,3.3045,3.3325,3.3533,3.3705,3.3636,3.3871,3.4312,3.4312,3.4714,3.5429,3.4614,3.4714,3.5429,3.5041,3.5106,3.54,3.4909,3.4373,3.3963,3.4272,3.4001,3.3484,3.3484,3.3271,3.2938,3.2604,3.2482,3.245,3.2172,3.2053,3.2025,3.2081,3.2053,3.1996,3.1996,3.1754,3.1508,3.1591,3.1293,3.0955,3.0754,3.0365,3.0033,2.975,2.9164,2.8706,2.8706,2.8431,2.8168,2.802,2.7995,2.7995,2.7995,2.7716,2.7376,2.7042,2.6778,2.6466,2.6131,2.584,2.5702,2.5702,2.6143,2.6409,2.6504,2.7462,2.8017,2.8096,2.9137,2.9546,2.9197,3.0844,3.1409,3.1072,3.1813,3.2088,0.0,0.0,0.0,0.0,0.0,0.0,0.0,0.0,2.4769,2.7242,2.8719,3.0074,3.1674,3.2564,3.3583,3.5399,3.5676,3.5861,3.6415,3.5879,3.5142,3.4581,3.3066,3.2561,3.3705,3.2747,3.2533,3.3739,3.3318,3.3213,3.3739,3.3774,3.3739,3.3705,3.3842,3.3945,3.3979,3.4081,3.4182,3.425,3.4216,3.4547,3.5204,3.5204,3.5527,3.6068,3.5462,3.5559,3.61,3.6068,3.6068,3.61,3.6068,3.5734,3.5308,3.5277,3.4851,3.4303,3.4303,3.4211,3.4028,3.348,3.3297,3.3175,3.2616,3.2377,3.2262,3.2249,3.2163,3.2081,3.2081,3.2081,3.2079,3.2219,3.2135,3.2013,3.1651,3.1409,3.111,3.0694,3.0048,2.9587,2.9587,2.915,2.8646,2.8149,2.8094,2.8094,2.8094,2.8094,2.7881,2.7326,2.7455,2.7381,2.6939,2.6998,2.7065,2.7065,2.7517,2.7763,2.7763,2.8635,2.9449,3.0029,3.1086,3.163,3.163,3.2949,3.3322,3.2767,3.41,3.4216,1.9871,2.098,2.2305,2.364,2.441,2.598,0.0,0.0,3.0808,3.2321,3.3244,3.3889,3.4104,3.472,3.5399,3.623,3.6384,3.6415,3.6476,3.5879,3.5593,3.6133,3.4747,3.3842,3.4211,3.3939,3.3842,3.4211,3.4177,3.4075,3.3979,3.3979,3.3876,3.3705,3.438,3.4813,3.4945,3.5464,3.5879,3.6164,3.6006,3.607,3.632,3.632,3.6352,3.6414,3.6352,3.6352,3.6414,3.6258,3.6289,3.6414,3.6258,3.6228,3.6322,3.6135,3.5738,3.5338,3.5338,3.4938,3.4415,3.4354,3.4323,3.42,3.3462,3.3277,3.3095,3.2539,3.2385,3.2358,3.2358,3.2358,3.2355,3.2355,3.2385,3.2355,3.229,3.1797,3.1366,3.1305,3.0751,3.0294,3.0294,3.0233,2.9771,2.8547,2.8363,2.8363,2.8363,2.8363,2.8332,2.824,2.8639,2.9039,2.937,2.9414,2.9414,2.9414,2.9856,3.0108,3.0108,3.1247,3.1894,3.1996,3.276,3.3152,3.3152,3.3964,3.4336,3.4269,3.5115,3.5059,2.3302,2.4502,0.0,0.0,2.8073,2.9458,3.1859,3.2167,3.2475,3.426,3.4874,3.5213,3.5614,3.5861,3.6168,0.0,3.6507,3.6507,3.6507,3.6226,3.6011,3.5922,3.5637,3.5497,3.5561,3.4714,3.4581,3.5497,3.5204,3.5077,3.5432,3.5464,3.5432,3.5305,3.5655,3.5847,3.5911,3.6163,3.6352,3.6507,3.6414,3.6414,3.6507,3.6507,3.6507,3.6507,3.6507,3.6507,3.6476,3.6414,3.6414,3.6476,3.6414,3.6414,3.6476,3.6414,3.623,3.6076,3.6076,3.5891,3.5614,3.5213,3.509,3.4967,3.4229,3.3737,3.3336,3.3059,3.269,3.2382,3.2382,3.2382,3.2382,3.2382,3.2382,3.2382,3.2382,3.2167,3.1982,3.1982,3.1428,3.0997,3.0997,3.0658,3.033,3.0092,2.941,2.8972,2.8972,2.8658,2.8501,2.8779,2.9212,2.9595,2.9772,2.9793,2.9955,3.0421,3.0892,3.1326,3.1745,3.2538,3.2949,3.2949,3.366,3.4032,3.4032,3.4776,3.5148,3.5182,3.5926,3.6129,2.5281,0.0,0.0,2.9371,3.0966,3.2441,3.309,3.3398,3.3952,3.5491,3.5799,3.5922,3.6415,3.6507,3.6507,3.6507,3.6507,3.6507,3.6507,3.6507,3.6322,3.583,3.6199,3.6507,3.6507,3.5529,3.5367,3.6414,3.6006,3.5943,3.6445,3.6507,3.6569,3.6753,3.6784,3.6846,3.7061,3.7061,3.6969,3.6784,3.6784,3.6661,3.6507,3.6507,3.6507,3.6507,3.6507,3.6507,3.6507,3.6507,3.6507,3.6507,3.6507,3.6507,3.6507,3.6507,3.6507,3.6507,3.6507,3.6507,3.6415,3.5922,3.5799,3.5675,3.4998,3.4383,3.3921,3.3767,3.3213,3.2659,3.2659,3.2536,3.2382,3.2382,3.2382,3.2382,3.2382,3.2382,3.2382,3.2382,3.2013,3.1697,3.1858,3.1481,3.1353,3.1879,3.1085,3.0261,2.9956,2.9465,2.939,3.0037,3.0399,3.0642,3.0773,3.0773,3.1024,3.1572,3.1911,3.235,3.2872,3.3388,3.3694,3.3694,3.4438,3.481,3.481,3.5329,3.5701,3.596,3.6524,3.6931,0.0,0.0,2.952,3.0202,3.2413,3.4597,3.5275,3.5891,3.6384,3.6445,3.6476,3.6476,3.6507,3.6507,3.6507,3.6507,3.6507,3.6507,3.6507,3.6507,3.6476,3.6476,3.6476,3.6507,3.6507,3.6445,3.6445,3.6507,3.6476,3.6507,3.6507,3.6507,3.6784,3.7461,3.7461,3.78,3.8446,3.8446,3.8108,3.7461,3.7461,3.7123,3.6507,3.6507,3.6507,3.6507,3.6507,3.6507,3.6507,3.6507,3.6507,3.6507,3.6507,3.6507,3.6507,3.6507,3.6507,3.6507,3.6507,3.6507,3.6507,3.6476,3.6476,3.6322,3.5645,3.546,3.5306,3.4659,3.3921,3.3367,3.3367,3.2875,3.2382,3.2382,3.2382,3.2382,3.2382,3.2382,3.2382,3.2382,3.2382,3.2544,3.3077,3.3124,3.3276,3.3846,3.3331,3.2482,3.1297,3.1128,3.151,3.2475,3.2586,3.2795,3.3237,3.328,3.3313,3.3313,3.3334,3.3368,3.3368,3.41,3.4472,3.4472,3.5216,3.5566,3.5566,3.56,3.5994,3.6761,3.6795,3.7178,0.0,0.0,3.1089,3.2721,3.4166,3.5337,3.5984,3.6322,3.6353,3.5953,3.546,3.4999,3.4537,3.4445,3.4599,3.509,3.5552,3.5984,3.6445,3.6507,3.6322,3.5861,3.623,0.0,3.5891,3.623,0.0,3.6507,3.6507,3.6692,3.7123,3.7153,3.7461,3.8138,3.8169,3.8292,3.8508,3.8508,3.8385,3.8169,3.8169,3.78,3.7153,3.7153,3.6907,3.6507,3.6507,3.6507,3.6507,3.6507,3.6507,3.6507,3.6507,3.6507,3.6507,3.6507,3.6507,3.6507,3.6507,3.6507,3.6507,3.6507,3.6507,3.6445,3.623,3.583,3.546,3.5244,3.4659,3.4135,3.4135,3.3981,3.3882,3.4304,3.4387,3.4372,3.4303,3.4229,3.4069,3.3571,3.3475,3.3527,3.3707,3.3726,3.3903,3.4456,3.364,3.2684,3.183,3.1992,3.2315,3.2652,3.2971,3.322,3.3402,3.3423,3.3626,3.41,3.4134,3.437,3.4822,3.5115,3.525,3.525,3.5464,3.56,3.56,3.6129,3.6535,3.6829,3.7811,3.8396,2.9396,3.1089,3.2564,3.4412,3.5367,3.5953,3.6384,3.6292,3.5922,3.5275,3.4412,3.3611,3.3121,3.2844,3.3059,3.432,3.4874,3.546,3.6353,3.6507,3.6322,3.5891,3.6445,3.6692,0.0,0.0,0.0,3.6507,3.6722,3.7061,3.7492,3.7738,3.8169,3.8846,3.8877,3.9,3.9182,3.9182,3.909,3.8877,3.8631,3.8292,3.7861,3.7615,3.7246,3.6846,3.6599,3.6507,3.6507,3.6507,3.6507,3.6507,3.6507,3.6507,3.6507,3.6507,3.6507,3.6507,3.6507,3.6507,3.6507,3.6507,3.6507,3.6507,3.6507,3.6199,3.5861,3.5861,3.5398,3.4934,3.5109,3.5009,3.4966,3.5582,3.5719,3.57,3.559,3.5571,3.5383,3.4903,3.4806,3.4792,3.4708,3.462,3.4673,3.5038,3.4419,3.3769,3.3354,3.3379,3.3516,3.3695,3.3994,3.4201,3.4201,3.4201,3.4404,3.4878,3.4878,3.5115,3.5566,3.56,3.56,3.56,3.56,3.5735,3.6028,3.6558,3.7066,3.7608,3.8565,3.914,3.112,3.2475,3.3829,3.5183,3.6014,3.6476,3.6445,3.5953,3.5244,3.4443,3.3152,3.2167,3.2044,0.0,3.1948,3.3981,3.4443,3.5028,3.6322,3.6507,3.6538,0.0,0.0,0.0,0.0,0.0,0.0,3.663,0.0,3.7523,3.7615,3.82,3.8877,3.9521,3.9521,3.9859,4.0474,4.0505,4.0166,3.9521,3.8939,3.86,3.8539,3.7892,3.7584,3.7523,3.6846,3.6538,3.6538,3.6507,3.6507,3.6507,3.6507,3.6507,3.6507,3.6507,3.6507,3.6507,3.6507,3.6507,3.6507,3.6507,3.6507,3.6507,3.6507,3.6507,3.6507,3.6507,3.6045,3.5733,3.6292,3.5989,3.5705,3.6297,3.643,3.6456,3.645,3.645,3.6417,3.6385,3.6385,3.6345,3.6141,3.5897,3.5701,3.5701,3.5701,3.5701,3.56,3.5155,3.5038,3.5554,3.56,3.56,3.56,3.56,3.56,3.56,3.56,3.56,3.569,3.5667,3.5667,3.5723,3.5701,3.6096,3.6863,3.6897,3.7642,3.9029,3.9063,3.9436,3.2382,3.3891,3.5153,3.6014,3.6353,3.6353,3.5861,3.5244,3.4135,3.1921,3.0381,2.8965,2.7396,0.0,0.0,3.1305,3.3583,0.0,3.6384,3.6938,0.0,3.7246,0.0,3.8262,3.8262,3.8262,0.0,0.0,3.7677,3.7954,3.8939,3.9154,3.9521,4.0228,4.0228,4.032,4.0505,4.0505,4.0413,4.0228,4.0074,3.9705,3.9247,3.9093,3.8723,3.8231,3.7554,3.7246,3.7215,3.6692,3.6507,3.6507,3.6507,3.6507,3.6507,3.6507,3.6507,3.6507,3.6507,3.6507,3.6507,3.6507,3.6507,3.6507,3.6507,3.6507,3.6507,3.6507,3.6722,3.6957,3.7135,3.7355,3.7732,3.8307,3.844,3.8441,3.8321,3.8321,3.8129,3.7593,3.7492,3.7483,3.7403,3.7354,3.729,3.729,3.729,3.6907,3.5735,3.5487,3.5464,3.56,3.56,3.56,3.56,3.56,3.56,3.56,3.56,3.5915,3.6605,3.6547,3.6785,3.7454,3.736,3.7415,3.7618,3.8159,3.8681,3.9151,3.9695,4.0068,3.3921,3.5091,3.6014,3.6384,3.6261,3.5707,3.4414,3.3367,3.1921,2.9212,2.755,0.0,2.5066,2.6626,0.0,0.0,0.0,0.0,3.6322,3.7061,3.7492,0.0,3.8354,0.0,3.8939,3.8939,3.9062,0.0,3.8785,3.8723,3.9459,3.9767,4.0105,4.0474,4.0505,4.0505,4.0505,4.0505,4.0505,4.0505,4.0505,4.029,3.992,3.9613,3.9275,3.8908,3.8231,3.7769,3.7461,3.7092,3.694,3.6907,3.6907,3.7058,3.7237,3.6967,3.7058,3.7237,3.6967,3.7058,3.7237,3.6967,3.6907,3.6937,3.7208,3.7266,3.7266,3.7266,3.7533,3.7854,3.8112,3.8474,3.8941,3.9566,3.9747,3.9741,3.967,3.9676,3.9515,3.9035,3.8672,3.8468,3.8468,3.8245,3.8088,3.8088,3.8088,3.7749,3.6899,3.6718,3.6718,3.6797,3.6763,3.6763,3.6763,3.6718,3.6718,3.6797,3.6718,3.6944,3.7558,3.7489,3.7693,3.8172,3.8101,3.8224,3.8564,3.8972,3.9394,3.9773,4.0217,4.0387,3.546,3.6076,3.6507,3.6569,3.6014,3.4873,3.2777,3.1204,2.9391,2.661,0.0,2.3999,2.3825,2.5118,2.7119,2.971,0.0,3.4137,3.6199,3.7153,3.7646,3.7646,3.8816,3.9613,3.9613,3.9613,3.9859,4.0443,3.9951,3.9613,3.9613,4.0166,4.0505,4.0505,4.0505,4.0505,4.0505,4.0505,4.0505,4.0505,4.0505,4.0505,4.0474,3.989,3.9613,3.9616,3.9038,3.8422,3.7898,3.7901,3.7809,3.7662,3.7662,3.795,3.8222,3.7709,3.7854,3.8222,3.7709,3.7883,3.8222,3.7679,3.7535,3.7621,3.8137,3.8306,3.8306,3.8306,3.839,3.8557,3.9109,3.9401,3.9688,4.0213,4.0412,4.051,4.051,4.051,4.0461,4.0337,3.9802,3.936,3.936,3.8945,3.8595,3.8595,3.8595,3.8595,3.8619,3.8331,3.8172,3.8299,3.8322,3.8322,3.8322,3.8195,3.8172,3.8299,3.8195,3.8206,3.8482,3.8459,3.8493,3.8619,3.8595,3.8903,3.9552,3.9552,3.9894,4.0534,4.0534,4.0534,3.626,3.6569,3.6693,3.6877,3.5943,3.4449,3.2395,3.0379,0.0,0.0,2.3367,2.2399,2.1268,2.3496,2.6226,2.8411,0.0,0.0,0.0,0.0,3.8323,0.0,0.0,0.0,0.0,0.0,0.0,0.0,4.0382,4.032,4.032,4.0443,4.0505,4.0505,4.0505,4.0505,4.0505,4.0505,4.0505,4.0505,4.0505,4.0505,4.0505,4.0382,4.032,4.0324,4.0218,4.0101,4.0008,3.9998,3.9594,3.904,3.904,3.8739,3.8278,3.8165,3.8193,3.8278,3.8165,3.8278,3.8418,3.8193,3.8137,3.8165,3.825,3.8306,3.8306,3.8418,3.8832,3.9262,3.948,3.9893,4.0328,4.0436,4.0485,4.051,4.051,4.051,4.051,4.0485,4.0358,4.0256,4.0256,4.0178,4.0134,4.0134,4.0134,4.0158,4.0254,3.9097,3.8265,3.8322,3.8322,3.8322,3.8322,3.8299,3.8299,3.8322,3.8299,3.8584,3.9341,3.9258,3.9566,4.0278,4.0182,4.0202,4.0305,4.0305,4.0422,4.069,4.069,4.069,3.663,3.6785,3.6754,3.6938,3.5689,3.3633,3.0885,0.0,0.0,0.0,2.1672,2.1219,2.0567,0.0,0.0,0.0,0.0,0.0,0.0,0.0,0.0,0.0,0.0,0.0,0.0,0.0,0.0,4.0505,4.0505,4.0505,4.0505,4.0505,4.0505,4.0505,4.0505,4.0505,4.0505,4.0505,4.0505,4.0505,4.0505,4.0505,4.0539,4.0854,4.1024,4.1026,4.1373,4.1341,4.102,4.1035,4.0782,4.0451,4.0451,4.0474,4.0413,3.9721,3.9638,3.9821,3.9181,3.9189,3.9428,3.942,3.9236,3.9022,3.9342,3.942,3.9447,3.9499,3.9765,3.9969,4.0054,4.0328,4.0607,4.0607,4.0655,4.0704,4.0704,4.0655,4.0607,4.0607,4.0607,4.0607,4.0607,4.0655,4.0704,4.0704,4.0704,4.0728,4.0776,4.0133,3.9639,3.9639,3.9639,3.9639,3.9639,3.9568,3.9568,3.9639,3.9568,3.9763,4.0249,4.0201,4.0384,4.0799,4.0728,4.0704,4.0704,4.0704,4.0728,4.0799,4.0799,4.0799,3.6595,3.6814,3.6846,3.706,3.5433,3.2931,2.9616,2.7145,0.0,0.0,2.0544,2.0544,2.0544,0.0,0.0,0.0,0.0,0.0,0.0,0.0,0.0,0.0,0.0,0.0,0.0,0.0,0.0,4.0505,4.0505,4.0505,4.0505,4.0505,4.0505,4.0505,4.0505,4.0505,4.0505,4.0505,4.0505,4.0505,4.0646,4.0715,4.0749,4.1393,4.1754,4.1819,4.2489,4.2505,4.2043,4.2193,4.2121,4.1944,4.1944,4.2173,4.243,4.1372,4.1302,4.1546,4.0425,4.029,4.0591,4.0578,4.0204,3.9868,4.0353,4.051,4.051,4.0534,4.0534,4.0558,4.0583,4.0655,4.0728,4.0728,4.0799,4.0894,4.0894,4.0834,4.0728,4.0728,4.0728,4.0728,4.0728,4.0823,4.0894,4.0894,4.0894,4.0894,4.0894,4.0894,4.0894,4.0894,4.0894,4.0894,4.0894,4.0799,4.0776,4.0894,4.0776,4.0776,4.0894,4.0894,4.0894,4.0894,4.0894,4.0894,4.0894,4.0894,4.0894,4.0894,4.0894,4.0894,3.615,3.6709,3.721,3.7421,3.5398,3.2593,2.9754,0.0,0.0,2.1378,2.0712,2.0676,2.0676,2.1297,2.2848,0.0,0.0,3.0136,0.0,0.0,0.0,0.0,0.0,0.0,0.0,0.0,0.0,4.0505,4.0505,4.0505,4.0505,4.0505,4.0505,4.0505,4.0505,4.0505,4.0505,4.0505,4.0505,4.0505,4.1125,4.1393,4.1426,4.2109,4.2489,4.274,4.341,4.3731,4.3839,4.4439,4.4279,4.3659,4.3659,4.3303,4.2774,4.2654,4.262,4.2544,4.1699,4.1526,4.1547,4.0896,4.0558,4.0436,4.0485,4.051,4.0534,4.0631,4.069,4.0704,4.0823,4.0871,4.0871,4.0871,4.0871,4.0894,4.0894,4.0871,4.0871,4.0871,4.0871,4.0871,4.0871,4.0871,4.0894,4.0894,4.0894,4.0894,4.0894,4.0894,4.0894,4.0894,4.0894,4.0894,4.0894,4.0871,4.0871,4.0894,4.0871,4.0871,4.0894,4.0894,4.0894,4.0894,4.0894,4.0894,4.0894,4.0894,4.0894,4.0894,4.0894,4.0894,3.5888,3.6735,3.7144,3.6914,3.5047,3.2507,2.9485,0.0,2.4521,2.194,2.1214,2.1183,2.1599,2.1748,2.2752,2.5801,0.0,0.0,0.0,0.0,0.0,0.0,0.0,0.0,0.0,0.0,4.1034,4.1441,4.1472,4.1472,4.1472,4.0859,4.0505,4.0505,4.0505,4.0505,4.0505,4.0888,4.1158,4.1292,4.1981,4.2332,4.2458,4.3106,4.3436,4.3555,4.4231,4.4541,4.4625,4.4879,4.4851,4.4578,4.4578,4.4426,4.4171,4.3725,4.3554,4.3477,4.2824,4.224,4.1744,4.1533,4.1154,4.0728,4.0728,4.0728,4.0752,4.0799,4.0799,4.0823,4.0871,4.0894,4.0894,4.0894,4.0894,4.0894,4.0894,4.0894,4.0894,4.0894,4.0894,4.0894,4.0894,4.0894,4.0894,4.0894,4.0894,4.0894,4.0894,4.0894,4.0894,4.0894,4.0894,4.0894,4.0894,4.0894,4.0894,4.0894,4.0894,4.0894,4.0894,4.0894,4.0894,4.0894,4.0894,4.0894,4.0894,4.0894,4.0894,4.0894,4.0894,4.1035,3.4809,3.5963,3.6603,3.6388,3.4573,3.213,0.0,0.0,2.4676,2.2579,2.1836,2.1843,2.2655,2.245,2.2998,2.5441,0.0,2.7462,0.0,0.0,0.0,0.0,0.0,0.0,0.0,4.1392,4.1928,4.2365,4.2427,4.2427,4.2427,4.1707,4.1103,4.0677,4.0851,4.0956,4.0956,4.1624,4.2013,4.2141,4.2831,4.3196,4.3314,4.3997,4.4311,4.4367,4.4852,4.5103,4.513,4.513,4.513,4.513,4.513,4.5184,4.5222,4.4672,4.45,4.4397,4.3768,4.3097,4.2505,4.2398,4.1861,4.124,4.124,4.1067,4.0894,4.0894,4.0894,4.0894,4.0894,4.0894,4.0894,4.0894,4.0894,4.0894,4.0894,4.0894,4.0894,4.0894,4.0894,4.0894,4.0894,4.0894,4.0894,4.0894,4.0894,4.0894,4.0894,4.0894,4.0894,4.0894,4.0894,4.0894,4.0894,4.0894,4.0894,4.0894,4.0894,4.0894,4.0894,4.0894,4.0894,4.0894,4.0894,4.0894,4.0894,4.0894,4.0894,4.0894,4.0894,4.1256,3.2619,3.4101,3.5534,3.5991,3.3942,3.139,0.0,2.7075,2.458,2.3187,2.2572,2.2655,2.3752,2.3381,2.3469,2.5236,2.6737,0.0,3.0696,0.0,0.0,0.0,0.0,0.0,4.0992,4.2365,4.318,4.3212,4.3212,4.3212,4.3212,4.3115,4.2484,4.1148,4.1656,4.1981,4.1981,4.2644,4.2982,4.2982,4.3672,4.3997,4.4026,4.468,4.5042,4.5177,4.5177,4.5257,4.5397,4.5397,4.5397,4.5397,4.5397,4.5397,4.5397,4.5397,4.5397,4.5259,4.4527,4.4276,4.4173,4.3414,4.2654,4.1999,4.1999,4.1481,4.0894,4.0894,4.0894,4.0894,4.0894,4.0894,4.0894,4.0894,4.0894,4.0894,4.0894,4.0894,4.0894,4.0894,4.0894,4.0894,4.0894,4.0894,4.0894,4.0894,4.0894,4.0894,4.0894,4.0894,4.0894,4.0894,4.0894,4.0894,4.0894,4.0894,4.0894,4.0894,4.0894,4.0894,4.0894,4.0894,4.0894,4.0894,4.0894,4.0894,4.0894,4.0894,4.0894,4.0894,4.0894,4.1557,3.0011,3.132,3.2311,3.1476,3.0598,2.9353,2.716,2.6367,2.5614,2.3867,2.3654,2.4041,2.4874,2.4679,2.5407,2.8484,2.9362,0.0,0.0,0.0,0.0,0.0,0.0,0.0,0.0,0.0,4.358,4.4193,4.4224,4.4471,4.4928,4.4941,4.4165,4.2516,4.2622,4.2675,4.2675,4.3376,4.3731,4.3814,4.4507,4.4872,4.4961,4.5184,4.5291,4.5344,4.5344,4.5371,4.5397,4.5397,4.5397,4.5397,4.5397,4.5397,4.5397,4.5397,4.5397,4.5363,4.5121,4.4734,4.4276,4.4035,4.3448,4.2827,4.2827,4.193,4.0894,4.0894,4.0894,4.0894,4.0894,4.0894,4.0894,4.0894,4.0894,4.0894,4.0894,4.0894,4.0894,4.0894,4.0894,4.0894,4.0894,4.0894,4.0894,4.0894,4.0894,4.0894,4.0894,4.0894,4.0894,4.0894,4.0894,4.0894,4.0894,4.0894,4.0894,4.0894,4.0894,4.0894,4.0894,4.0894,4.0894,4.0894,4.0894,4.1059,4.1288,4.1288,4.1567,4.2149,4.3358,4.3907,0.0,2.9004,2.9831,2.9105,2.8503,2.7773,2.6404,2.6044,2.5732,2.4829,2.4789,2.5062,2.5616,2.5363,2.5942,2.8705,2.9613,0.0,0.0,0.0,0.0,0.0,0.0,0.0,0.0,4.3822,4.4654,4.5422,4.5489,4.5837,4.6551,4.6585,4.6059,4.4916,4.4566,4.4381,4.4381,4.5067,4.5411,4.5524,4.5953,4.6033,4.5845,4.5845,4.5673,4.5397,4.5397,4.5397,0.0,4.5397,4.5397,4.5397,4.5397,4.5397,4.5397,4.5397,4.5397,4.5397,4.5397,4.5113,4.4699,4.4699,4.4242,4.3552,4.3276,4.2516,4.1688,4.1412,4.1343,4.124,4.0963,4.0894,4.0894,4.0894,4.0894,4.0894,4.0894,4.0894,4.0894,4.0894,4.0894,4.0894,4.0894,4.0894,4.0894,4.0894,4.0894,4.0894,4.0894,4.0894,4.0894,4.0894,4.0894,4.0894,4.0894,4.0894,4.0894,4.0894,4.0894,4.0894,4.0894,4.0894,4.0894,4.0894,4.117,4.151,4.1955,4.2436,4.2948,4.3443,4.4715,4.5281,0.0,2.696,2.7816,2.8251,2.7331,2.6404,2.6877,2.5937,0.0,2.5887,2.571,2.5653,2.622,2.5644,2.5547,2.6996,2.8438,0.0,0.0,0.0,0.0,0.0,0.0,0.0,4.3847,4.5147,4.6227,4.6828,4.6896,4.7204,4.7933,4.7903,4.7898,4.7928,4.728,4.6874,4.6772,4.7386,4.7672,4.7672,4.7672,4.7355,4.67,4.67,4.6224,4.55,4.55,4.5466,4.5397,4.5397,4.5397,4.5397,4.5397,4.5397,4.5397,4.5397,4.5397,4.5397,4.5397,4.5397,4.5397,4.5397,4.4941,4.4242,4.3552,4.3276,4.3034,4.2309,4.2102,4.193,4.124,4.1067,4.1067,4.0998,4.0998,4.0963,4.0929,4.0894,4.0894,4.0894,4.0894,4.0894,4.0894,4.0929,4.0998,4.1011,4.108,4.1138,4.1162,4.1151,4.1151,4.1151,4.1151,4.1151,4.1151,4.1045,4.0963,4.1011,4.108,4.1138,4.1151,4.1151,4.1151,4.1151,4.1867,4.2439,4.2886,4.4149,4.4736,4.475,4.526,4.5896,2.3487,0.0,2.466,2.4232,2.4281,2.431,0.0,2.4419,2.504,0.0,0.0,2.583,2.8265,2.7138,2.7279,3.1635,0.0,0.0,0.0,0.0,0.0,0.0,4.5073,4.5897,4.6061,4.6881,4.7472,4.7605,4.7638,4.7933,4.8635,4.8652,4.8889,4.9468,4.9325,4.8673,4.7477,4.7617,4.7672,4.7672,4.7672,4.7603,4.7431,4.7431,4.7017,4.632,4.632,4.5949,4.5397,4.5397,4.5397,4.5397,4.5397,4.5397,4.5397,4.5397,4.5397,4.5397,4.5397,4.5397,4.5397,4.5397,4.5259,4.5087,4.4941,4.4078,4.3172,4.2965,4.293,4.2896,4.2689,4.2654,4.2516,4.1895,4.1757,4.1585,4.1032,4.0894,4.0894,4.0894,4.0894,4.0894,4.0894,4.1378,4.1843,4.223,4.28,4.3325,4.3696,4.374,4.374,4.374,4.374,4.374,4.374,4.2509,4.189,4.2253,4.2835,4.3371,4.3718,4.374,4.374,4.374,4.4243,4.4581,4.4685,4.5939,4.6323,4.5998,4.7097,4.7481,2.2716,2.3509,2.4336,2.4267,2.4301,2.4439,2.4729,0.0,0.0,0.0,0.0,2.5592,2.7592,2.7247,0.0,0.0,3.3647,0.0,0.0,0.0,0.0,0.0,4.63,4.6939,0.0,4.7702,4.8031,4.8319,4.8351,4.8635,4.9376,4.9406,4.959,4.9982,5.0011,4.9597,4.8769,4.8769,4.8769,4.8769,4.8769,4.8562,4.8189,4.8189,4.7775,4.7113,4.6769,4.6328,4.5914,4.5535,4.5397,4.5397,4.5397,4.5397,4.5397,4.5397,4.5397,4.5397,4.5397,4.5397,4.5397,4.5397,4.5397,4.5397,4.5397,4.4837,4.4147,4.3793,4.369,4.3621,4.3276,4.3207,4.3103,4.2654,4.2551,4.2447,4.2033,4.1964,4.1964,4.1964,4.1964,4.1964,4.1964,4.2434,4.294,4.3219,4.3822,4.4294,4.4557,4.46,4.46,4.46,4.46,4.46,4.46,4.4044,4.3663,4.3603,4.3992,4.4352,4.4578,4.46,4.4757,4.5114,4.5596,4.6001,4.6343,4.7234,4.7511,4.7315,4.797,4.8209,2.2992,2.4267,2.5523,2.5577,2.537,2.5454,2.6523,0.0,0.0,0.0,0.0,0.0,0.0,0.0,0.0,0.0,0.0,0.0,0.0,0.0,0.0,4.6472,4.7096,0.0,4.8158,4.8225,4.848,4.904,4.907,4.9346,4.9982,5.0011,5.0011,5.0011,5.0011,5.0011,5.0011,5.0011,5.0011,5.0011,5.0011,4.9666,4.8982,4.8982,4.8568,4.781,4.7217,4.6803,4.6562,4.5845,4.55,4.5397,4.5397,4.5397,4.5397,4.5397,4.5397,4.5397,4.5397,4.5397,4.5397,4.5397,4.5397,4.5397,4.5397,4.5397,4.5259,4.463,4.4483,4.4345,4.369,4.3552,4.3517,4.3379,4.3379,4.3345,4.3207,4.3207,4.3207,4.3207,4.3247,4.3296,4.3296,4.3768,4.4212,4.4304,4.4733,4.5086,4.515,4.515,4.515,4.515,4.515,4.515,4.515,4.5739,4.581,4.5186,4.5086,4.5086,4.515,4.515,4.5473,4.6097,4.6535,4.7082,4.7736,4.8151,4.8325,4.8344,4.8344,4.8401,2.4281,2.6247,2.7144,2.3991,2.4577,2.5646,2.4577,0.0,0.0,0.0,0.0,0.0,0.0,0.0,0.0,0.0,0.0,4.0825,0.0,0.0,4.6378,4.7395,0.0,4.9546,4.9649,4.9683,4.9742,4.983,4.983,4.986,5.0011,5.0011,5.0011,5.0011,5.0011,5.0011,5.0011,5.0011,5.0011,5.0011,5.0011,4.9942,4.9838,4.9838,4.939,4.8603,4.8499,4.7741,4.6596,4.6493,4.6017,4.5397,4.5397,4.5397,4.5397,4.5397,4.5397,4.5397,4.5397,4.5397,4.5397,4.5397,4.5397,4.5397,4.5397,4.5397,4.5363,4.5259,4.5225,4.519,4.5087,4.5052,4.4906,4.4276,4.4138,4.3966,4.331,4.3207,4.3207,4.3207,4.3506,4.3781,4.3781,4.4703,4.5601,4.6008,4.669,4.7291,4.767,4.7729,4.7729,4.7729,4.7729,4.7729,4.7729,4.7819,4.7855,4.7729,4.7352,4.7311,4.7709,4.7729,4.7802,4.7892,4.797,4.8157,4.8381,4.8438,4.8513,4.8569,4.8569,4.8569,2.3543,2.5419,2.673,2.4956,2.6902,2.911,2.8782,0.0,0.0,0.0,0.0,0.0,0.0,0.0,0.0,0.0,0.0,4.2654,4.4104,4.563,4.6872,0.0,0.0,5.0011,5.0011,5.0011,5.0011,5.0011,5.0011,5.0011,5.0011,5.0011,5.0011,5.0011,5.0011,5.0011,5.0011,5.0011,5.0011,5.0011,5.0011,5.0011,5.0011,5.0011,4.9804,4.9424,4.8982,4.8396,4.7741,4.7355,4.6741,4.6052,4.6052,4.5776,4.5397,4.5397,4.5397,4.5397,4.5397,4.5397,4.5397,4.5397,4.5397,4.545,4.5727,4.5829,4.5905,4.6144,4.5829,4.5397,4.5397,4.5397,4.5294,4.4975,4.4906,4.4803,4.4458,4.4389,4.4491,4.4759,4.5005,4.5234,4.5457,4.6195,4.6822,4.7166,4.7716,4.819,4.8439,4.8476,4.8458,4.8419,4.8439,4.8439,4.8419,4.8419,4.84,4.8306,4.8094,4.8075,4.8287,4.8306,4.8325,4.8419,4.8419,4.8476,4.8532,4.8532,4.8569,4.8624,4.8624,4.8642,2.3241,2.485,2.65,2.688,2.8988,3.1282,3.2386,0.0,0.0,0.0,0.0,0.0,0.0,3.4766,0.0,4.0825,4.2585,4.3724,4.4423,4.5734,4.6872,4.7603,4.8879,4.9804,4.9976,5.0011,4.9942,4.9735,4.9735,4.9735,4.9735,4.9735,4.9804,5.0011,5.0011,5.0011,5.0011,5.0011,5.0011,5.0011,5.0011,5.0011,5.0011,5.0011,5.0011,4.9976,4.9355,4.8947,4.8741,4.8189,4.7527,4.6837,4.6665,4.6086,4.5397,4.5397,4.5397,4.5397,4.5397,4.5397,4.5423,4.5554,4.5607,4.5675,4.6193,4.6363,4.6435,4.6812,4.6363,4.5752,4.5752,4.5752,4.5752,4.5752,4.5752,4.5752,4.5752,4.5752,4.5905,4.628,4.6507,4.6683,4.7071,4.7527,4.7858,4.7975,4.8287,4.855,4.8605,4.8624,4.8587,4.8532,4.8569,4.8587,4.8532,4.8532,4.8494,4.8382,4.8344,4.8325,4.8325,4.8363,4.842,4.8532,4.8532,4.8569,4.8642,4.8827,4.8956,4.8974,4.9159,4.9306,2.4927,2.6352,2.7728,2.9085,2.9037,0.0,3.1386,3.1214,0.0,3.3317,0.0,0.0,0.0,3.8444,4.0998,4.2758,4.369,4.4458,4.5225,0.0,4.6872,4.7603,4.8396,4.9154,4.9942,5.0011,4.97,4.8947,4.8879,4.8879,4.8879,4.8879,4.9252,4.9976,5.0011,5.0011,5.0011,5.0011,5.0011,5.0011,5.0011,5.0011,5.0011,5.0011,5.0011,5.0011,4.9942,4.9493,4.881,4.8741,4.8293,4.7534,4.6872,4.6086,4.5397,4.5397,4.5397,4.5397,4.5397,4.5397,4.5476,4.598,4.6119,4.6217,4.6719,4.6858,4.688,4.6868,4.6845,4.6776,4.6776,4.6776,4.6776,4.6776,4.6776,4.6776,4.6776,4.6776,4.6822,4.691,4.7342,4.7731,4.7818,4.8213,4.8514,4.8532,4.8587,4.8605,4.8624,4.8624,4.8605,4.8605,4.8605,4.8605,4.8605,4.8605,4.8605,4.8587,4.8532,4.8476,4.8476,4.8532,4.8587,4.8605,4.8605,4.866,4.8787,4.9528,4.9934,5.0024,5.0804,5.1212,2.4182,2.634,2.8579,2.9145,3.0364,0.0,0.0,3.4461,3.5442,3.7215,3.7801,0.0,0.0,0.0,4.193,4.3034,4.3828,4.4587,4.5294,4.6086,4.67,4.6975,4.7672,4.8224,4.8562,4.8596,4.843,4.812,4.812,4.812,4.812,4.8534,4.8947,4.9223,4.9735,5.0011,5.0011,5.0011,5.0011,5.0011,5.0011,5.0011,5.0011,5.0011,5.0011,5.0011,5.0011,4.9838,4.9562,4.9562,4.9085,4.8258,4.7079,4.6397,4.614,4.5952,4.5905,4.5955,4.6242,4.6339,4.6387,4.6578,4.6649,4.6707,4.7204,4.7335,4.7399,4.771,4.7834,4.7752,4.7049,4.689,4.689,4.689,4.689,4.6913,4.6945,4.6968,4.7102,4.7455,4.77,4.7959,4.8271,4.8477,4.8642,4.8696,4.8696,4.8732,4.8785,4.923,4.9509,4.9491,4.9936,5.0232,5.0232,5.0232,5.0195,5.0139,4.9141,4.855,4.855,4.9123,4.9418,4.9491,4.9973,5.0268,5.0434,5.0731,5.086,5.0933,5.1268,5.1416,2.4421,2.658,2.9019,2.9576,0.0,0.0,3.567,3.6707,3.7798,4.0043,4.0446,0.0,0.0,0.0,0.0,0.0,4.3828,4.4587,4.5294,4.588,4.632,4.6562,4.7044,4.7431,4.7672,4.7672,4.7603,4.7389,4.7327,4.7327,4.7327,4.781,4.8189,4.843,4.9189,4.9631,4.9631,4.9873,5.0011,5.0011,5.0011,5.0011,5.0011,5.0011,5.0011,5.0011,5.0011,5.0011,5.0011,5.0011,4.9642,4.898,4.8154,4.7675,4.7448,4.7266,4.7,4.6837,4.7167,4.7105,4.6913,4.7071,4.7138,4.727,4.7752,4.7879,4.7979,4.8288,4.8458,4.8363,4.7632,4.7442,4.7442,4.7399,4.7421,4.7428,4.7497,4.7497,4.7622,4.8097,4.8175,4.8307,4.8642,4.8918,4.9102,4.9193,4.9433,4.9637,4.969,5.019,5.0489,5.0434,5.0917,5.125,5.125,5.125,5.1232,5.1194,5.0121,4.9473,4.9399,5.0028,5.0417,5.0434,5.0991,5.1324,5.1416,5.1639,5.1788,5.1788,5.2048,5.2159,2.6184,2.7345,2.9052,0.0,0.0,0.0,3.7221,3.7255,3.7629,4.144,0.0,4.2033,4.2009,4.2009,0.0,4.3069,4.3828,4.4587,4.5294,4.5397,4.5707,4.6493,4.6596,4.6906,4.7603,4.7672,4.7389,4.6665,4.6596,4.6596,4.6596,4.6596,4.6941,4.7672,4.8396,4.881,4.881,4.9597,5.0011,5.0011,5.0011,5.0011,5.0011,5.0011,5.0011,5.0011,5.0011,5.0011,5.0011,5.0011,4.9861,4.9662,5.019,4.9948,4.9293,4.9317,4.8793,4.8115,4.8115,4.7615,4.7017,4.7464,4.7731,4.7931,4.8362,4.8569,4.8624,4.8624,4.8624,4.8624,4.8624,4.8624,4.8587,4.8513,4.8569,4.8624,4.8624,4.8624,4.8642,4.8806,4.8842,4.8859,4.891,4.9596,5.0116,5.0116,5.0859,5.1416,5.1416,5.1416,5.1416,5.1416,5.1416,5.1416,5.1416,5.1416,5.1416,5.1416,5.1416,5.138,5.1213,5.1324,5.1416,5.1416,5.1416,5.1416,5.1416,5.2234,5.2605,5.2642,5.3423,5.3794,2.5982,2.8487,0.0,3.1691,0.0,0.0,0.0,3.9403,0.0,0.0,4.3696,4.3448,4.293,4.2827,0.0,4.3862,4.4173,4.4587,4.5294,4.5397,4.55,4.5707,4.5742,4.5845,4.6052,4.6086,4.5983,4.5776,4.5742,4.5742,4.5742,4.6293,4.67,4.6941,4.812,4.881,4.881,4.9597,5.0178,5.0564,5.0178,5.0011,5.0011,5.0011,5.0011,5.004,5.0397,5.0564,5.0592,5.0964,5.1086,5.0982,5.0552,5.0269,5.0068,4.987,4.9622,4.9509,4.9898,4.9935,4.9736,4.9994,5.0093,5.0169,5.0284,5.0341,5.036,5.036,5.038,5.0417,5.0379,5.0454,5.0398,4.9658,4.9935,5.0379,5.0417,5.0417,5.0491,5.0619,5.0637,5.0637,5.0673,5.0859,5.1008,5.1008,5.1231,5.1602,5.2159,5.2234,5.2457,5.3051,5.3088,5.3088,5.3088,5.3088,5.3088,5.3088,5.3088,5.2549,5.138,5.1918,5.2234,5.2234,5.2791,5.3088,5.3088,5.3348,5.346,5.346,5.3683,5.3794,2.827,3.0978,0.0,3.4676,3.7369,4.0002,4.0775,0.0,0.0,0.0,0.0,4.4173,4.3724,4.3655,0.0,4.4242,4.4527,4.4906,4.5328,4.5397,4.5397,4.5397,4.5397,4.5397,4.5397,4.5397,4.5397,4.5397,4.5397,4.5397,4.5397,4.5845,4.6121,4.6121,4.7476,4.8375,4.8687,4.9637,5.046,5.1087,5.0776,5.0647,5.0647,5.0397,5.0348,5.0376,5.0884,5.1123,5.1175,5.1701,5.1946,5.1922,5.162,5.1578,5.162,5.1362,5.1113,5.0963,5.1287,5.1185,5.0985,5.108,5.1137,5.1119,5.1119,5.1194,5.1213,5.1213,5.125,5.1287,5.1232,5.1566,5.164,5.0639,5.0824,5.1232,5.1287,5.1306,5.1306,5.1361,5.1416,5.1416,5.1416,5.1676,5.1899,5.1899,5.2159,5.2531,5.3014,5.3088,5.3274,5.3757,5.3794,5.3794,5.3794,5.3794,5.3794,5.3794,5.3794,5.3348,5.2382,5.2828,5.3088,5.3088,5.3571,5.3794,5.3794,5.3794,5.3794,5.3794,5.3794,5.3794,3.1544,0.0,0.0,3.8607,3.966,0.0,4.2936,4.3482,4.367,4.424,0.0,4.4311,4.4414,4.4414,4.4414,4.4414,4.4975,4.5397,4.5397,4.5397,4.5397,4.5397,4.5397,4.5397,4.5397,4.5397,4.5397,4.5397,4.545,4.5476,4.5476,4.5528,4.5554,4.5554,4.6704,4.7719,4.8457,4.9749,5.078,5.1569,5.159,5.1651,5.1676,5.1149,5.091,5.0955,5.1475,5.1725,5.1799,5.2315,5.2531,5.263,5.3045,5.3334,5.3461,5.3293,5.2856,5.241,5.2274,5.1853,5.134,5.1359,5.1379,5.1436,5.1436,5.1528,5.1602,5.1602,5.1602,5.1602,5.1602,5.2159,5.2512,5.164,5.1547,5.1602,5.1602,5.1602,5.1602,5.1602,5.1602,5.1602,5.1602,5.2234,5.2717,5.2717,5.3348,5.3794,5.3794,5.3794,5.3794,5.3794,5.3794,5.3794,5.3794,5.3794,5.3794,5.3794,5.3794,5.3794,5.3794,5.3794,5.3794,5.3794,5.3794,5.3794,5.3794,5.3794,5.3794,5.3794,5.3794,5.3794,2.9742,3.2732,0.0,0.0,4.0445,4.2449,4.348,4.3632,4.3784,4.445,4.4438,4.4483,4.5079,4.5156,4.5156,4.5156,4.5294,4.5397,4.5397,4.5397,4.5397,4.5397,4.5397,4.5397,4.5397,4.5397,4.5397,4.5397,4.5778,4.603,4.603,4.6387,4.6602,4.6602,4.7382,4.7927,4.8128,4.9637,5.0713,5.1384,5.1587,5.1946,5.245,5.1714,5.1701,5.2172,5.2381,5.2696,5.3093,5.3235,5.3297,5.3281,5.338,5.344,5.3481,5.344,5.333,5.3242,5.3319,5.3247,5.3138,5.3179,5.3217,5.3236,5.3236,5.3255,5.3274,5.3274,5.3274,5.3274,5.3274,5.3423,5.3497,5.3292,5.3255,5.3274,5.3274,5.3274,5.3274,5.3274,5.3274,5.3274,5.3274,5.3423,5.3534,5.3534,5.3683,5.3794,5.3794,5.3794,5.3794,5.3794,5.3794,5.3794,5.3794,5.3794,5.3794,5.3794,5.3794,5.3794,5.3794,5.3794,5.3794,5.3794,5.3794,5.3794,5.3794,5.3794,5.3794,5.3794,5.3794,5.3794,3.0251,0.0,0.0,4.0273,0.0,4.341,4.3561,4.3484,4.354,4.4059,4.4132,4.4356,4.5345,4.5171,4.5156,4.5975,4.5727,4.5502,4.5752,4.5581,4.5397,4.5397,4.5658,4.5778,4.5778,4.597,4.6119,4.6119,4.6387,4.6554,4.6554,4.6788,4.689,4.689,4.7487,4.7994,4.8389,4.9509,5.0613,5.1679,5.1887,5.2375,5.3057,5.2404,5.2427,5.2972,5.3036,5.324,5.3481,5.3481,5.3558,5.3598,5.3538,5.3541,5.362,5.3521,5.3541,5.3639,5.3714,5.3696,5.3754,5.3812,5.3794,5.3794,5.3794,5.3794,5.3794,5.3794,5.3794,5.3794,5.3794,5.3794,5.3794,5.3794,5.3794,5.3794,5.3794,5.3794,5.3794,5.3794,5.3794,5.3794,5.3794,5.3794,5.3794,5.3794,5.3794,5.3794,5.3794,5.3794,5.3794,5.3794,5.3794,5.3794,5.3794,5.3794,5.3794,5.3794,5.3794,5.3794,5.3794,5.3794,5.3794,5.3794,5.3794,5.3794,5.3794,5.3794,5.3794,5.3794,5.3794,5.3794,3.0437,0.0,3.7833,4.2426,4.3801,0.0,4.3594,4.3404,4.3395,4.3587,4.3686,4.4117,4.5303,4.4847,4.4862,4.6433,4.5982,4.5655,4.6242,4.5955,4.5649,4.5649,4.6045,4.6315,4.6315,4.6695,4.689,4.689,4.6981,4.7026,4.7004,4.7115,4.716,4.716,4.7548,4.8084,4.8738,4.9404,5.0411,5.174,5.2151,5.2764,5.3521,5.3099,5.312,5.3558,5.3541,5.3541,5.3541,5.3541,5.3617,5.3714,5.3617,5.3639,5.3775,5.36,5.3639,5.3775,5.3716,5.3754,5.3794,5.3794,5.3794,5.3794,5.3794,5.3794,5.3794,5.3794,5.3794,5.3794,5.3794,5.3794,5.3794,5.3794,5.3794,5.3794,5.3794,5.3794,5.3794,5.3794,5.3794,5.3794,5.3794,5.3794,5.3794,5.3794,5.3794,5.3794,5.3794,5.3794,5.3794,5.3794,5.3794,5.3794,5.3794,5.3794,5.3794,5.3794,5.3794,5.3794,5.3794,5.3794,5.3868,5.4017,5.3868,5.3794,5.3794,5.3794,5.3794,5.3794,5.3794,5.3794,0.0,0.0,3.7535,0.0,4.2983,4.3971,0.0,0.0,4.38,0.0,4.3683,4.375,4.4528,4.4538,4.4765,4.5704,4.5757,4.5924,4.6705,4.673,4.6683,4.6683,4.6753,4.6835,4.6835,4.6845,4.689,4.689,4.7378,4.7611,4.7506,4.7995,4.8304,4.8304,4.8362,4.8475,4.8642,4.9399,4.9954,5.0306,5.1807,5.2976,5.3737,5.3698,5.3639,5.3694,5.3735,5.3756,5.3756,5.3756,5.3756,5.3775,5.3756,5.3775,5.3794,5.3756,5.3775,5.3794,5.3775,5.3775,5.3794,5.3794,5.3794,5.3794,5.3794,5.3794,5.3794,5.3794,5.3794,5.3794,5.3794,5.3794,5.3794,5.3794,5.3794,5.3794,5.3794,5.3794,5.3794,5.3794,5.3794,5.3794,5.3794,5.3794,5.3794,5.3794,5.3794,5.3794,5.3794,5.3794,5.3794,5.3794,5.3794,5.3794,5.3794,5.3794,5.3794,5.3794,5.3794,5.3794,5.3794,5.3794,5.4128,5.4834,5.4166,5.3794,5.3794,5.3794,5.3794,5.3794,5.3794,5.3794,2.791,3.2518,3.7039,0.0,4.2797,4.3466,4.3912,0.0,4.3945,4.3897,4.3787,4.3926,4.4558,4.4268,4.4334,4.5635,4.5399,4.5473,4.6542,4.6521,4.6569,4.7021,4.727,4.7399,4.7399,4.7548,4.7731,4.7793,4.8052,4.819,4.8136,4.842,4.855,4.855,4.855,4.8569,4.8624,4.903,4.9509,5.01,5.1769,5.2791,5.3162,5.3608,5.3756,5.3754,5.3812,5.3794,5.3794,5.3794,5.3794,5.3794,5.3794,5.3794,5.3794,5.3794,5.3794,5.3794,5.3794,5.3794,5.3794,5.3794,5.3794,5.3794,5.3794,5.3794,5.3794,5.3794,5.3794,5.3794,5.3794,5.3794,5.3794,5.3794,5.3794,5.3794,5.3794,5.3794,5.3794,5.3794,5.3794,5.3794,5.3794,5.3794,5.3794,5.3794,5.3794,5.3794,5.3794,5.3794,5.3794,5.3794,5.3794,5.3794,5.3794,5.3794,5.3794,5.3794,5.3794,5.4017,5.4463,5.4463,5.4871,5.5726,5.4909,5.4723,5.5206,5.5206,5.5206,5.5206,5.5206,5.5206,0.0,0.0,3.4822,3.9714,4.1423,4.2166,0.0,0.0,4.3748,0.0,4.3929,4.4066,4.4492,4.4053,4.4063,4.5425,4.5125,4.5104,4.6239,4.619,4.6339,4.7156,4.7527,4.7796,4.7979,4.8229,4.8419,4.8532,4.8532,4.8569,4.8605,4.8642,4.866,4.866,4.866,4.866,4.8678,4.8787,4.9228,5.0116,5.1602,5.2419,5.2642,5.3423,5.3794,5.3794,5.3794,5.3794,5.3794,5.3794,5.3794,5.3794,5.3794,5.3794,5.3794,5.3794,5.3794,5.3794,5.3794,5.3794,5.3794,5.3794,5.3794,5.3794,5.3794,5.3794,5.3794,5.3794,5.3794,5.3794,5.3794,5.3794,5.3794,5.3794,5.3794,5.3794,5.3794,5.3794,5.3794,5.3794,5.3794,5.3794,5.3794,5.3794,5.3794,5.3794,5.3794,5.3794,5.3794,5.3794,5.3794,5.3794,5.398,5.4091,5.4091,5.4091,5.4091,5.4091,5.4091,5.4388,5.4983,5.5206,5.5726,5.658,5.5986,5.5874,5.632,5.632,5.632,5.632,5.632,5.632,0.0,2.7241,0.0,3.4637,0.0,0.0,0.0,0.0,4.3095,4.3838,4.3971,4.3992,4.3934,4.3857,4.407,4.4895,4.5009,4.5287,4.6098,4.6209,4.6504,4.7296,4.7425,4.772,4.8476,4.8532,4.8532,4.8605,4.8605,4.8605,4.8624,4.8696,4.8787,4.8787,4.8787,4.8822,4.8873,4.8873,4.9281,5.0116,5.1045,5.1862,5.2642,5.3423,5.3794,5.3794,5.3794,5.3794,5.3794,5.3794,5.3794,5.3794,5.3794,5.3794,5.3794,5.3794,5.3794,5.3794,5.3794,5.3794,5.3794,5.3794,5.3794,5.3794,5.3794,5.3794,5.3794,5.3794,5.3794,5.3794,5.3794,5.3794,5.3794,5.3794,5.3794,5.3794,5.3794,5.3794,5.3794,5.3794,5.3794,5.3794,5.3794,5.3794,5.3794,5.3794,5.3794,5.3794,5.3794,5.3794,5.3794,5.3794,5.45,5.4946,5.4946,5.4946,5.4946,5.4946,5.4946,5.4983,5.502,5.58,5.6617,5.7435,5.7398,5.7026,5.632,5.632,5.632,5.632,5.632,5.632,0.0,0.0,0.0,3.2927,3.5751,3.8042,3.9974,4.1646,4.2872,4.3169,4.3652,4.3971,4.3976,4.3913,4.3943,4.4173,4.426,4.4589,4.5386,4.5564,4.5931,4.6709,4.7231,4.764,4.7937,4.8328,4.8605,4.8733,4.8751,4.8732,4.8785,4.882,4.8838,4.8838,4.8838,4.8892,4.889,4.889,4.9039,4.9336,5.0748,5.1565,5.1862,5.32,5.3794,5.3794,5.3794,5.3794,5.3794,5.3794,5.3794,5.3794,5.3794,5.3794,5.3794,5.3794,5.3794,5.3794,5.3794,5.3794,5.3794,5.3794,5.3794,5.3794,5.3794,5.3794,5.3794,5.3794,5.3794,5.3794,5.3794,5.3794,5.3794,5.3794,5.3794,5.3794,5.3794,5.3794,5.3794,5.3794,5.3794,5.3794,5.3794,5.3794,5.3794,5.3794,5.3794,5.3794,5.3794,5.424,5.4574,5.4574,5.5354,5.5837,5.5837,5.5837,5.5837,5.5837,5.5837,5.606,5.658,5.6915,5.7472,5.8252,5.8477,5.8348,5.7843,5.7843,5.7843,5.7843,5.7843,5.7948,2.3293,0.0,0.0,0.0,0.0,3.5529,3.8785,0.0,4.146,4.2575,4.3243,4.3689,4.3949,4.3976,4.3913,4.3865,4.3897,4.4114,4.467,4.4809,4.5175,4.5992,4.6537,4.7023,4.7579,4.8011,4.84,4.8803,4.8804,4.884,4.889,4.889,4.889,4.889,4.889,4.889,4.889,4.889,4.889,4.8927,5.0599,5.1416,5.1454,5.3088,5.3794,5.3794,5.3794,5.3794,5.3794,5.3794,5.3794,5.3794,5.3794,5.3794,5.3794,5.3794,5.3794,5.3794,5.3794,5.3794,5.3794,5.3794,5.3794,5.3794,5.3794,5.3794,5.3794,5.3794,5.3794,5.3794,5.3794,5.3794,5.3794,5.3794,5.3794,5.3794,5.3794,5.3794,5.3794,5.3794,5.3794,5.3794,5.3794,5.3907,5.4074,5.4335,5.4483,5.4647,5.4927,5.5451,5.577,5.577,5.6519,5.6987,5.6891,5.6968,5.693,5.6712,5.6929,5.7248,5.7655,5.8052,5.8521,5.9045,5.927,5.927,5.9082,5.9082,5.9082,5.9082,5.9082,5.9271,0.0,0.0,0.0,0.0,0.0,0.0,3.865,0.0,3.8711,4.198,4.2686,4.2983,4.3801,4.3986,4.3986,4.3986,4.3986,4.3986,4.3986,4.3986,4.4321,4.5138,4.5287,4.5918,4.7478,4.7616,4.795,4.8799,4.884,4.884,4.889,4.889,4.889,4.889,4.889,4.889,4.889,4.889,4.889,4.8927,5.0599,5.1416,5.1454,5.3088,5.3794,5.3794,5.3794,5.3794,5.3794,5.3794,5.3794,5.3794,5.3794,5.3794,5.3794,5.3794,5.3794,5.3794,5.3794,5.3794,5.3794,5.3794,5.3794,5.3794,5.3794,5.3794,5.3794,5.3794,5.3794,5.3794,5.3794,5.3794,5.3831,5.3831,5.3831,5.3831,5.3868,5.3868,5.385,5.3794,5.3794,5.3813,5.385,5.4127,5.4651,5.5512,5.5869,5.6338,5.7203,5.7316,5.7354,5.7354,5.806,5.8408,5.8068,5.8342,5.8278,5.759,5.8192,5.8391,5.805,5.9173,5.9809,5.9809,5.9826,5.9826,5.9826,5.9809,5.9809,5.9809,5.9826,6.0,2.2089,0.0,0.0,0.0,0.0,0.0,0.0,0.0,3.5999,3.8711,4.0197,4.1497,4.2872,4.3615,4.3986,4.3986,4.3986,4.3986,4.3986,4.3986,4.4098,4.4321,4.4915,4.5472,4.5918,4.7016,4.7779,4.7999,4.8576,4.8892,4.889,4.889,4.889,4.889,4.889,4.889,4.889,4.889,4.889,4.8927,5.0599,5.1416,5.1454,5.3088,5.3794,5.3794,5.3794,5.3794,5.3794,5.3794,5.3794,5.3794,5.3794,5.3794,5.3794,5.3794,5.3794,5.3794,5.3794,5.3794,5.3794,5.3794,5.3794,5.3794,5.3794,5.3794,5.3794,5.3794,5.3794,5.3794,5.3794,5.3794,5.3943,5.4537,5.4686,5.4834,5.5466,5.5324,5.48,5.3962,5.3981,5.4365,5.5,5.5329,5.582,5.6721,5.6913,5.7036,5.7279,5.7794,5.8173,5.8173,5.8916,5.9398,5.9299,5.9382,5.9349,5.9183,5.9332,5.9398,5.9299,5.9609,5.9809,5.9809,6.0045,6.0165,6.0165,5.9937,5.9809,5.9809,6.0061,6.0251,0.0,0.0,0.0,0.0,0.0,0.0,3.1403,3.2667,3.3993,0.0,3.8451,3.9863,4.1497,4.2166,4.2723,4.3392,4.3503,4.3615,4.3949,4.3986,4.3986,4.3986,4.4432,4.4915,4.5249,4.6141,4.6995,4.7664,4.8147,4.8556,4.889,4.889,4.889,4.889,4.889,4.889,4.889,4.889,4.889,4.8927,5.0599,5.1416,5.1454,5.3088,5.3794,5.3794,5.3794,5.3794,5.3794,5.3794,5.3794,5.3794,5.3794,5.3794,5.3794,5.3794,5.3794,5.3794,5.3794,5.3794,5.3794,5.3794,5.3794,5.3794,5.3794,5.3794,5.3794,5.3794,5.3794,5.3794,5.3794,5.3794,5.4017,5.4834,5.502,5.5282,5.6294,5.6275,5.5728,5.4708,5.4805,5.5169,5.5675,5.63,5.7039,5.7929,5.8144,5.8342,5.8724,5.9168,5.9474,5.9474,5.9917,6.0165,6.003,6.015,6.0106,5.9826,6.0076,6.0165,6.003,6.015,6.0223,6.0223,6.039,6.052,6.052,6.0307,6.0223,6.0223,6.0441,6.0546,0.0,0.0,0.0,0.0,0.0,0.0,3.2518,3.2504,3.2527,0.0,3.6519,3.7634,3.9394,3.9863,4.0471,4.1869,4.2426,4.2983,4.3875,4.3986,4.3986,4.3986,4.3986,4.4283,4.5064,4.5249,4.5918,4.7441,4.7738,4.8147,4.8853,4.889,4.889,4.889,4.889,4.889,4.889,4.889,4.8927,4.9039,5.0636,5.1454,5.1565,5.3125,5.3794,5.3794,5.3794,5.3794,5.3794,5.3794,5.3794,5.3794,5.3794,5.3794,5.3794,5.3794,5.3794,5.3794,5.3794,5.3794,5.3794,5.3794,5.3794,5.3794,5.3794,5.3794,5.3794,5.3794,5.3794,5.3794,5.3794,5.3868,5.4128,5.5004,5.5264,5.5659,5.6849,5.7085,5.6839,5.6052,5.6069,5.6246,5.6322,5.7267,5.8297,5.9152,5.9496,5.9935,6.0704,6.0781,6.0781,6.0781,6.0781,6.0697,6.0362,6.061,6.0546,5.9969,6.0481,6.0685,6.0362,6.0622,6.0781,6.0781,6.0793,6.0793,6.0793,6.0793,6.0793,6.0793,6.0793,6.0866,0.0,0.0,0.0,0.0,0.0,0.0,2.89,2.9774,3.1109,0.0,3.144,3.2704,3.4996,3.6532,3.7522,3.7833,4.0085,4.2352,4.3801,4.3986,4.3986,4.3986,4.3986,4.4061,4.4246,4.4878,4.5695,4.6661,4.7924,4.8742,4.889,4.889,4.889,4.889,4.889,4.889,4.889,4.889,4.9224,4.9893,5.0896,5.1751,5.2419,5.3348,5.3794,5.3794,5.3794,5.3794,5.3794,5.3794,5.3794,5.3794,5.3794,5.3794,5.3794,5.3794,5.3794,5.3794,5.3794,5.3794,5.3794,5.3794,5.3794,5.3794,5.3794,5.3794,5.3794,5.3794,5.3794,5.3794,5.3794,5.4277,5.506,5.62,5.6929,5.7751,5.8963,5.8858,5.8506,5.8354,5.7839,5.7666,5.8367,5.886,5.9442,6.0337,6.0527,6.0589,6.0781,6.0781,6.0781,6.0781,6.0781,6.0769,6.071,6.0757,6.0746,6.0597,6.0734,6.0757,6.071,6.0757,6.0781,6.0781,6.0866,6.0888,6.0888,6.0843,6.0843,6.0888,6.0888,6.0916,0.0,0.0,0.0,3.1598,0.0,0.0,0.0,3.0374,3.0629,3.1206,3.1005,3.1411,3.3757,3.455,3.512,3.5974,3.8488,4.0494,4.0903,4.2723,4.3986,4.3986,4.3986,4.3986,4.3986,4.4395,4.4989,4.5844,4.7404,4.8296,4.8296,4.8667,4.889,4.889,4.889,4.889,4.889,4.9299,4.9707,5.0116,5.1379,5.2197,5.2642,5.3423,5.3794,5.3794,5.3794,5.3794,5.3794,5.3794,5.3794,5.3794,5.3794,5.3794,5.3794,5.3794,5.3794,5.3794,5.3794,5.3794,5.3794,5.3794,5.3794,5.3794,5.3794,5.3794,5.3794,5.3794,5.3794,5.3944,5.454,5.5006,5.5695,5.7246,5.7972,5.8602,5.9809,5.9836,5.9685,5.9869,5.9562,5.9293,5.9293,5.9775,6.0281,6.0742,6.0781,6.0781,6.0781,6.0781,6.0781,6.0781,6.0781,6.0793,6.0866,6.0866,6.0877,6.0911,6.0911,6.0911,6.0911,6.0911,6.0911,6.0911,6.0933,6.0955,6.0955,6.0922,6.0922,6.0955,6.0955,6.0959,0.0,0.0,0.0,0.0,0.0,3.1977,0.0,0.0,0.0,3.192,3.1063,0.0,0.0,0.0,0.0,3.3856,0.0,0.0,0.0,4.0234,0.0,4.2835,4.3095,4.3355,4.3503,4.354,4.4023,4.5212,4.6215,4.7033,4.7664,4.8333,4.8742,4.889,4.889,4.889,4.889,4.9707,5.019,5.0376,5.1899,5.2679,5.2865,5.3497,5.3794,5.3794,5.3794,5.3794,5.3794,5.3794,5.3794,5.3794,5.3794,5.3794,5.3794,5.3794,5.3794,5.3794,5.3794,5.3794,5.3794,5.3794,5.3794,5.3794,5.3794,5.3794,5.385,5.4075,5.4149,5.4429,5.5625,5.6049,5.6564,5.8227,5.8706,5.914,6.0168,6.0376,6.0494,6.0746,6.0781,6.0589,5.9858,6.0319,6.0781,6.0781,6.0781,6.0781,6.0781,6.0781,6.0793,6.0843,6.0804,6.0866,6.0922,6.0922,6.0944,6.0987,6.0987,6.0987,6.0987,6.0987,6.0987,6.0987,6.1008,6.1008,6.1008,6.1018,6.1018,6.1008,6.1008,6.1,0.0,0.0,0.0,0.0,3.6359,0.0,0.0,0.0,3.1577,2.8685,0.0,0.0,0.0,0.0,0.0,0.0,0.0,0.0,3.2704,3.5999,3.8599,3.8599,3.99,4.1089,4.1794,4.1869,4.2835,4.5138,4.4098,4.4618,4.7553,4.7776,4.8147,4.889,4.889,4.889,4.889,4.9707,5.0488,5.1268,5.2159,5.2977,5.3683,5.3757,5.3794,5.3794,5.3794,5.3794,5.3794,5.3794,5.3794,5.3794,5.3794,5.3794,5.3794,5.3794,5.3794,5.3794,5.3794,5.3794,5.3794,5.3794,5.3794,5.3794,5.3794,5.3794,5.4019,5.5112,5.5388,5.5679,5.6835,5.7633,5.8303,5.8897,5.9578,6.022,6.0647,6.0746,6.0746,6.0781,6.0781,6.0781,6.0666,6.0742,6.0781,6.0781,6.0781,6.0781,6.0781,6.0781,6.0804,6.09,6.09,6.0922,6.0976,6.0987,6.0987,6.0987,6.0987,6.0987,6.0987,6.0987,6.0987,6.0987,6.101,6.0992,6.0992,6.108,6.108,6.0992,6.0992,6.1022,0.0,0.0,0.0,0.0,0.0,0.0,3.2537,0.0,3.1199,0.0,0.0,0.0,0.0,0.0,0.0,0.0,3.1054,0.0,0.0,0.0,3.4562,3.6928,3.8241,3.9454,4.0791,4.0903,4.1534,4.302,4.25,4.3095,4.5435,4.6921,4.785,4.8184,4.8667,4.9113,4.9596,5.045,5.1268,5.2122,5.2902,5.346,5.3794,5.3794,5.3794,5.3794,5.3794,5.3794,5.3794,5.3794,5.3794,5.3794,5.3794,5.3794,5.3794,5.3794,5.3794,5.3832,5.4017,5.4089,5.4125,5.4313,5.4681,5.5074,5.5074,5.5413,5.5952,5.6458,5.6566,5.6873,5.8043,5.8611,5.9064,5.9882,6.0354,6.061,6.0757,6.0781,6.0781,6.0781,6.0816,6.0877,6.0877,6.0843,6.0793,6.0866,6.0804,6.0843,6.0911,6.09,6.09,6.0955,6.0955,6.0987,6.1,6.101,6.1021,6.1051,6.1051,6.1051,6.1051,6.1051,6.1051,6.1051,6.107,6.1051,6.1051,6.1109,6.1109,6.1051,6.1051,6.106,3.8548,0.0,0.0,0.0,0.0,0.0,0.0,0.0,0.0,0.0,0.0,0.0,0.0,0.0,0.0,0.0,0.0,3.0403,0.0,3.0081,0.0,0.0,0.0,3.8056,3.9282,3.8985,3.9431,4.1126,4.042,4.1126,4.3838,4.5918,4.7256,4.7701,4.8481,4.9299,5.0079,5.0971,5.1788,5.2605,5.3423,5.3794,5.3794,5.3794,5.3794,5.3794,5.3794,5.3794,5.3794,5.3907,5.3944,5.3963,5.4035,5.4072,5.4054,5.3963,5.3981,5.4145,5.461,5.4936,5.5174,5.5412,5.5883,5.6353,5.6353,5.6808,5.737,5.7688,5.7794,5.8058,5.9253,5.9562,5.9754,6.0592,6.0781,6.0781,6.0781,6.0793,6.0843,6.0843,6.09,6.0933,6.0933,6.09,6.0888,6.0922,6.09,6.09,6.0976,6.0955,6.0955,6.0969,6.1018,6.1,6.1022,6.1022,6.1041,6.1118,6.1118,6.1118,6.1118,6.1118,6.1118,6.1118,6.1118,6.1118,6.1118,6.1118,6.1118,6.1118,6.1118,6.1118,4.1335,4.2113,4.2056,3.6608,3.6309,3.6065,0.0,0.0,3.3156,0.0,0.0,0.0,0.0,0.0,0.0,0.0,0.0,0.0,0.0,0.0,0.0,0.0,0.0,0.0,3.6816,3.5417,3.616,4.0137,3.7498,3.813,4.3689,4.4878,4.6104,4.7664,4.8481,4.9299,5.0079,5.0971,5.1788,5.2605,5.3423,5.3794,5.3794,5.3794,5.3794,5.3794,5.3794,5.3794,5.3813,5.4161,5.4279,5.4313,5.4639,5.4761,5.4731,5.4397,5.4495,5.489,5.5663,5.6489,5.7225,5.7241,5.7241,5.7279,5.7279,5.7279,5.7529,5.871,5.9046,5.9305,6.0441,6.0731,6.0731,6.0781,6.0781,6.0781,6.0781,6.0866,6.0911,6.0911,6.0955,6.0987,6.0987,6.0987,6.0987,6.0987,6.0987,6.0987,6.0987,6.0987,6.1008,6.0992,6.1002,6.1022,6.107,6.1118,6.1118,6.1118,6.1118,6.1118,6.1118,6.1118,6.1118,6.1118,6.1118,6.1118,6.1118,6.1118,6.1118,6.1118,6.1118,6.1118,4.1543,4.2207,4.2238,3.8875,3.7688,3.6529,3.3347,3.3415,0.0,0.0,0.0,0.0,0.0,0.0,0.0,0.0,0.0,0.0,0.0,0.0,0.0,0.0,0.0,0.0,0.0,3.4013,3.5082,3.7131,3.667,3.8079,4.2203,4.4729,4.6327,4.6884,4.8704,5.0116,5.0933,5.1788,5.2605,5.3423,5.3683,5.3926,5.4143,5.4143,5.4245,5.4463,5.4463,5.4463,5.4463,5.4591,5.4639,5.4639,5.4761,5.4924,5.5078,5.4761,5.5056,5.5761,5.6816,5.7542,5.7953,5.7953,5.8298,5.877,5.877,5.9153,5.9716,6.0098,6.0238,6.0301,6.0692,6.0781,6.0793,6.0877,6.0816,6.0804,6.0922,6.0922,6.0922,6.0955,6.0969,6.101,6.101,6.1041,6.1051,6.1021,6.1018,6.1018,6.1051,6.1031,6.1031,6.1051,6.1051,6.1099,6.1118,6.1118,6.1118,6.1118,6.1118,6.1118,6.1118,6.1118,6.1118,6.1118,6.1118,6.1118,6.1118,6.1118,6.1118,6.1118,6.1118,6.1118,4.2224,4.2737,4.2758,4.0152,3.902,3.778,3.4902,3.5054,3.5339,3.3667,0.0,0.0,0.0,0.0,3.2602,0.0,0.0,0.0,0.0,2.8268,0.0,0.0,0.0,0.0,0.0,0.0,3.3488,3.5464,3.5813,3.7465,4.0992,4.4283,4.6178,4.6475,4.8853,5.0525,5.1379,5.2197,5.3014,5.3794,5.3926,5.4089,5.4296,5.4413,5.4591,5.4791,5.4791,5.4791,5.4806,5.4924,5.4966,5.4981,5.5091,5.5441,5.5873,5.5535,5.6193,5.7347,5.8145,5.8767,5.9204,5.9204,5.955,5.9973,5.9973,6.0358,6.0781,6.0781,6.0781,6.0781,6.0781,6.0781,6.0793,6.0827,6.0866,6.0877,6.0944,6.0965,6.0948,6.098,6.1031,6.1032,6.1032,6.106,6.1109,6.1032,6.1041,6.1041,6.1109,6.1051,6.1041,6.1109,6.1118,6.1118,6.1118,6.1118,6.1118,6.1118,6.1118,6.1118,6.1118,6.1118,6.1118,6.1118,6.1118,6.1118,6.1118,6.1118,6.1118,6.1118,6.1118,6.1118]}]]